[[{"header":{"parameterUnit":"m.s-1","parameterCategory":1,"la1":30.6,"la2":29.2853,"lo1":-89.7004,"lo2":-87.6739,"dx":0.0162,"dy":0.0183,"nx":112,"ny":82,"refTime":"2023-01-05T18:00:00:Z","depth":0,"parameterNumber":2,"parameterNumberName":"U-component_of_WINDS"},"data":[0.0,0.0,0.0,0.0,0.0,0.0,0.0,0.0,0.0,0.0,0.0,0.0,0.0,0.0,0.0,0.0,0.0,0.0,0.0,0.0,0.0,0.0,0.0,0.0,0.0,0.0,0.0,0.0,0.0,0.0,0.0,0.0,0.0,0.0,0.0,0.0,0.0,0.0,0.0,0.0,0.0,0.0,0.0,0.0,0.0,0.0,0.0,0.0,0.0,0.0,0.0,0.0,0.0,0.0,0.0,0.0,0.0,0.0,0.0,0.0,0.0,0.0,0.0,0.0,0.0,0.0,0.0,0.0,0.0,0.0,0.0,0.0,0.0,0.0,0.0,0.0,0.0,0.0,0.0,0.0,0.0,0.0,0.0,0.0,0.0,0.0,0.0,0.0,0.0,0.0,4.0777,4.1317,4.193,4.2714,4.3743,4.1552,3.9964,3.9563,0.0,0.0,0.0,0.0,0.0,0.0,0.0,0.0,0.0,0.0,0.0,0.0,0.0,0.0,0.0,0.0,0.0,0.0,0.0,0.0,0.0,0.0,0.0,0.0,0.0,0.0,0.0,0.0,0.0,0.0,0.0,0.0,0.0,0.0,0.0,0.0,0.0,0.0,0.0,0.0,0.0,0.0,0.0,0.0,0.0,0.0,0.0,0.0,0.0,0.0,0.0,0.0,0.0,0.0,0.0,0.0,0.0,0.0,0.0,0.0,0.0,0.0,0.0,0.0,0.0,0.0,0.0,0.0,0.0,0.0,0.0,0.0,0.0,0.0,0.0,0.0,0.0,0.0,0.0,0.0,0.0,0.0,0.0,0.0,0.0,0.0,0.0,0.0,0.0,0.0,0.0,0.0,0.0,0.0,0.0,0.0,0.0,0.0,0.0,0.0,0.0,0.0,0.0,0.0,4.2037,4.3694,4.2932,4.264,4.3497,4.1287,3.9913,4.0066,0.0,0.0,0.0,0.0,0.0,0.0,0.0,0.0,0.0,0.0,0.0,0.0,0.0,0.0,0.0,0.0,0.0,0.0,0.0,0.0,0.0,0.0,0.0,0.0,0.0,0.0,0.0,0.0,0.0,0.0,0.0,0.0,0.0,0.0,0.0,0.0,0.0,0.0,0.0,0.0,0.0,0.0,0.0,0.0,0.0,0.0,0.0,0.0,0.0,0.0,0.0,0.0,0.0,0.0,0.0,0.0,0.0,0.0,0.0,0.0,0.0,0.0,0.0,0.0,0.0,0.0,0.0,0.0,0.0,0.0,0.0,0.0,0.0,0.0,0.0,0.0,0.0,0.0,0.0,0.0,0.0,0.0,0.0,0.0,0.0,0.0,0.0,0.0,0.0,0.0,0.0,0.0,0.0,0.0,0.0,0.0,0.0,0.0,0.0,0.0,0.0,0.0,0.0,4.1478,4.2906,4.4065,4.2945,4.2285,4.2593,4.1637,4.0566,3.9597,3.9787,0.0,0.0,0.0,0.0,0.0,0.0,0.0,0.0,0.0,0.0,0.0,0.0,0.0,0.0,0.0,0.0,0.0,0.0,0.0,0.0,0.0,0.0,0.0,0.0,0.0,0.0,0.0,0.0,0.0,0.0,0.0,0.0,0.0,0.0,0.0,0.0,0.0,0.0,0.0,0.0,0.0,0.0,0.0,0.0,0.0,0.0,0.0,0.0,0.0,0.0,0.0,0.0,0.0,0.0,0.0,0.0,0.0,0.0,0.0,0.0,0.0,0.0,0.0,0.0,0.0,0.0,0.0,0.0,0.0,0.0,0.0,0.0,0.0,0.0,0.0,0.0,0.0,0.0,0.0,0.0,0.0,0.0,0.0,0.0,0.0,0.0,0.0,0.0,0.0,0.0,0.0,0.0,0.0,0.0,0.0,0.0,0.0,0.0,0.0,0.0,0.0,0.0,4.2653,4.3554,4.405,4.277,4.2077,4.2448,4.1971,4.1115,3.9866,4.0849,0.0,0.0,0.0,0.0,0.0,0.0,0.0,0.0,0.0,0.0,0.0,0.0,0.0,0.0,0.0,0.0,0.0,0.0,0.0,0.0,0.0,0.0,0.0,0.0,0.0,0.0,0.0,0.0,0.0,0.0,0.0,0.0,0.0,0.0,0.0,0.0,0.0,0.0,0.0,0.0,0.0,0.0,0.0,0.0,0.0,0.0,0.0,0.0,0.0,0.0,0.0,0.0,0.0,0.0,0.0,0.0,0.0,0.0,0.0,0.0,0.0,0.0,0.0,0.0,0.0,0.0,0.0,0.0,0.0,0.0,0.0,0.0,0.0,0.0,0.0,0.0,0.0,0.0,0.0,0.0,0.0,0.0,0.0,0.0,0.0,0.0,0.0,0.0,0.0,0.0,0.0,0.0,0.0,0.0,0.0,0.0,0.0,0.0,0.0,0.0,0.0,0.0,4.2969,4.4057,4.4334,4.2743,4.2327,4.4069,4.1936,4.0981,4.2075,4.1558,0.0,0.0,0.0,0.0,0.0,0.0,0.0,0.0,0.0,0.0,0.0,0.0,0.0,0.0,0.0,0.0,0.0,0.0,0.0,0.0,0.0,0.0,0.0,0.0,0.0,0.0,0.0,0.0,0.0,0.0,0.0,0.0,0.0,0.0,0.0,0.0,0.0,0.0,0.0,0.0,0.0,0.0,0.0,0.0,0.0,0.0,0.0,0.0,0.0,0.0,0.0,0.0,0.0,0.0,0.0,0.0,0.0,0.0,0.0,0.0,0.0,0.0,0.0,0.0,0.0,0.0,0.0,0.0,0.0,0.0,0.0,0.0,0.0,0.0,0.0,0.0,0.0,0.0,0.0,0.0,0.0,0.0,0.0,0.0,0.0,0.0,0.0,0.0,0.0,0.0,0.0,0.0,0.0,0.0,0.0,0.0,0.0,0.0,0.0,0.0,0.0,0.0,4.317,4.4041,0.0,4.2464,4.2074,4.2624,4.1726,4.1285,4.1613,0.0,0.0,0.0,0.0,0.0,0.0,0.0,0.0,0.0,0.0,0.0,0.0,0.0,0.0,0.0,0.0,0.0,0.0,0.0,0.0,0.0,0.0,0.0,0.0,0.0,0.0,0.0,0.0,0.0,0.0,0.0,0.0,0.0,0.0,0.0,0.0,0.0,0.0,0.0,0.0,0.0,0.0,0.0,0.0,0.0,0.0,0.0,0.0,0.0,0.0,0.0,0.0,0.0,0.0,0.0,0.0,0.0,0.0,0.0,0.0,0.0,0.0,0.0,0.0,0.0,0.0,0.0,0.0,0.0,0.0,0.0,0.0,0.0,0.0,0.0,0.0,0.0,0.0,0.0,0.0,0.0,0.0,0.0,0.0,0.0,0.0,0.0,0.0,0.0,0.0,0.0,0.0,0.0,0.0,0.0,0.0,0.0,0.0,0.0,0.0,0.0,0.0,4.1505,4.3147,4.4019,0.0,4.2434,4.1938,4.208,4.1786,4.1591,4.1591,0.0,0.0,0.0,0.0,0.0,0.0,0.0,0.0,0.0,0.0,0.0,0.0,0.0,0.0,0.0,0.0,0.0,0.0,0.0,0.0,0.0,0.0,0.0,0.0,0.0,0.0,0.0,0.0,0.0,0.0,0.0,0.0,0.0,0.0,0.0,0.0,0.0,0.0,0.0,0.0,0.0,0.0,0.0,0.0,0.0,0.0,0.0,0.0,0.0,0.0,0.0,0.0,0.0,0.0,0.0,0.0,0.0,0.0,0.0,0.0,0.0,0.0,0.0,0.0,0.0,0.0,0.0,0.0,0.0,0.0,0.0,0.0,0.0,0.0,0.0,0.0,0.0,0.0,0.0,0.0,0.0,0.0,0.0,0.0,0.0,0.0,0.0,0.0,0.0,0.0,0.0,0.0,0.0,0.0,0.0,0.0,0.0,0.0,0.0,0.0,0.0,0.0,4.1505,4.2983,4.4072,4.4355,4.2699,4.2045,4.31,4.2207,4.186,0.0,0.0,0.0,0.0,0.0,0.0,0.0,0.0,0.0,0.0,0.0,0.0,0.0,0.0,0.0,0.0,0.0,0.0,0.0,0.0,0.0,0.0,0.0,0.0,0.0,0.0,0.0,0.0,0.0,0.0,0.0,0.0,0.0,0.0,0.0,0.0,0.0,0.0,0.0,0.0,0.0,0.0,0.0,0.0,0.0,0.0,0.0,0.0,0.0,0.0,0.0,0.0,0.0,0.0,0.0,0.0,0.0,0.0,0.0,0.0,0.0,0.0,0.0,0.0,0.0,0.0,0.0,0.0,0.0,0.0,0.0,0.0,0.0,0.0,0.0,0.0,0.0,0.0,0.0,0.0,0.0,0.0,0.0,0.0,0.0,0.0,0.0,0.0,0.0,0.0,0.0,0.0,0.0,0.0,0.0,0.0,0.0,0.0,0.0,0.0,0.0,0.0,0.0,4.1505,4.25,4.317,4.3267,4.2262,4.1727,4.2045,4.23,4.2354,4.2207,0.0,0.0,0.0,0.0,0.0,0.0,0.0,0.0,0.0,0.0,0.0,0.0,0.0,0.0,0.0,0.0,0.0,0.0,0.0,0.0,0.0,0.0,0.0,0.0,0.0,0.0,0.0,0.0,0.0,0.0,0.0,0.0,0.0,0.0,0.0,0.0,0.0,0.0,0.0,0.0,0.0,0.0,0.0,0.0,0.0,0.0,0.0,0.0,0.0,0.0,0.0,0.0,0.0,0.0,0.0,0.0,0.0,0.0,0.0,0.0,0.0,0.0,0.0,0.0,0.0,0.0,0.0,0.0,0.0,0.0,0.0,0.0,0.0,0.0,0.0,0.0,0.0,0.0,0.0,0.0,0.0,0.0,0.0,0.0,0.0,0.0,0.0,0.0,0.0,0.0,0.0,0.0,0.0,0.0,0.0,0.0,0.0,0.0,0.0,0.0,0.0,0.0,4.1497,4.2575,4.3169,4.2835,4.2352,4.1943,4.1616,4.2352,4.2573,4.2077,0.0,0.0,0.0,0.0,0.0,0.0,0.0,0.0,0.0,0.0,0.0,0.0,0.0,0.0,0.0,0.0,0.0,0.0,0.0,0.0,0.0,0.0,0.0,0.0,0.0,0.0,0.0,0.0,0.0,0.0,0.0,0.0,0.0,0.0,0.0,0.0,0.0,0.0,0.0,0.0,0.0,0.0,0.0,0.0,0.0,0.0,0.0,0.0,0.0,0.0,0.0,0.0,0.0,0.0,0.0,0.0,0.0,0.0,0.0,0.0,0.0,0.0,0.0,0.0,0.0,0.0,0.0,0.0,0.0,0.0,0.0,0.0,0.0,0.0,0.0,0.0,0.0,0.0,0.0,0.0,0.0,0.0,0.0,0.0,0.0,0.0,0.0,0.0,0.0,0.0,0.0,0.0,0.0,0.0,0.0,0.0,0.0,0.0,0.0,0.0,0.0,0.0,4.149,4.2938,4.3607,4.2872,4.2797,4.25,4.1757,4.2389,4.2551,4.202,0.0,0.0,0.0,0.0,0.0,0.0,0.0,0.0,0.0,0.0,0.0,0.0,0.0,0.0,0.0,0.0,0.0,0.0,0.0,0.0,0.0,0.0,0.0,0.0,0.0,0.0,0.0,0.0,0.0,0.0,0.0,0.0,0.0,0.0,0.0,0.0,0.0,0.0,0.0,0.0,0.0,0.0,0.0,0.0,0.0,0.0,0.0,0.0,0.0,0.0,0.0,0.0,0.0,0.0,0.0,0.0,0.0,0.0,0.0,0.0,2.7929,2.756,0.0,0.0,0.0,0.0,0.0,0.0,0.0,0.0,0.0,0.0,0.0,0.0,0.0,0.0,0.0,0.0,0.0,0.0,0.0,0.0,0.0,0.0,0.0,0.0,0.0,0.0,0.0,0.0,0.0,0.0,0.0,0.0,0.0,0.0,0.0,0.0,0.0,0.0,0.0,0.0,4.1482,4.241,4.2943,4.279,4.2797,4.2723,4.2575,4.2686,4.2493,4.1794,4.1472,0.0,0.0,0.0,0.0,0.0,0.0,0.0,0.0,0.0,0.0,0.0,0.0,0.0,0.0,0.0,0.0,0.0,0.0,0.0,0.0,0.0,0.0,0.0,0.0,0.0,0.0,0.0,0.0,0.0,0.0,0.0,0.0,0.0,0.0,0.0,0.0,0.0,0.0,0.0,0.0,0.0,0.0,0.0,0.0,0.0,0.0,0.0,0.0,0.0,0.0,0.0,0.0,0.0,0.0,0.0,0.0,0.0,0.0,0.0,2.837,2.8039,0.0,0.0,0.0,0.0,0.0,0.0,0.0,0.0,0.0,0.0,0.0,0.0,0.0,0.0,0.0,0.0,0.0,0.0,0.0,0.0,0.0,0.0,0.0,0.0,0.0,0.0,0.0,0.0,0.0,0.0,0.0,0.0,0.0,0.0,0.0,0.0,0.0,0.0,0.0,0.0,4.1942,4.2446,4.2713,4.279,4.3132,4.3206,4.2835,4.3132,4.2894,4.1712,4.2144,0.0,0.0,0.0,0.0,0.0,0.0,0.0,0.0,0.0,0.0,0.0,0.0,0.0,0.0,0.0,0.0,0.0,0.0,0.0,0.0,0.0,0.0,0.0,0.0,0.0,0.0,0.0,0.0,0.0,0.0,0.0,0.0,0.0,0.0,0.0,0.0,0.0,0.0,0.0,0.0,0.0,0.0,0.0,0.0,0.0,0.0,0.0,0.0,0.0,0.0,0.0,0.0,0.0,2.8623,2.945,2.9479,3.0147,3.0437,3.0365,2.9149,2.9015,2.9576,2.8861,0.0,0.0,0.0,0.0,0.0,0.0,0.0,0.0,0.0,0.0,0.0,0.0,0.0,0.0,0.0,0.0,0.0,0.0,0.0,0.0,0.0,0.0,3.451,3.3969,3.4836,3.5438,3.4276,0.0,0.0,0.0,0.0,0.0,0.0,0.0,0.0,0.0,0.0,0.0,4.2228,4.2593,4.278,4.2953,4.3718,4.3949,4.328,4.3726,4.3355,4.1913,4.3022,4.2975,0.0,0.0,0.0,0.0,0.0,0.0,0.0,0.0,0.0,0.0,0.0,0.0,0.0,0.0,0.0,0.0,0.0,0.0,0.0,0.0,0.0,0.0,0.0,0.0,0.0,0.0,0.0,0.0,0.0,0.0,0.0,0.0,1.9194,1.8887,0.0,0.0,0.0,0.0,0.0,0.0,0.0,0.0,0.0,0.0,0.0,0.0,0.0,2.4833,2.6284,2.668,2.6989,2.7265,2.8322,2.8811,2.884,2.9464,2.974,2.974,3.0133,0.0,2.9759,2.9589,0.0,0.0,0.0,0.0,0.0,0.0,0.0,0.0,0.0,0.0,0.0,0.0,0.0,0.0,0.0,0.0,0.0,0.0,0.0,0.0,0.0,0.0,3.4504,3.4414,3.5046,3.5566,3.5374,3.4948,3.4223,3.3055,3.2806,3.3326,0.0,0.0,0.0,0.0,0.0,0.0,4.1329,4.2137,4.2908,4.3683,4.4578,4.5109,4.4997,4.4358,4.3615,4.2686,4.2218,4.2166,4.2603,4.2238,0.0,0.0,0.0,0.0,0.0,0.0,0.0,0.0,0.0,0.0,0.0,0.0,0.0,0.0,0.0,0.0,0.0,0.0,0.0,0.0,0.0,0.0,0.0,0.0,0.0,0.0,0.0,0.0,0.0,1.8798,1.8814,1.9568,1.9094,1.8713,0.0,0.0,0.0,0.0,0.0,0.0,0.0,0.0,0.0,2.5022,2.5112,2.5585,2.658,2.69,2.7144,2.7311,2.8067,2.8525,2.8724,2.9305,2.9581,2.9653,3.0321,3.0527,3.0368,3.0465,3.0585,3.071,0.0,0.0,0.0,0.0,3.1887,3.2166,3.2895,3.3414,3.3727,3.342,0.0,0.0,0.0,0.0,0.0,0.0,0.0,3.4208,3.4605,3.526,3.5802,3.5802,3.6366,3.6896,3.6896,3.6424,3.5572,3.4227,3.4105,3.4891,3.6908,3.6451,0.0,0.0,0.0,4.015,4.1706,4.266,4.3521,4.4473,4.5338,4.5906,4.5955,4.5212,4.4589,4.4209,4.3883,4.3415,4.285,4.3453,4.3133,0.0,0.0,0.0,0.0,0.0,0.0,0.0,0.0,0.0,0.0,0.0,0.0,0.0,0.0,0.0,0.0,0.0,0.0,0.0,0.0,0.0,0.0,0.0,0.0,0.0,0.0,0.0,0.0,1.9052,1.9094,2.0384,1.9665,1.9113,0.0,0.0,0.0,0.0,0.0,0.0,2.1859,2.2924,2.4094,2.5383,2.5601,2.5984,2.6665,2.6785,2.6903,2.7053,2.7497,2.788,2.823,2.9029,2.9363,2.9421,3.0234,3.0717,3.0955,3.1043,3.1324,3.1653,3.1495,3.1134,3.0791,3.1796,3.2196,3.2281,3.294,3.3543,3.393,3.3538,3.3772,3.4174,3.3839,0.0,0.0,0.0,0.0,3.5194,3.5599,3.6375,3.7088,3.7088,3.7516,3.7843,3.7652,3.7359,3.6705,3.5485,3.5269,3.6014,3.8308,3.7321,0.0,0.0,0.0,3.9987,4.1954,4.3034,4.4036,4.5221,4.6131,4.6664,4.6776,4.6244,4.5844,4.5621,4.5629,4.5034,4.3801,4.4792,4.4235,4.1792,0.0,0.0,0.0,0.0,0.0,0.0,0.0,0.0,0.0,0.0,0.0,0.0,0.0,0.0,0.0,0.0,0.0,0.0,0.0,0.0,0.0,0.0,0.0,0.0,0.0,0.0,0.0,0.0,0.0,2.083,2.0375,0.0,0.0,0.0,0.0,2.009,2.0112,2.0889,2.2655,2.2692,2.37,2.5983,2.541,2.546,2.6322,2.5854,2.5854,2.6353,2.6382,2.6558,2.6923,2.8172,2.8753,2.8811,3.0075,3.0851,3.1263,3.1146,3.119,3.135,3.1451,3.1464,3.152,3.2152,3.2386,3.2464,3.3153,3.3399,3.347,3.3705,3.3889,3.4108,3.4574,3.4729,0.0,0.0,3.5705,3.6578,3.6116,3.6901,3.7855,3.7855,3.7877,3.7719,3.7021,3.7381,3.7618,3.6829,3.6084,3.6274,3.8497,0.0,3.7607,4.0606,4.0058,3.9866,4.1443,4.2791,4.4214,4.5861,4.695,4.7536,4.7545,4.7585,4.7256,4.6475,4.6438,4.6401,4.6327,4.5666,4.526,4.5152,4.3617,0.0,0.0,0.0,0.0,0.0,0.0,0.0,0.0,0.0,0.0,0.0,0.0,0.0,0.0,0.0,0.0,0.0,0.0,0.0,0.0,0.0,0.0,0.0,0.0,0.0,0.0,0.0,0.0,2.0264,2.0167,0.0,2.0363,2.0216,2.0286,2.0716,2.086,2.1406,2.2413,2.2751,2.3321,2.4136,2.4429,2.4688,2.5003,2.5114,2.5674,2.6622,2.6622,2.7112,2.807,2.9348,2.9929,2.9973,3.128,3.1972,3.2219,3.228,3.202,3.1581,3.1794,3.1964,3.2163,3.2707,3.2922,3.2975,3.3391,3.3534,3.3572,3.3827,3.3973,3.4111,3.4637,3.4793,3.4963,3.585,3.642,3.6884,3.7134,3.7891,3.8599,3.8599,3.8599,3.8531,3.8273,3.8058,3.7809,3.755,3.6874,3.6865,3.8506,3.7674,3.7551,3.9838,4.0695,4.142,4.2328,4.4455,4.6094,4.6801,4.7638,4.8245,4.8379,4.8377,4.8532,4.8807,4.8333,4.8036,4.8036,4.7256,4.612,4.4516,4.4471,4.3565,0.0,0.0,0.0,0.0,0.0,0.0,0.0,0.0,0.0,0.0,0.0,0.0,0.0,0.0,0.0,0.0,0.0,0.0,0.0,0.0,0.0,0.0,0.0,0.0,0.0,0.0,2.014,2.0375,2.0232,2.0254,2.0653,2.0347,2.0335,2.0892,2.0955,2.1234,2.1885,2.2408,2.2873,2.3285,2.3974,2.4524,2.4871,2.5166,2.5936,2.7101,2.7101,2.7769,2.9029,3.0118,3.0699,3.096,3.2048,3.256,3.2643,3.2861,3.2611,3.2168,3.2445,3.2647,3.279,3.2922,3.2967,3.2963,3.2917,3.3116,3.3417,3.3534,3.3668,3.3847,3.4382,3.4407,3.4456,3.534,3.6077,3.6677,3.6923,3.7848,3.8761,3.8934,3.9017,3.9017,3.9017,3.8633,3.8261,3.8261,3.7697,3.7545,3.8654,3.8037,3.8059,4.0103,4.1169,4.2063,4.292,4.5192,4.6746,4.6829,4.7813,4.856,4.8733,4.9259,4.9758,5.007,5.0116,4.9893,4.9336,4.9076,4.7941,4.5744,4.5714,4.4667,4.2537,0.0,0.0,0.0,0.0,0.0,0.0,0.0,0.0,0.0,0.0,0.0,0.0,0.0,0.0,0.0,0.0,0.0,0.0,0.0,0.0,0.0,0.0,0.0,2.0857,2.0346,2.032,2.128,2.066,2.0576,2.176,2.0835,2.027,2.0587,2.0318,2.047,2.1192,2.1675,2.2476,2.3666,2.4191,2.4942,2.5985,2.6027,2.6585,2.7733,2.7733,2.8408,2.9653,3.0335,3.0989,3.1597,3.2264,3.2555,3.2571,3.2791,3.2936,3.3109,3.3376,3.3514,3.3425,3.2751,3.2512,3.2422,3.178,3.2207,3.3011,3.2877,3.3025,3.3324,3.3886,3.3662,3.3214,3.3285,3.468,3.6024,3.5416,3.6678,3.8271,3.8869,3.9005,3.9017,3.9017,3.9017,3.9017,3.9017,3.843,3.8229,3.9062,3.8671,3.9017,4.1376,4.1405,0.0,4.3148,4.4817,4.5911,4.5993,4.7518,4.8569,4.8679,5.0296,5.0944,5.0219,5.1714,5.1853,5.0256,5.0896,5.0615,4.9044,4.7412,4.5725,4.4023,0.0,0.0,0.0,0.0,0.0,0.0,0.0,0.0,0.0,0.0,0.0,0.0,0.0,0.0,0.0,0.0,0.0,0.0,0.0,0.0,0.0,0.0,2.0616,2.0652,2.0864,2.1062,2.1222,2.1053,2.1024,2.1353,2.1079,2.0946,2.1042,2.1264,2.1479,2.1691,2.2437,2.3212,2.3961,2.4684,2.5376,2.6063,2.6413,2.7087,2.809,2.8318,2.9185,3.065,3.1562,3.2338,3.2993,3.3616,3.3889,3.3906,3.4088,3.427,3.4316,3.3608,3.3422,3.3484,3.3275,3.3291,3.3352,3.3171,3.3349,3.367,3.3787,3.386,3.4044,3.4731,3.441,3.4013,3.5059,3.5322,3.5466,3.6472,3.7446,3.8339,3.8988,3.9055,3.9017,3.9017,3.9017,3.9017,3.9017,3.9288,3.9402,3.9122,3.8994,3.9194,3.9953,4.1232,0.0,4.405,4.4961,4.6278,4.836,4.9073,4.9656,5.0332,5.1999,5.2697,5.1964,5.2345,5.2382,5.1927,5.0413,4.8833,4.7268,4.6246,4.5456,0.0,0.0,0.0,0.0,0.0,0.0,0.0,0.0,0.0,0.0,0.0,0.0,0.0,0.0,0.0,0.0,0.0,0.0,0.0,0.0,0.0,0.0,2.0707,2.0603,2.0603,2.0872,2.1086,2.1192,2.1257,2.1403,2.1716,2.1804,2.1904,2.2034,2.2158,2.2303,2.2435,2.2921,2.3532,2.4233,2.497,2.5707,2.6456,2.6977,2.7685,2.8588,2.8916,2.9903,3.1441,3.2179,3.299,3.3894,3.4254,3.4382,3.4428,3.4698,3.4819,3.4846,0.0,0.0,0.0,0.0,3.3832,3.3683,3.3652,3.3954,3.4368,3.4412,3.4545,3.4748,3.5177,3.4795,3.4432,3.555,3.5719,3.5786,3.6926,3.7669,3.8319,3.8959,3.9051,3.9073,3.9389,3.922,3.9085,3.9389,3.9559,0.0,3.9884,3.9793,3.9827,4.0246,4.1301,4.2436,4.3649,4.4674,4.5946,4.7614,4.858,4.9535,5.0526,5.2155,0.0,0.0,0.0,5.3599,5.3599,5.1267,0.0,0.0,0.0,4.6573,4.5807,4.5826,0.0,0.0,4.4098,4.3429,0.0,0.0,0.0,0.0,0.0,0.0,0.0,0.0,0.0,0.0,0.0,0.0,0.0,0.0,0.0,0.0,2.0504,2.0725,2.0806,2.0834,2.097,2.1309,2.1528,2.193,2.2577,2.2761,2.2944,2.3236,2.3047,2.3037,2.333,0.0,0.0,0.0,0.0,2.6072,2.7078,2.7623,2.8298,2.9113,2.9516,3.0538,3.2115,3.2526,3.3396,3.4615,3.4615,3.4615,3.4649,3.4953,3.5074,3.5124,3.5222,3.5343,3.5429,3.4847,3.4296,3.3878,3.377,0.0,0.0,3.4949,3.5154,3.5383,3.5411,3.5022,3.4685,3.5246,3.5766,3.6264,3.6783,3.7464,3.8168,3.8786,3.902,3.9288,3.9977,3.966,3.9457,4.01,3.9762,3.9783,4.1102,4.0811,4.0712,4.1579,4.1599,4.1857,4.2822,4.4293,4.5409,4.58,4.7604,0.0,5.0231,5.1784,5.2712,5.2744,5.4082,5.4787,5.4602,5.2688,5.147,5.1119,4.9766,4.8277,4.6624,4.655,4.6141,4.5443,4.5257,4.4328,0.0,0.0,0.0,0.0,0.0,0.0,0.0,0.0,0.0,0.0,0.0,0.0,0.0,0.0,0.0,2.1036,2.1196,2.1444,2.205,2.2233,2.2276,2.2243,2.2888,2.3401,2.3534,2.358,2.3611,2.3678,2.397,2.4174,2.4243,2.4649,2.5199,2.5852,2.64,2.6992,2.7656,2.8183,2.8654,2.9113,0.0,0.0,3.2823,3.3669,3.4731,3.592,3.592,3.592,3.5938,3.6008,3.6219,3.6426,3.571,3.5457,3.5473,3.534,3.5236,3.5132,3.513,3.5244,3.5421,3.5688,3.5813,3.5922,3.6183,3.5707,0.0,3.5411,3.5072,3.481,3.5612,3.6632,3.7617,3.8286,3.9188,3.9943,4.0079,4.0472,4.0832,4.0967,4.1339,4.1745,4.2029,4.1591,4.1495,4.2373,4.2555,4.3066,4.4389,4.48,4.6018,4.8815,5.0649,5.2008,5.2749,5.4384,5.4845,5.3636,5.3859,5.346,5.2159,5.2289,5.1435,4.941,4.9093,4.8461,4.7478,4.681,4.6401,4.6261,4.4878,4.3726,0.0,0.0,0.0,0.0,0.0,0.0,0.0,0.0,0.0,0.0,0.0,1.9675,0.0,0.0,2.0551,2.1062,2.128,2.162,2.2278,2.2918,2.3227,2.2881,2.3482,2.3892,2.3892,2.4301,2.4547,2.4547,2.4771,2.4898,2.4898,2.542,2.5852,2.6137,2.6941,2.7613,2.8187,2.8922,2.9552,2.9997,3.0857,3.1854,3.304,3.3958,3.4922,3.5868,3.617,3.6315,3.6333,3.6511,3.681,3.7099,3.6632,3.6447,3.64,3.6118,3.5998,3.5938,3.5609,3.5603,3.5796,3.5941,3.6116,3.6273,3.643,3.6214,3.5922,3.6333,3.6143,3.5955,3.6712,3.7338,3.7968,3.8603,3.9202,3.9835,4.051,4.0933,4.1305,4.1677,4.2063,4.2435,4.2794,4.261,4.2458,4.2654,4.2856,4.3247,4.4004,4.5164,4.6599,4.8302,5.0762,5.26,5.3414,5.5148,5.5703,5.449,5.4416,5.3859,5.2642,5.2605,5.2011,5.0785,5.0376,4.9745,4.889,4.8519,4.7579,4.6185,4.531,4.4702,0.0,0.0,0.0,0.0,0.0,0.0,0.0,0.0,1.887,1.9743,2.0357,2.0621,2.0172,2.0671,2.1166,2.1166,2.1514,2.197,2.2485,2.3468,2.4013,2.3658,2.3982,2.4242,2.4242,2.4884,2.5348,2.5444,2.5468,2.5498,2.5595,2.6021,2.6262,2.6262,2.7189,2.798,2.8597,2.9513,3.0354,3.1009,3.1804,3.2622,3.3513,3.4368,3.5212,3.5973,3.646,3.6682,3.6765,3.7122,3.7457,3.7741,3.7759,3.7776,3.7686,3.6806,3.6493,3.6404,3.5729,3.57,3.5957,3.5989,3.6195,3.6445,3.6476,3.6584,3.677,3.7104,3.7392,3.7679,3.8044,3.8292,3.8585,3.9082,3.9402,3.988,4.0965,4.1441,4.18,4.2388,4.2638,4.2943,4.3524,4.3681,4.3586,4.3213,4.3288,4.3464,4.3595,4.5689,4.7204,4.7412,5.0413,5.2872,5.4115,5.5475,5.5956,5.5307,5.5085,5.4713,5.4044,5.3274,5.2754,5.2605,5.1974,5.1231,5.033,5.033,4.9194,4.6948,4.6617,4.6149,1.7402,1.7512,1.7872,1.9278,1.918,1.9201,0.0,0.0,1.992,2.062,2.0824,2.0858,2.0793,2.1484,2.2052,2.2052,2.2741,2.3386,2.3746,2.4319,2.4785,2.505,2.5109,2.5157,2.5157,2.524,2.5516,2.5973,2.6021,2.6214,2.67,2.6777,2.6801,2.6801,2.7391,2.798,2.8597,2.9513,3.0457,3.136,3.239,3.3662,3.5137,3.5822,3.6751,3.7883,3.797,3.8092,3.8259,3.8499,3.8718,3.8918,3.9128,3.9182,3.8943,3.7165,3.6493,3.6404,3.5729,3.5589,3.5752,3.5941,3.6116,3.6289,3.6445,3.6907,3.7292,3.6754,3.7435,3.8177,3.7649,3.8296,3.9109,3.9176,4.0107,4.1024,4.1191,4.2239,4.3186,4.3254,4.3842,4.4364,4.4432,4.4653,4.4797,4.4769,4.4749,4.4856,4.5129,4.66,4.798,4.8948,5.1882,5.458,5.6524,5.6356,5.6135,5.6162,5.5419,5.4973,5.4862,5.4082,5.3348,5.2605,5.2531,5.2085,5.1268,5.1268,5.1101,5.0759,4.9495,4.7365,1.864,1.857,0.0,0.0,1.9455,1.9236,2.0062,2.0113,2.0143,2.0776,2.1113,2.1293,2.1293,2.1606,2.2023,0.0,2.3107,2.3728,2.4366,2.5111,2.56,2.5763,2.6027,2.6099,2.5805,2.6051,2.6316,2.6556,2.6556,2.6676,2.6873,2.7205,2.7373,2.7373,2.8008,2.8628,2.9233,3.0444,3.1439,3.2184,3.326,3.4368,3.5421,3.6025,3.7012,3.8202,3.8202,3.8371,3.8686,3.8778,3.898,3.9283,3.9355,3.9631,3.9798,3.8182,3.7362,3.6926,3.6297,3.6173,3.629,3.6372,3.6774,3.7209,3.729,3.7571,3.7853,3.7577,3.7943,3.8481,3.8589,3.901,3.957,4.0295,4.092,4.1513,4.2307,4.2949,4.3524,4.4012,4.4364,4.4615,4.4615,4.4679,4.4817,4.4981,4.5144,4.5278,4.5384,4.7029,4.927,5.2198,5.3749,5.5461,5.7564,5.7608,5.7317,5.6924,5.6614,5.6013,5.5047,5.4411,5.3847,5.3302,5.3033,5.2508,5.1686,5.1686,5.0855,4.9285,4.8745,4.743,1.9413,1.924,0.0,1.9758,1.9558,1.926,1.9661,2.0007,2.0424,2.0984,2.1554,2.1919,2.1817,2.2081,2.251,2.3171,2.3687,2.4293,2.5051,2.5815,2.6334,2.6334,2.6796,2.6964,2.6574,2.6772,2.697,2.709,2.7114,2.7205,2.733,2.7709,2.7926,2.7926,2.8714,2.9413,3.005,3.1415,3.2508,3.3292,3.4232,3.5096,3.5956,3.6722,3.7709,3.8725,3.8782,3.9009,3.9346,3.9402,3.9654,3.9948,3.9948,4.0247,4.0546,3.9607,3.8811,3.8153,3.7524,3.7284,3.7238,3.7238,3.755,3.7896,3.7963,3.8202,3.8458,3.8324,3.8764,3.9327,3.944,3.9872,4.0475,4.1187,4.1649,4.222,4.3205,4.3558,4.391,4.4499,4.477,4.4905,4.4905,4.5117,4.5331,4.5582,4.5987,4.6149,4.5776,4.7849,5.071,5.4205,5.5111,5.6214,5.8046,5.8334,5.8195,5.7667,5.7334,5.6657,5.5525,5.4869,5.4269,5.3726,5.3513,5.2952,5.2008,5.1976,5.0845,4.8675,4.8294,4.7592,1.9259,1.893,1.858,1.9644,1.9599,1.9568,2.0612,2.0855,2.1009,2.1489,2.2267,2.2742,2.2356,2.3293,2.4136,2.4159,2.488,2.5575,2.5996,2.6532,2.6873,2.6873,2.7349,2.7661,0.0,2.7205,2.7133,2.7637,2.7685,2.7902,2.8406,2.8474,2.8498,2.8498,2.9452,3.0253,3.0857,3.2218,3.3515,3.4739,3.5172,3.6014,3.7273,3.8551,3.945,4.0051,4.0324,4.0539,4.0752,4.0944,4.1135,4.1343,4.1343,4.1343,4.1373,4.1313,4.0894,4.0217,3.9541,3.9007,3.8641,3.8641,3.8292,3.793,3.813,3.8655,3.9056,3.8626,3.9834,4.103,3.9723,4.0794,4.2038,4.1441,4.2362,4.3362,4.3375,4.4012,4.4567,4.4615,4.5162,4.5669,4.5669,4.636,4.6961,4.7105,4.7926,4.8034,4.6741,4.9453,5.2164,5.3846,5.568,5.7149,5.813,5.8227,5.829,5.8434,5.713,5.6423,5.6627,5.5685,5.4654,5.3518,5.3997,5.3606,5.2297,5.2158,5.1667,5.0849,4.9361,4.8259,1.8593,1.856,1.8569,1.9217,1.9538,1.988,2.0606,2.0998,2.1382,2.1951,2.2542,2.2798,2.2261,2.3341,2.4269,2.4097,2.5167,2.6179,2.6572,2.7109,2.7445,2.7445,2.7902,0.0,0.0,0.0,0.0,2.8214,2.8214,2.831,2.8478,2.8835,2.9088,2.925,3.0096,3.0968,3.1883,3.3004,3.4067,3.5089,3.6565,3.7476,3.7941,3.9218,3.9993,4.0363,4.0471,4.0705,4.0984,4.109,4.1213,4.1403,4.1403,4.1673,4.2081,4.2081,4.1912,4.1493,3.9948,3.8996,3.8497,3.8497,3.8665,3.891,3.8998,3.9342,3.969,3.9529,4.0121,4.0801,4.0812,4.1623,4.2487,4.2694,4.3863,4.4911,4.4911,4.5534,4.6056,4.6056,4.6259,4.6413,4.6413,4.6748,4.7277,4.8,4.8481,4.8767,4.8858,5.0681,5.2558,5.3978,5.5996,5.7557,5.8213,5.8709,5.8813,5.8327,5.7962,5.7342,5.646,5.5849,5.5063,5.4133,5.3422,5.2952,5.2626,5.1953,5.1272,5.0594,4.9498,4.8767,1.823,1.8463,1.8718,1.9014,1.9646,2.031,2.0823,2.1361,2.1892,2.2429,2.2731,2.2861,2.2691,2.3542,2.4336,2.4569,2.5716,2.6742,2.7148,2.7661,2.7998,2.7998,2.8286,2.8595,0.0,0.0,0.0,2.8787,2.8955,2.9076,2.9076,2.9388,2.9684,2.9885,3.0741,3.1569,3.2342,3.3654,3.4854,3.599,3.7717,3.8667,3.8899,3.9973,4.0691,4.1064,4.1223,4.144,4.1695,4.1831,4.1957,4.2073,4.2073,4.2342,4.272,4.272,4.2601,4.2231,4.0905,3.9888,3.911,3.911,3.926,3.9409,3.9553,3.9768,4.0076,4.0444,4.1086,4.1734,4.217,4.317,4.4078,4.4293,4.5217,4.6075,4.6075,4.6481,4.68,4.68,4.7022,4.7293,4.753,4.8184,4.9005,5.0001,5.0312,5.0444,5.041,5.2117,5.3664,5.453,5.6567,5.8104,5.8704,5.8696,5.858,5.8307,5.7728,5.7,5.6167,5.5848,5.5084,5.3815,5.3185,5.2546,5.1945,5.1282,5.0622,4.9931,4.9305,4.8784,1.8119,1.8567,1.8924,1.909,1.9912,2.0827,2.1306,2.1871,2.2422,2.2914,2.2836,2.2894,0.0,0.0,2.4435,2.5535,2.6523,2.7301,2.7675,2.8166,2.8522,0.0,0.0,0.0,0.0,0.0,0.0,2.9409,0.0,3.0107,3.0107,3.0131,3.0236,3.0487,3.1452,3.2146,3.2472,3.427,3.5898,3.736,3.8638,3.9538,4.0118,4.0815,4.1482,4.2133,4.2535,4.2708,4.2749,4.313,4.3319,4.3349,4.3349,4.3349,4.3379,4.3379,4.303,4.25,4.25,4.1583,4.0457,4.0397,4.0008,3.9583,3.996,4.0084,4.0307,4.1321,4.2578,4.3621,4.3676,4.5177,4.6529,4.5934,4.6352,4.6853,4.6853,4.6936,4.6969,4.6969,4.7549,4.8293,4.9018,5.0571,5.2017,5.28,5.3207,5.2892,5.141,5.3709,5.5463,5.5428,5.7317,5.8816,5.942,5.8253,5.7787,5.8462,5.6629,5.5578,5.5766,5.5616,5.4644,5.2749,5.3162,5.2402,5.0453,5.0257,4.977,4.9077,4.8874,4.8376,1.7674,1.807,1.862,1.9305,1.9982,2.0739,2.1695,2.2045,2.2312,2.2886,2.285,2.2782,0.0,0.0,0.0,2.5564,2.7036,0.0,2.8286,2.8406,0.0,2.9051,0.0,2.9316,2.9845,3.0275,0.0,0.0,3.0335,3.017,3.0313,3.0701,3.111,3.1491,3.2784,3.3875,3.4748,3.6502,3.7591,3.7999,3.9247,3.9944,4.0147,4.1308,4.2,4.2331,4.2566,4.2789,4.2921,4.321,4.3589,4.4057,4.4057,4.4356,4.4796,4.4796,4.4377,4.3808,4.3808,4.2641,4.1074,4.0546,4.0606,4.0913,4.1006,4.1166,4.1326,4.16,4.2149,4.2776,4.3336,4.4359,4.5337,4.5717,4.6739,4.7616,4.7616,4.8477,4.9271,4.9271,4.9864,5.0471,5.0783,5.1711,5.2536,5.2978,5.3587,5.3716,5.2927,5.4947,5.62,5.5595,5.7969,5.9439,5.9006,5.9055,5.8945,5.852,5.7602,5.6567,5.5549,5.4973,5.4039,5.2567,5.2088,5.1659,5.1302,5.0014,4.9299,4.9077,4.8321,4.7893,1.7715,1.8301,1.8985,1.9485,2.0379,2.1283,2.183,2.2038,2.2164,2.241,2.2137,2.2107,2.2945,2.4156,2.5306,0.0,0.0,0.0,2.8502,2.8715,2.8955,0.0,2.9508,0.0,3.0395,3.0732,3.1083,0.0,3.1167,3.104,3.1275,3.1544,3.1887,3.223,3.3017,3.4131,3.5608,3.6961,3.7959,3.8667,3.9915,4.0699,4.1018,4.2324,4.3031,4.3261,4.344,4.3667,4.3892,4.4096,4.4386,4.4736,4.4736,4.4975,4.5304,4.5304,4.5065,4.4706,4.4386,4.3778,4.293,4.1673,4.1343,4.1422,4.1498,4.1648,4.1926,4.2292,4.2873,4.3675,4.5024,4.5998,4.6832,4.7941,4.8754,4.9341,4.9341,4.9984,5.0574,5.0574,5.1183,5.1723,5.182,5.2611,5.3284,5.346,5.3981,5.4333,5.4375,5.5805,5.6633,5.6168,5.8188,5.9506,5.9341,5.9065,5.8833,5.8683,5.777,5.6556,5.5068,5.4655,5.3629,5.1919,5.1455,5.1118,5.0893,4.9941,4.9325,4.8965,4.8418,4.8031,1.8175,1.8939,1.9657,1.9885,2.1035,2.2093,2.2063,2.2148,2.2171,2.2027,0.0,2.1649,2.3364,2.4252,2.5296,2.6991,0.0,2.8502,2.8619,2.9003,2.934,2.9484,2.9917,3.0419,3.0992,3.104,3.132,3.2045,3.2091,3.2179,3.2444,3.2444,3.2621,3.3039,3.3039,3.3997,3.5987,3.6754,3.7868,3.9334,4.0525,4.1453,4.215,4.3311,4.4,4.4251,4.4507,4.474,4.495,4.52,4.5334,4.5424,4.5424,4.5484,4.5574,4.5574,4.5574,4.5484,4.4915,4.5035,4.5125,4.3259,4.2301,4.1931,4.2133,4.2323,4.2652,4.3419,4.4223,4.5367,4.7316,4.8326,4.9208,5.0707,5.1055,5.1088,5.1185,5.1269,5.137,5.1472,5.2029,5.2469,5.2469,5.3275,5.3948,5.398,5.4239,5.4672,5.5375,5.6253,5.684,5.6943,5.8185,5.925,5.9844,5.8743,5.8279,5.888,5.7598,5.615,5.4685,5.4444,5.3375,5.1272,5.1134,5.0789,5.0149,4.9942,4.9479,4.881,4.8706,4.8307,1.9089,1.9467,1.9923,2.1324,2.1886,2.2322,2.3172,2.3105,0.0,0.0,2.3039,2.3284,2.4377,2.5301,2.6313,2.7574,2.8183,2.8667,2.91,2.9244,2.9629,0.0,3.0708,3.1038,3.1722,3.1816,0.0,0.0,3.2593,3.2593,3.2658,3.2658,3.3287,3.4731,3.4753,3.5854,3.8155,3.8298,3.8927,3.9944,4.0728,4.1453,4.2121,4.2868,4.3478,4.4065,4.4443,0.0,4.4689,4.5138,4.5633,4.6121,4.6121,4.6471,4.695,4.695,4.695,4.695,4.683,4.648,4.5882,4.4436,4.4257,4.4636,4.4657,4.487,4.5082,4.5243,4.5645,4.6268,4.7246,4.7693,4.8318,4.9833,5.0207,5.0393,5.1071,5.1674,5.23,5.2976,5.3213,5.3281,5.3281,5.3466,5.3685,5.3948,5.4045,5.4244,5.4654,5.5943,5.7047,5.7633,5.8478,5.9047,5.9183,5.8943,5.8857,5.8975,5.7596,5.6391,5.5444,5.4237,5.3099,5.203,5.141,5.103,5.0893,4.9617,4.8962,4.8789,4.8169,4.7824,2.0155,2.0672,2.1149,2.2151,2.2647,2.2972,2.3276,0.0,0.0,0.0,2.3207,2.368,2.4975,2.5924,2.6837,2.776,2.8457,2.9003,2.9268,2.9773,3.0323,3.0829,3.1141,3.145,3.1803,3.1937,3.2279,3.2901,3.3058,3.3189,3.3321,3.3595,3.4331,3.5652,3.6125,3.7148,3.8777,3.9203,3.9817,4.0641,4.1599,4.244,4.3108,4.4167,4.4938,4.5361,4.5658,4.5873,4.6002,4.6267,4.6531,4.6809,4.6809,4.704,4.7309,4.7309,4.7309,4.7309,4.7309,4.71,4.6719,4.6061,4.5603,4.5304,4.5304,4.5552,4.5869,4.5869,4.5899,4.6201,4.7314,4.7691,4.8274,5.0175,5.1225,5.1933,5.2318,5.2655,5.3044,5.345,5.3518,5.3518,5.3518,5.3551,5.3684,5.3948,5.4062,5.4482,5.5566,5.6357,5.6943,5.7288,5.834,5.8995,5.8995,5.8995,5.8995,5.8995,5.7978,5.684,5.5651,5.4547,5.3237,5.1651,5.1272,5.1099,5.1099,5.0375,4.9996,4.9996,4.9617,4.9272,2.1228,2.1901,2.2478,2.2908,2.3461,2.3843,2.3633,2.3466,0.0,2.3515,2.3638,2.4178,2.5617,2.642,2.7142,2.7901,2.8732,2.934,2.946,3.0299,3.0925,0.0,3.1474,0.0,3.1849,3.2123,0.0,3.3296,3.3722,3.3975,3.4051,3.4452,3.5088,3.5945,3.6842,3.7839,3.895,3.9792,4.0576,4.1337,4.244,4.334,4.4059,4.5339,4.6123,4.6513,4.6734,4.6975,4.7222,4.7287,4.7309,4.7309,4.7309,4.7309,4.7309,4.7309,4.7309,4.7309,4.7309,4.7309,4.7279,4.7108,4.6471,4.5693,4.5574,4.5804,4.6102,4.5981,4.5857,4.6032,4.7378,4.79,4.8677,5.0907,5.2502,5.3518,5.3518,5.3518,5.3518,5.3518,5.3518,5.3518,5.3518,5.3601,5.3734,5.3964,5.4094,5.4686,5.6117,5.6598,5.6805,5.6805,5.8116,5.8995,5.8995,5.8857,5.8754,5.8754,5.7909,5.6789,5.5409,5.4651,5.3356,5.1375,5.1168,5.1099,5.1099,5.0927,5.0962,5.1099,5.1099,5.0858,2.223,2.2776,2.3327,2.3922,2.4471,2.497,2.5366,0.0,2.5587,2.5826,2.5713,2.5779,2.6531,2.6955,2.745,2.8299,2.8935,2.946,2.9962,3.054,3.1069,3.1551,0.0,0.0,3.2313,3.295,3.3493,3.3809,3.4758,3.5109,3.4653,3.4678,3.4974,3.5546,3.6522,3.7714,3.9157,4.0092,4.102,4.2005,4.2673,4.334,4.4008,4.472,4.5441,4.6269,4.6513,4.6734,0.0,4.7222,4.7309,4.7309,4.7309,4.7309,4.7309,4.7309,4.7309,4.7309,4.7309,4.7309,4.7219,4.66,4.6719,4.701,4.639,4.6371,4.6429,4.5877,4.5971,4.6432,4.7215,4.8066,4.9297,5.1637,5.2887,5.3518,5.3518,5.3518,5.3518,5.3518,5.3518,5.3518,5.3518,5.3501,5.3618,5.3948,5.4013,5.4195,5.4654,5.5943,5.6805,5.6805,5.8116,5.8995,5.8995,5.8375,5.7995,5.7995,5.6616,5.5444,5.4616,5.3908,5.308,5.2134,5.1444,5.1099,5.1099,5.0424,5.0459,5.1099,5.1099,5.141,2.336,2.3673,2.4027,2.4807,2.5149,2.5405,2.5789,0.0,2.6237,2.6515,2.6594,2.6872,2.7666,2.7914,2.8099,2.8439,2.922,2.9845,3.0083,3.0829,3.1454,3.1671,3.216,0.0,0.0,0.0,3.428,3.4831,3.5604,3.5931,3.573,3.5728,3.6084,3.6865,3.784,3.8878,4.0015,4.1022,4.1883,4.2644,4.3282,4.3921,4.4581,4.5324,4.5939,4.6447,4.6668,4.6909,0.0,4.7266,4.7309,4.7309,4.7309,4.7309,4.7309,4.7309,4.7309,4.7249,4.6839,4.6689,4.657,4.5933,4.5873,4.6052,4.5783,4.5943,4.6192,4.595,4.5889,4.6066,4.6793,4.8276,5.0055,5.1862,5.2893,5.3518,5.3518,5.3518,5.3518,5.3518,5.3518,5.3518,5.3518,5.3518,5.3568,5.3783,5.3816,5.4118,5.494,5.5952,5.6689,5.6789,5.8116,5.8823,5.8392,5.8081,5.7702,5.7253,5.5805,5.4789,5.4513,5.3341,5.2306,5.1548,5.1237,5.1099,5.1099,5.1237,5.172,5.2494,5.2927,5.3306,2.4376,2.4521,2.4668,2.5292,2.5678,2.5991,0.0,0.0,2.7069,2.7256,2.7368,2.7635,2.8359,2.8403,2.8411,2.8695,2.9484,3.0155,3.0323,3.1117,3.1765,3.1912,0.0,3.2875,3.3135,3.4129,3.4996,3.5708,3.6155,3.6405,3.6405,3.6664,3.6989,3.7384,3.8563,3.9541,4.0195,4.1472,4.2295,4.2731,4.3573,4.4211,4.4669,4.5704,4.6358,4.6631,4.6822,4.704,0.0,4.7309,4.7309,4.7309,4.7309,4.7309,4.7309,4.7309,4.7189,4.6929,4.645,4.6181,4.5882,4.5214,4.5005,4.4996,4.4847,4.5141,4.5465,4.5344,4.5591,4.6147,4.7376,4.9056,5.0794,5.2285,5.3078,5.3518,5.3518,5.3518,5.3518,5.3518,5.3518,5.3518,5.3518,5.3518,5.3534,5.3684,5.375,5.4103,5.4946,5.5748,5.6278,5.6444,5.7598,5.8254,5.7943,5.7702,5.7253,5.6495,5.5219,5.4203,5.3513,5.2444,5.1513,5.0789,5.0755,5.0755,5.0789,5.1513,5.2168,5.2735,5.3736,5.4272,2.52,2.5282,2.5282,2.5306,2.6099,2.6898,0.0,2.7714,2.8478,2.8478,2.8183,2.8022,2.8419,2.8183,2.8208,2.9159,2.9749,3.0299,3.0829,3.138,3.1887,0.0,3.2647,3.3115,3.3903,3.4881,3.5732,3.6331,3.6405,3.6405,3.6405,3.7292,3.7361,3.6428,3.8225,3.921,3.921,4.1135,4.2092,4.2121,4.3398,4.3979,4.4059,4.5529,4.6358,4.6631,4.6822,4.704,0.0,4.7309,4.7309,4.7309,4.7309,4.7309,4.7309,4.7309,4.6869,4.63,4.63,4.5873,4.5185,4.4526,4.4296,4.4237,4.3827,4.4018,4.4237,4.3827,4.5055,4.7032,4.9436,5.0626,5.1573,5.3129,5.3484,5.3518,5.3518,5.3518,5.3518,5.3518,5.3518,5.3518,5.3518,5.3518,5.3534,5.3684,5.3866,5.4045,5.4191,5.5021,5.5616,5.5616,5.6357,5.7116,5.784,5.7219,5.646,5.5651,5.4892,5.3479,5.1237,5.1134,5.0755,5.0045,4.9996,4.9996,4.9996,5.0755,5.1134,5.1168,5.2701,5.3804,2.5123,2.53,2.5396,2.5757,2.6117,2.655,2.7277,2.7709,2.8046,2.8406,2.8403,2.8363,2.8483,2.8403,2.853,2.9199,3.0058,3.0708,3.0877,3.1803,3.2521,3.2667,3.3735,3.4768,0.0,3.5936,3.6205,3.6405,3.6405,3.6405,3.6405,3.6687,3.7215,3.7997,3.9879,4.1029,4.1447,4.2739,4.3602,4.403,4.4436,4.4872,4.5308,4.5781,4.6202,4.6609,4.6668,4.6939,4.7309,4.7309,4.7309,4.7249,4.6779,4.66,4.654,4.6112,4.5813,4.5544,4.5074,4.4775,4.4526,4.3848,4.3638,4.3579,4.3479,4.3717,4.4143,4.427,4.5811,4.7752,4.9011,5.0657,5.2232,5.3247,5.3518,5.3518,5.3518,5.3518,5.3518,5.3518,5.3518,5.3518,5.3518,5.3518,5.3501,5.3551,5.3618,5.3718,5.3849,5.4695,5.5117,5.47,5.5448,5.6065,5.6306,5.6099,5.5444,5.4184,5.3341,5.2375,5.1134,5.0617,5.0252,5.0011,5.0011,5.0237,5.0755,5.1479,5.2375,5.3444,5.3927,5.4287,2.5326,2.5468,2.5396,2.5709,2.5949,2.6262,2.694,2.7397,2.7806,2.8118,2.819,2.8262,2.8454,2.8334,2.8522,2.9436,3.0179,3.0754,3.125,3.218,3.2996,3.35,3.4726,3.57,3.6191,3.6334,3.6405,3.6405,3.6405,3.6505,3.6683,3.7039,3.7891,3.9357,4.0098,4.0948,4.1917,4.2915,4.3805,4.456,4.4785,4.5133,4.554,4.5981,4.6343,4.6631,4.6807,4.7048,0.0,4.7309,4.716,4.6869,4.645,4.6151,4.5873,4.5454,4.5125,4.4855,4.4446,4.4117,4.3848,4.3459,4.3409,4.3547,4.3547,4.3793,4.4173,4.5051,4.6147,4.7487,4.9319,5.0619,5.1816,5.318,5.3518,5.3518,5.3518,5.3518,5.3518,5.3518,5.3518,5.3518,5.3518,5.3518,5.3518,5.3518,5.3534,5.3618,5.3701,5.4291,5.4542,5.4145,5.4684,5.5072,5.5072,5.5136,5.4651,5.3494,5.2651,5.1755,5.072,5.0252,5.0011,5.0011,5.0011,5.0341,5.1099,5.1824,5.2996,5.4478,5.4218,5.4253,0.0,2.5685,2.53,2.53,2.5709,2.6093,2.6093,2.6892,0.0,2.7733,2.7757,2.7926,2.8454,2.8166,2.8358,2.9914,3.0203,3.0652,3.1935,3.2607,3.3449,3.4759,3.5587,3.6052,3.6101,3.6264,3.6405,3.6405,3.6405,3.6632,3.7185,3.8069,3.9157,4.0355,3.9385,3.9614,4.123,4.217,4.3168,4.4124,4.4727,4.501,4.501,4.6116,4.6631,0.0,4.7092,4.7258,4.7249,4.7249,4.6809,4.6211,4.6181,4.5762,4.5214,4.5185,4.4766,4.4237,4.4237,4.3818,4.329,4.329,4.3586,4.3988,4.4007,4.4026,4.4361,4.5915,4.6095,4.6611,5.0061,5.0615,5.079,5.291,5.3484,5.3518,5.3518,5.3518,5.3518,5.3518,5.3518,5.3518,5.3518,5.3518,5.3518,5.3518,5.3618,5.3684,5.3684,5.3866,5.398,5.398,5.411,5.4191,5.4191,5.4383,5.4168,5.3356,5.2617,5.1548,5.008,5.0011,5.0011,5.0011,5.01,5.0479,5.1168,5.1996,5.3099,5.4478,5.3804,5.3839,2.5415,0.0,2.53,2.53,2.5709,2.6093,0.0,2.6604,2.7306,2.8142,2.831,2.8498,2.9003,2.934,2.9797,3.0588,3.1045,3.1783,3.3027,3.4049,3.4963,3.5917,3.6188,3.6462,3.6888,3.6609,3.6405,3.6405,3.6405,3.6632,3.7185,3.814,3.9202,4.0355,4.0914,4.1949,4.3515,4.4562,4.5178,4.5453,4.5754,4.5902,4.5902,4.6388,4.6668,4.6844,4.6953,4.6816,4.654,4.654,4.6121,4.5484,4.4954,4.4655,4.4476,4.3967,4.3668,4.3549,4.3549,4.3409,4.329,4.329,4.3518,4.3793,4.3949,4.4189,4.4649,4.5526,4.6504,4.7629,4.9004,5.0554,5.193,5.2454,5.3041,5.3518,5.3518,5.3518,5.3518,5.3518,5.3518,5.3518,5.3518,5.3518,5.3518,5.3518,5.3517,5.3551,5.3551,5.3667,5.3783,5.3783,5.3931,5.4045,5.4045,5.4319,5.3927,5.2582,5.2306,5.1548,5.008,5.0011,5.0011,5.0011,5.1099,5.1755,5.1927,5.3306,5.4134,5.4478,5.4322,5.4341,2.53,2.53,2.53,2.53,2.5709,2.6093,2.6093,2.6892,2.7806,2.8382,2.8502,2.8739,2.9508,2.9804,3.0136,3.0802,3.1748,3.2845,3.4149,3.536,3.6189,3.6381,3.6607,3.6884,3.7185,3.6708,3.6607,3.711,3.6909,3.711,3.7939,3.8503,3.918,4.0054,4.1069,4.2487,4.4289,4.4874,4.5407,4.5917,4.6001,4.6113,4.6225,4.6469,4.6712,4.688,4.6691,4.6501,4.6271,4.5971,4.5454,4.4796,4.4436,4.4117,4.3818,4.3409,4.329,4.329,4.329,4.329,4.329,4.329,4.3498,4.3714,4.3832,4.4375,4.5072,4.5845,4.64,4.7251,4.9324,5.0556,5.1523,5.2594,5.3195,5.3518,5.3518,5.3518,5.3518,5.3518,5.3518,5.3518,5.3518,5.3518,5.3518,5.3518,5.3518,5.3518,5.3518,5.3568,5.3618,5.3618,5.375,5.3866,5.3866,5.411,5.3806,5.2681,5.2019,5.1341,5.0562,5.0168,5.0168,5.0479,5.1961,5.2754,5.2754,5.3927,5.4478,5.4478,5.4478,5.4478,2.53,2.5372,2.5402,2.5306,2.5763,2.6214,2.6117,2.7344,2.8502,2.8502,2.8643,2.9051,3.0058,3.0105,3.0261,3.104,3.2455,3.3864,3.5032,3.6289,3.6934,3.6581,3.6909,3.7235,3.7287,3.6909,3.7034,3.7939,3.7563,3.7788,3.8843,3.8969,3.9322,4.0007,4.1014,4.246,4.4381,4.4326,4.4828,4.5917,4.5985,4.6061,4.6123,4.641,4.6571,4.6648,4.6305,0.0,4.5942,4.5394,4.4766,4.4147,4.4147,4.3818,4.329,4.329,4.329,4.329,4.329,4.329,4.329,4.329,4.3498,4.3695,4.3695,4.4382,4.5334,4.6289,4.6245,4.6687,5.0057,5.0528,5.0714,5.2805,5.3399,5.3518,5.3518,5.3518,5.3518,5.3518,5.3518,5.3518,5.3518,5.3518,5.3518,5.3518,5.3518,5.3551,5.3653,5.3687,5.3721,5.3822,5.3957,5.3973,5.3837,5.402,5.3876,5.3233,5.2066,5.1326,5.1099,5.0479,5.0444,5.1099,5.2632,5.3391,5.3391,5.4149,5.4478,5.4478,5.4478,5.4478,2.53,2.5636,2.5877,2.542,2.6051,2.6676,2.6214,2.7344,2.8502,2.8502,2.922,3.0037,3.066,3.1113,3.157,3.2154,3.3555,3.4706,3.5133,3.5964,3.6658,3.7034,3.716,3.7386,3.7839,3.7789,3.7814,3.799,3.7914,3.8165,3.8869,3.9281,4.0079,4.1429,4.2547,4.3686,4.4802,4.4475,4.4828,4.5917,4.6291,4.6226,4.5718,4.6151,4.6036,4.5541,0.0,4.5125,4.4596,4.4496,4.4057,4.3439,4.3439,4.3379,4.329,4.329,4.329,4.329,4.329,4.329,4.329,4.329,4.3498,4.3695,4.3695,4.4048,4.4714,4.6007,4.6802,4.7738,4.9576,5.0531,5.1201,5.2238,5.299,5.3518,5.3518,5.3518,5.3518,5.3518,5.3518,5.3518,5.3518,5.3518,5.3518,5.3518,5.3518,5.3721,5.4329,5.4431,5.4668,5.5293,5.5396,5.5142,5.4516,5.4584,5.4379,5.3664,5.3117,5.2272,5.1168,5.0996,5.0996,5.1099,5.2632,5.3391,5.3391,5.4149,5.4478,5.4478,5.4478,5.4478,2.53,2.5685,2.6117,2.6147,2.6964,2.7781,2.7825,2.8835,2.9818,2.9818,3.0203,3.0751,3.139,3.1811,3.2521,3.3898,3.4851,3.5535,3.5817,3.6661,3.716,0.0,3.7034,3.7387,3.7939,3.7739,3.7939,3.8843,3.8642,3.8617,3.8894,3.9092,3.9625,4.0484,4.1376,4.255,4.4071,4.3895,4.4579,4.6068,4.5918,4.5814,4.5809,4.5637,4.5499,4.5274,0.0,4.4566,4.4267,4.3908,4.3579,4.329,4.329,4.329,4.329,4.329,4.329,4.329,4.329,4.329,4.329,4.329,4.3498,4.3695,4.3695,4.423,4.5147,4.6539,4.7006,4.7481,4.9418,5.048,5.1294,5.2128,5.2903,5.3518,5.3518,5.3518,5.3518,5.3518,5.3518,5.3518,5.3518,5.3822,5.4093,5.4093,5.4431,5.482,5.5141,5.5209,5.5327,5.5665,5.5699,5.5564,5.5243,5.5245,5.4686,5.3288,5.3056,5.2529,5.1634,5.1978,5.223,5.2341,5.3316,5.3901,5.3996,5.4211,5.4383,5.4478,5.4478,5.4478,2.5468,2.5877,2.6478,2.7277,2.7998,2.8623,2.9172,3.0227,3.1045,3.0925,3.1137,3.154,3.2184,3.2599,3.3402,3.5052,3.56,3.5947,3.6332,3.711,3.7386,3.6658,3.706,3.7588,3.8165,3.7939,3.8341,3.9597,3.9195,3.8894,3.8894,3.8642,3.8834,3.9523,4.0089,4.1298,4.3279,4.3517,4.4359,4.5872,4.5347,4.5204,4.545,4.5042,4.481,4.4796,4.4296,4.4057,4.4027,4.3499,4.329,4.329,4.329,4.3379,4.3549,4.3728,4.3758,4.3758,4.3758,4.3758,4.3758,4.3758,4.3908,4.4098,4.4157,4.4768,4.578,4.7317,4.7571,4.7859,4.9935,5.0919,5.1572,5.2396,5.3041,5.3518,5.3518,5.3518,5.3518,5.3518,5.3653,5.3754,5.3754,5.4363,5.4871,5.4871,5.5344,5.5767,5.5936,5.5969,5.6003,5.6206,5.6206,5.6139,5.5969,5.58,5.5076,5.3578,5.3166,5.275,5.2221,5.2782,5.3185,5.3329,5.3957,5.4319,5.4415,5.4319,5.4319,5.4415,5.4463,5.4478,2.5901,2.6436,2.7205,2.8739,2.8811,2.8623,2.9172,3.0516,3.15,3.0997,3.1849,3.2764,3.3137,3.3782,3.4381,3.4785,3.5091,3.5522,3.6282,0.0,3.6658,3.711,3.7613,3.8165,3.8768,3.9271,3.9572,3.9697,3.9195,3.8894,3.8894,3.7889,3.8124,3.991,4.0123,4.1096,4.3002,4.3825,4.4479,4.4981,4.4752,4.4377,4.3879,4.4182,4.4007,4.3459,4.3379,4.3349,4.3369,4.3319,4.329,4.329,4.329,4.3698,4.4296,4.4915,4.5155,4.5155,4.5155,4.5155,4.5155,4.5155,4.5175,4.5217,4.5473,4.5728,4.6305,4.7946,4.9068,5.0114,5.17,5.2182,5.2414,5.3229,5.3484,5.3518,5.3518,5.3518,5.3518,5.3518,5.4059,5.4499,5.4499,5.5141,5.5631,5.5631,5.5665,5.5936,5.663,5.6731,5.6968,5.7663,5.773,5.7442,5.6799,5.6071,5.5649,5.5497,5.4313,5.3357,5.2785,5.2959,5.3122,5.3138,5.402,5.4383,5.4223,5.4383,5.4383,5.4239,5.4415,5.4478,2.646,2.7229,2.819,2.9484,2.9914,3.0206,3.1096,3.1502,3.1719,3.1887,3.238,3.3042,3.3856,3.4579,3.5136,3.523,3.5644,3.6036,3.6356,3.6683,3.6984,3.7185,3.7663,3.809,3.8316,3.8517,3.8642,3.8642,3.8442,3.8191,3.7864,3.7436,3.7914,3.9446,4.0314,4.1674,4.358,4.4327,4.4822,4.5172,4.4929,4.4997,4.5322,4.5042,4.4796,4.4556,4.4556,4.4556,4.4556,4.4556,4.4556,4.4556,4.4556,4.4706,4.4945,4.5214,4.5304,4.5304,4.5304,4.5304,4.5304,4.5304,4.5357,4.5501,4.5614,4.59,4.6599,4.8559,4.9909,5.0972,5.1992,5.2939,5.3742,5.4031,5.4506,5.4853,5.4853,5.4853,5.4853,5.4853,5.509,5.5259,5.5259,5.5919,5.6393,5.6393,5.6765,5.7171,5.7442,5.7476,5.7577,5.7866,5.79,5.7798,5.7509,5.7239,5.6867,5.6409,5.5041,5.4211,5.4038,5.3677,5.352,5.3649,5.4022,5.4191,5.4207,5.4191,5.4191,5.4207,5.4287,5.4271,2.6964,2.7806,2.8835,3.0251,3.0799,3.1349,3.2659,3.2631,3.2409,3.2773,3.3293,3.3883,3.4518,3.52,3.5642,0.0,3.6085,3.6455,3.6632,3.6959,3.7261,3.7412,3.7789,3.8015,3.8015,3.8015,3.8015,3.8015,3.7839,3.7588,3.7235,3.7522,3.8265,3.9464,4.0822,4.2323,4.3979,4.4472,4.4945,4.5382,4.5335,4.5531,4.5887,4.5472,4.5304,4.5304,4.5304,4.5304,4.5304,4.5304,4.5304,4.5304,4.5544,4.5633,4.5633,4.5843,4.5933,4.5933,4.5933,4.5933,4.5933,4.5933,4.6038,4.6214,4.6541,4.6902,4.763,5.0013,5.1398,5.2414,5.3396,5.4247,5.4883,5.4883,5.5311,5.5699,5.5699,5.5699,5.5699,5.5699,5.5902,5.6037,5.6037,5.6664,5.7137,5.7137,5.7595,5.79,5.79,5.79,5.79,5.79,5.79,5.79,5.79,5.79,5.7697,5.7171,5.5987,5.5143,5.4754,5.4296,5.4005,5.3899,5.3964,5.4045,5.4143,5.4045,5.4045,5.4143,5.4143,5.4094,2.7421,2.8118,2.9051,3.1165,3.146,3.1717,3.3572,3.3785,3.3607,3.3607,3.467,3.552,3.526,3.563,3.5979,3.5979,3.6241,3.6606,3.7135,3.721,3.7387,3.7939,3.8015,3.8015,3.799,3.799,3.799,3.799,3.7487,3.721,3.721,3.8237,3.924,4.0155,4.1702,4.2981,4.3986,4.4216,4.4774,4.5599,4.5873,4.5654,4.5021,4.5251,4.5304,4.5304,4.5304,4.5304,4.5304,4.5304,4.5304,4.5394,4.6031,4.63,4.639,4.707,4.7309,4.7309,4.7309,4.7309,4.7309,4.7309,4.7339,4.7516,4.8676,4.9009,4.9573,5.2401,5.3745,5.4679,5.6368,5.6274,5.5733,5.5733,5.5733,5.5733,5.5733,5.5733,5.5733,5.5733,5.6325,5.6799,5.6799,5.7408,5.79,5.79,5.79,5.79,5.79,5.79,5.79,5.79,5.79,5.79,5.79,5.79,5.79,5.79,5.7205,5.6156,5.4668,5.4737,5.4465,5.3701,5.3899,5.3997,5.3997,5.3997,5.3997,5.3997,5.3997,5.3997,2.8526,2.977,3.0997,3.201,3.2729,3.3233,3.3476,3.3414,3.3488,3.4038,3.4476,3.4888,3.5319,3.5889,0.0,3.6288,3.6334,3.6455,3.6607,3.6959,3.7261,3.7436,3.7764,3.7839,3.7462,3.7437,3.7286,3.6909,3.7085,3.7522,3.8209,3.8953,3.9803,4.0734,4.2342,4.3314,4.359,4.4964,4.5867,4.6307,4.6525,4.6632,4.6625,4.6689,4.6711,4.6711,4.6711,4.6711,4.6711,4.6711,4.6711,4.6741,4.695,4.6988,4.704,4.7249,4.7309,4.7369,4.7848,4.7997,4.8079,4.8558,4.8708,4.876,4.9096,4.9452,5.0123,5.2009,5.3384,5.4639,5.6245,5.6954,5.7239,5.7239,5.7239,5.7239,5.7239,5.7239,5.7239,5.7239,5.7408,5.7577,5.7577,5.7764,5.79,5.79,5.79,5.79,5.79,5.79,5.79,5.79,5.79,5.79,5.79,5.79,5.79,5.79,5.7679,5.7137,5.619,5.5193,5.455,5.4347,5.3972,5.38,5.38,5.38,5.38,5.38,5.38,5.3734,2.9268,3.0636,3.1863,3.2635,3.333,3.3858,3.3902,3.3602,3.3588,3.438,3.464,3.4929,3.557,3.6262,0.0,3.643,3.6581,3.6708,3.6708,3.7009,3.721,3.721,3.7487,3.7462,3.6934,3.6884,3.6833,3.6733,3.7009,3.7551,3.8378,3.9783,4.079,4.1381,4.3373,4.4464,4.451,4.5634,4.638,4.6712,4.6844,4.704,4.7309,4.7309,4.7309,4.7309,4.7309,4.7309,4.7309,4.7309,4.7459,4.7698,4.7698,4.7848,4.8087,4.8087,4.8087,4.8169,4.8558,4.8708,4.8768,4.9179,4.9277,4.9427,5.016,5.0554,5.1224,5.3323,5.4483,5.5411,5.6763,5.7498,5.79,5.79,5.79,5.79,5.79,5.79,5.79,5.79,5.79,5.79,5.79,5.79,5.79,5.79,5.79,5.79,5.79,5.79,5.79,5.79,5.79,5.79,5.79,5.79,5.79,5.79,5.79,5.7697,5.7273,5.6089,5.5175,5.46,5.4228,5.3956,5.3717,5.3634,5.3634,5.3717,5.3634,5.3584,2.9746,3.0997,3.2104,3.3187,3.3664,3.4019,3.4644,3.4282,3.397,3.4689,3.5018,3.5354,3.5853,3.6616,3.6959,3.648,3.6808,3.7135,3.7135,3.7135,3.7135,3.7135,3.7135,3.6959,3.6531,3.648,3.6683,3.7235,3.7336,3.7612,3.8188,4.0653,4.2073,4.2073,4.4567,4.5933,4.6061,4.6128,4.6447,4.6909,4.6909,4.704,4.7309,4.7309,4.7309,4.7309,4.7369,4.7399,4.7399,4.7459,4.7848,4.8409,4.8409,4.8768,4.9277,4.9277,4.9277,4.9307,4.9366,4.9366,4.9396,4.9456,4.9456,4.9802,5.144,5.1989,5.2655,5.5372,5.6185,5.6498,5.7606,5.7863,5.7863,5.7881,5.79,5.79,5.79,5.79,5.79,5.79,5.79,5.79,5.79,5.79,5.79,5.79,5.79,5.79,5.79,5.79,5.79,5.79,5.79,5.79,5.79,5.79,5.79,5.79,5.79,5.79,5.79,5.7171,5.6156,5.482,5.4735,5.4415,5.3888,5.3754,5.3771,5.3888,5.3754,5.3721,3.0299,3.1815,3.3211,3.4222,3.5136,3.5619,3.4945,3.4993,3.5163,3.5098,3.516,3.5279,3.5565,3.6158,3.6532,3.643,3.6505,3.6557,3.6557,3.6557,3.6557,3.6557,3.6557,3.6683,3.7009,3.7034,3.7261,3.7789,3.8266,3.8941,3.9832,4.1627,4.2626,4.2626,4.4748,4.564,4.5035,4.5814,4.6447,4.6909,4.6909,4.704,4.7309,4.7309,4.7309,4.7339,4.7848,4.8087,4.8139,4.8648,4.8947,4.9067,4.9067,4.9157,4.9277,4.9277,4.9277,4.9366,4.9853,5.0009,5.0099,5.0607,5.081,5.0857,5.1232,5.2039,5.3062,5.4358,5.5373,5.6316,5.7402,5.7662,5.7698,5.7863,5.79,5.79,5.79,5.79,5.79,5.79,5.79,5.79,5.79,5.79,5.79,5.79,5.79,5.79,5.79,5.79,5.79,5.79,5.79,5.79,5.79,5.79,5.79,5.79,5.79,5.79,5.79,5.7171,5.6664,5.6325,5.5784,5.5378,5.5278,5.5243,5.5243,5.5278,5.5243,5.5225,3.0155,3.1673,3.3212,3.4487,3.54,3.5856,3.5304,3.54,3.5669,3.5917,3.5768,3.5643,3.5882,3.6497,3.6841,3.6458,3.6607,3.6683,3.6455,3.6405,3.6505,3.6758,3.6783,3.6984,3.7513,3.7588,3.7814,3.8391,3.8718,3.9448,4.0726,4.2072,4.3033,4.3511,4.5064,4.5753,4.5423,4.6061,4.6727,4.7377,4.7517,4.7828,4.8259,4.7908,4.7938,4.8289,4.8618,4.8768,4.8798,4.9179,4.9486,4.9733,4.9733,4.9912,5.0212,5.0212,5.0212,5.0242,5.0578,5.0697,5.0757,5.1086,5.1206,5.1363,5.2268,5.2985,5.3762,5.521,5.6027,5.6628,5.7289,5.7532,5.7625,5.7735,5.7827,5.79,5.79,5.79,5.79,5.79,5.79,5.79,5.79,5.79,5.79,5.79,5.79,5.79,5.79,5.79,5.79,5.79,5.79,5.79,5.79,5.79,5.79,5.79,5.79,5.79,5.79,5.7509,5.7171,5.6799,5.6427,5.6037,5.5699,5.5699,5.5699,5.5699,5.5699,5.5699,2.9697,3.1336,3.3092,3.4462,3.5328,3.5833,3.564,3.5808,3.6198,3.6813,3.6476,3.6137,3.6432,3.6998,3.7169,3.6508,3.6758,3.6909,3.6457,3.648,3.6708,3.716,3.7286,3.7538,3.809,3.8165,3.8391,3.8994,3.9196,3.9853,4.1118,4.2404,4.344,4.4266,4.5338,4.6001,4.6269,4.6564,4.7133,4.7978,4.8298,4.8828,4.9426,4.8865,4.8887,4.9307,4.9396,4.9456,4.9456,4.9576,4.9912,5.0375,5.0375,5.0727,5.1206,5.1206,5.1206,5.1206,5.1206,5.1206,5.1206,5.1206,5.1206,5.1503,5.3073,5.374,5.4359,5.6008,5.6685,5.7006,5.7233,5.742,5.7569,5.7643,5.7772,5.79,5.79,5.79,5.79,5.79,5.79,5.79,5.79,5.79,5.79,5.79,5.79,5.79,5.79,5.79,5.79,5.79,5.79,5.79,5.79,5.79,5.79,5.79,5.79,5.79,5.79,5.79,5.7629,5.7002,5.7002,5.6697,5.6071,5.6071,5.6071,5.6071,5.6071,5.6071,2.9244,3.1555,3.3982,3.4631,3.588,3.6747,3.5833,3.6675,3.7644,3.7517,3.6869,3.6432,3.6701,3.662,3.6533,3.643,3.6457,3.648,3.6405,3.6808,3.7135,3.721,3.7613,3.8115,3.8718,3.8793,3.9019,3.9546,4.0388,4.0966,4.1194,4.303,4.4172,4.4312,4.5338,4.612,4.6535,4.6938,4.7509,4.8252,4.8865,4.9486,5.0099,5.0009,4.9733,4.9307,4.9853,5.0099,5.0129,5.0697,5.0996,5.1056,5.1056,5.1116,5.1206,5.1206,5.1206,5.1206,5.1206,5.1206,5.1206,5.1206,5.1206,5.1253,5.1503,5.2718,5.4041,5.4338,5.5527,5.6815,5.7214,5.7327,5.742,5.7772,5.7881,5.79,5.79,5.79,5.79,5.79,5.79,5.79,5.79,5.79,5.79,5.79,5.79,5.79,5.79,5.79,5.79,5.79,5.79,5.79,5.79,5.79,5.79,5.79,5.79,5.79,5.79,5.79,5.7866,5.7764,5.7764,5.7697,5.7629,5.7629,5.7629,5.7629,5.7629,5.7629,2.9818,3.1865,3.3862,3.4967,3.6026,3.6699,3.6531,3.7165,3.7827,3.803,3.7781,3.7468,3.7295,3.6896,3.6567,3.6408,3.6405,3.6482,3.6808,3.706,3.7436,3.809,3.8366,3.8743,3.927,3.9346,3.9677,4.0491,4.097,4.1716,4.2861,4.3792,4.4568,4.5178,4.5987,4.6577,4.6909,4.76,4.8397,4.9351,5.0032,5.0511,5.0757,5.0757,5.0607,5.0391,5.0637,5.0757,5.0787,5.1086,5.1206,5.1206,5.1206,5.1206,5.1206,5.1206,5.1206,5.1206,5.1206,5.1206,5.1206,5.1206,5.1206,5.1293,5.1819,5.294,5.4105,5.459,5.5688,5.6757,5.7063,5.7214,5.7383,5.7662,5.7808,5.79,5.79,5.79,5.79,5.79,5.79,5.79,5.79,5.79,5.79,5.79,5.79,5.79,5.79,5.79,5.79,5.79,5.79,5.79,5.79,5.79,5.79,5.79,5.79,5.79,5.79,5.79,5.79,5.79,5.79,5.79,5.79,5.79,5.79,5.79,5.79,5.79,2.9965,3.1575,3.3044,3.4631,3.5667,3.6416,3.6802,3.7418,3.799,0.0,3.8378,3.8289,3.7991,3.7369,3.6769,3.6458,3.6507,3.6733,3.716,3.7462,3.7939,3.8793,3.9019,3.9271,3.9647,3.9929,4.0287,4.0794,4.1543,4.2547,4.3867,4.4406,4.5144,4.6104,4.6637,4.7089,4.7538,4.846,4.9433,5.0458,5.0966,5.1206,5.1206,5.1206,5.1206,5.1206,5.1206,5.1206,5.1206,5.1206,5.1206,5.1206,5.1206,5.1206,5.1206,5.1206,5.1206,5.1206,5.1206,5.1206,5.1206,5.1206,5.1206,5.1316,5.2048,5.3073,5.4126,5.4798,5.5809,5.6757,5.7006,5.7195,5.7364,5.7625,5.779,5.79,5.79,5.79,5.79,5.79,5.79,5.79,5.79,5.79,5.79,5.79,5.79,5.79,5.79,5.79,5.79,5.79,5.79,5.79,5.79,5.79,5.79,5.79,5.79,5.79,5.79,5.79,5.79,5.79,5.79,5.79,5.79,5.79,5.79,5.79,5.79,5.79,2.9076,3.0203,3.1406,3.302,3.4727,3.6013,3.6037,0.0,3.867,3.846,3.8412,3.8489,3.8768,3.7939,3.701,3.6482,3.6833,3.7185,3.721,3.814,3.8818,3.8894,3.9346,3.9672,3.9697,4.0541,4.0743,3.9852,4.2474,4.3772,4.2913,4.4736,4.6111,4.6743,4.7024,4.7597,4.842,4.9555,5.0442,5.1146,5.1176,5.1206,5.1206,5.1206,5.1206,5.1206,5.1206,5.1206,5.1206,5.1206,5.1206,5.1206,5.1206,5.1206,5.1206,5.1206,5.1206,5.1206,5.1206,5.1206,5.1206,5.1206,5.1206,5.1229,5.1276,5.2561,5.3998,5.4041,5.5345,5.6776,5.7176,5.7289,5.7402,5.779,5.7881,5.79,5.79,5.79,5.79,5.79,5.79,5.79,5.79,5.79,5.79,5.79,5.79,5.79,5.79,5.79,5.79,5.79,5.79,5.79,5.79,5.79,5.79,5.79,5.79,5.79,5.79,5.79,5.79,5.79,5.79,5.79,5.79,5.79,5.79,5.79,5.79,5.79,2.8931,2.9581,3.0494,3.3093,3.4412,3.5308,3.6305,3.761,3.8683,3.8935,3.9114,3.9168,3.8944,3.7964,3.7135,3.6934,3.7085,3.7336,3.7663,3.8416,3.9019,3.9371,3.9572,3.9955,4.0592,4.0415,4.0643,4.1617,4.2719,4.3464,4.3748,4.5481,4.6569,4.6801,4.7678,4.8693,4.9769,5.0471,5.0966,5.1206,5.1206,5.1206,5.1206,5.1206,5.1206,5.1206,5.1206,5.1206,5.1206,5.1206,5.1206,5.1206,5.1206,5.1206,5.1206,5.1206,5.1206,5.1206,5.1206,5.1206,5.1206,5.1206,5.1206,5.1206,5.1206,5.2094,5.3218,5.3826,5.4881,5.6008,5.6858,5.7101,5.7214,5.7606,5.7808,5.79,5.79,5.79,5.79,5.79,5.79,5.79,5.79,5.79,5.79,5.79,5.79,5.79,5.79,5.79,5.79,5.79,5.79,5.79,5.79,5.79,5.79,5.79,5.79,5.79,5.79,5.79,5.79,5.79,5.79,5.79,5.79,5.79,5.79,5.79,5.79,5.79,2.819,2.8763,2.9677,3.23,3.3659,3.4719,3.6088,3.7566,3.874,3.909,3.9469,3.9572,3.9245,3.8391,3.7713,3.7487,3.7462,3.7663,3.8216,3.8818,3.9296,3.9647,3.9697,4.0109,4.1094,4.0592,0.0,0.0,4.3105,0.0,4.4598,4.601,4.7073,4.7695,4.8745,4.9767,5.071,5.1041,5.1206,5.1206,5.1206,5.1206,5.1206,5.1206,5.1206,5.1206,5.1206,5.1206,5.1206,5.1206,5.1206,5.1206,5.1206,5.1206,5.1206,5.1206,5.1206,5.1206,5.1206,5.1206,5.1206,5.1206,5.1206,5.1206,5.1206,5.2094,5.3196,5.3805,5.4861,5.5968,5.6796,5.7101,5.7271,5.7532,5.7753,5.79,5.79,5.79,5.79,5.79,5.79,5.79,5.79,5.79,5.79,5.79,5.79,5.79,5.79,5.79,5.79,5.79,5.79,5.79,5.79,5.79,5.79,5.79,5.79,5.79,5.79,5.79,5.79,5.79,5.79,5.79,5.79,5.79,5.79,5.79,5.79,5.79,0.0,0.0,0.0,3.0468,3.2503,0.0,3.5348,0.0,3.8894,3.8869,3.9321,3.9697,3.9697,3.9271,3.8718,3.814,3.804,3.8241,3.8818,3.9371,3.9697,3.9697,0.0,0.0,0.0,0.0,0.0,0.0,4.3748,4.4621,4.5263,4.6297,4.7672,4.9445,5.0147,5.071,5.1182,5.1206,5.1206,5.1206,5.1206,5.1206,5.1206,5.1206,5.1206,5.1206,5.1206,5.1206,5.1206,5.1206,5.1206,5.1206,5.1206,5.1206,5.1206,5.1206,5.1206,5.1236,5.1206,5.1206,5.1236,5.1206,5.1229,5.1223,5.1223,5.2538,5.3998,5.4019,5.5292,5.6719,5.693,5.7289,5.7588,5.7588,5.7753,5.79,5.79,5.79,5.79,5.79,5.79,5.79,5.79,5.79,5.79,5.79,5.79,5.79,5.79,5.79,5.79,5.79,5.79,5.79,5.79,5.79,5.79,5.79,5.79,5.79,5.79,5.79,5.79,5.79,5.79,5.79,5.79,5.79,5.79,5.79,5.79,5.79,2.6777,0.0,0.0,0.0,0.0,0.0,0.0,0.0,3.8768,3.8341,3.9019,3.9697,3.9697,3.9271,3.8969,3.9195,3.8894,3.8718,3.8869,3.9371,0.0,0.0,0.0,0.0,0.0,0.0,0.0,0.0,4.4188,4.5095,4.5292,4.7124,4.8738,4.989,5.0287,5.0614,5.0917,5.1082,5.1206,5.1206,5.1206,5.1206,5.1206,5.1206,5.1206,5.1206,5.1206,5.1206,5.1206,5.1206,5.1206,5.1206,5.1206,5.1206,5.1206,5.1206,5.1505,5.1858,5.1355,5.1528,5.1858,5.1355,5.1665,5.22,5.22,5.3042,5.4126,5.4746,5.5312,5.5868,5.6569,5.7082,5.7383,5.7383,5.7643,5.79,5.79,5.79,5.79,5.79,5.79,5.79,5.79,5.79,5.79,5.79,5.79,5.79,5.79,5.79,5.79,5.79,5.79,5.79,5.79,5.79,5.79,5.79,5.79,5.79,5.79,5.79,5.79,5.79,5.79,5.79,5.79,5.79,5.79,5.79,5.79,5.79,2.6753,2.7377,2.8266,2.9987,0.0,0.0,0.0,0.0,0.0,0.0,3.9421,3.9973,3.9747,3.9622,3.9597,3.9672,3.9446,3.9245,3.9245,0.0,0.0,0.0,0.0,0.0,0.0,4.1889,4.2501,4.3961,4.4831,4.5708,4.6676,4.835,4.961,5.0255,5.0495,5.0757,5.0964,5.1105,5.1206,5.1206,5.1206,5.1206,5.1206,5.1206,5.1206,5.1206,5.1206,5.1206,5.1206,5.1206,5.1206,5.1206,5.1206,5.1206,5.1206,5.1206,5.1445,5.1768,5.1678,5.1887,5.2187,5.2067,5.2479,5.3037,5.3037,5.3721,5.4653,5.5169,5.5575,5.6027,5.668,5.7063,5.7327,5.7402,5.7662,5.79,5.79,5.79,5.79,5.79,5.79,5.79,5.79,5.79,5.79,5.79,5.79,5.79,5.79,5.79,5.79,5.79,5.79,5.79,5.79,5.79,5.79,5.79,5.79,5.79,5.79,5.79,5.79,5.79,5.79,5.79,5.79,5.79,5.79,5.79,5.79,5.79,2.6983,2.7656,2.8558,3.0089,0.0,0.0,0.0,0.0,0.0,0.0,3.9772,4.0125,3.9826,4.018,4.0383,4.0082,3.9929,0.0,0.0,0.0,0.0,0.0,0.0,0.0,4.2695,4.2913,4.3725,4.5595,4.5627,4.6514,4.8697,4.962,5.0207,5.0501,5.068,5.0941,5.1206,5.1206,5.1206,5.1206,5.1206,5.1206,5.1206,5.1206,5.1206,5.1206,5.1206,5.1206,5.1206,5.1206,5.1206,5.1206,5.1206,5.1206,5.1206,5.1206,5.1236,5.1385,5.1917,5.2187,5.2396,5.2929,5.3429,5.3874,5.3874,5.4715,5.5682,5.5584,5.6113,5.6738,5.6949,5.7158,5.7346,5.7551,5.7753,5.79,5.79,5.79,5.79,5.79,5.79,5.79,5.79,5.79,5.79,5.79,5.79,5.79,5.79,5.79,5.79,5.79,5.79,5.79,5.79,5.79,5.79,5.79,5.79,5.79,5.79,5.79,5.79,5.79,5.79,5.79,5.79,5.79,5.79,5.79,5.79,5.79,2.8421,2.8597,2.9036,0.0,0.0,0.0,0.0,3.4781,0.0,0.0,3.7463,3.8868,4.0044,4.0348,4.0803,4.2008,0.0,0.0,0.0,0.0,0.0,0.0,0.0,0.0,4.2695,4.3535,4.4172,4.4568,4.6307,4.7941,4.9407,4.9878,5.0207,5.0501,5.068,5.0941,5.1206,5.1206,5.1206,5.1206,5.1206,5.1206,5.1206,5.1206,5.1206,5.1206,5.1206,5.1206,5.1206,5.1206,5.1206,5.1206,5.1206,5.1206,5.1206,5.1206,5.1558,5.1947,5.1558,5.2097,5.2959,5.2516,5.3829,5.5521,5.5521,5.6787,5.8063,5.747,5.7027,5.6738,5.6949,5.7158,5.7346,5.7551,5.7753,5.79,5.79,5.79,5.79,5.79,5.79,5.79,5.79,5.79,5.79,5.79,5.79,5.79,5.79,5.79,5.79,5.79,5.79,5.79,5.79,5.79,5.79,5.79,5.79,5.79,5.79,5.79,5.79,5.79,5.79,5.79,5.79,5.79,5.79,5.79,5.79,5.79,0.0,0.0,0.0,3.1241,0.0,0.0,0.0,0.0,0.0,0.0,3.7597,3.8947,3.9739,0.0,4.1205,0.0,0.0,0.0,0.0,0.0,0.0,0.0,0.0,0.0,4.3511,4.4504,4.5224,4.5515,4.6974,4.8212,4.9146,4.9911,5.0381,5.0501,5.0828,5.1058,5.1206,5.1206,5.1206,5.1206,5.1206,5.1206,5.1206,5.1206,5.1206,5.1206,5.1206,5.1206,5.1206,5.1206,5.1206,5.1206,5.1206,5.1206,5.1206,5.1206,5.1594,5.2258,5.2772,5.3597,5.452,5.5012,5.6085,5.7245,5.7245,5.8016,5.8833,5.8436,5.8071,5.7785,5.773,5.7783,5.7834,5.7781,5.7827,5.79,5.79,5.79,5.79,5.79,5.79,5.79,5.79,5.79,5.79,5.79,5.79,5.79,5.79,5.79,5.79,5.79,5.79,5.79,5.79,5.79,5.79,5.79,5.79,5.79,5.79,5.79,5.79,5.79,5.79,5.79,5.79,5.79,5.79,5.79,5.79,5.79,0.0,0.0,0.0,0.0,0.0,3.3065,0.0,0.0,0.0,0.0,0.0,0.0,0.0,0.0,0.0,0.0,0.0,0.0,0.0,0.0,0.0,0.0,0.0,0.0,0.0,4.5499,4.6272,4.6772,4.7451,4.8114,4.8729,4.9785,5.0425,5.0543,5.097,5.1206,5.1206,5.1206,5.1206,5.1206,5.1206,5.1206,5.1206,5.1206,5.1206,5.1206,5.1206,5.1265,5.1385,5.1385,5.1468,5.1535,5.1295,5.1206,5.1206,5.1206,5.1558,5.221,5.3752,5.4715,5.5557,5.7187,5.817,5.8767,5.8939,5.9052,5.9098,5.9098,5.8999,5.8867,5.8589,5.8571,5.85,5.8309,5.8165,5.8048,5.8118,5.8001,5.79,5.79,5.79,5.79,5.79,5.79,5.79,5.79,5.79,5.79,5.79,5.79,5.79,5.79,5.79,5.79,5.79,5.79,5.79,5.79,5.79,5.79,5.79,5.79,5.79,5.79,5.79,5.79,5.79,5.79,5.79,5.79,5.79,5.79,0.0,0.0,0.0,0.0,3.262,0.0,0.0,0.0,0.0,0.0,0.0,0.0,0.0,0.0,0.0,0.0,0.0,0.0,0.0,0.0,0.0,0.0,0.0,0.0,0.0,4.632,4.6743,4.6801,4.759,4.8372,4.9039,4.9628,5.0211,5.0745,5.1035,5.1206,5.1206,5.1206,5.1206,5.1206,5.1206,5.1206,5.1206,5.1206,5.1206,5.1206,5.1206,5.1558,5.2097,5.2097,5.2426,5.2869,5.1678,5.1206,5.1206,5.1206,5.1236,5.1436,5.2482,5.3283,5.409,5.5718,5.769,5.9643,6.0522,6.0374,5.9893,5.9893,5.9396,5.8926,5.9079,5.9105,5.919,5.9511,5.9088,5.8673,5.8841,5.8355,5.79,5.79,5.79,5.79,5.79,5.79,5.79,5.79,5.79,5.79,5.79,5.79,5.79,5.79,5.79,5.79,5.79,5.79,5.79,5.79,5.79,5.79,5.79,5.79,5.79,5.79,5.79,5.79,5.79,5.79,5.79,5.79,5.79,5.79,0.0,0.0,0.0,0.0,0.0,0.0,3.3596,0.0,3.3773,0.0,0.0,0.0,0.0,0.0,0.0,0.0,0.0,0.0,0.0,0.0,0.0,0.0,0.0,0.0,0.0,0.0,0.0,0.0,4.7265,4.8047,4.8717,4.9478,5.0169,5.0793,5.1058,5.1206,5.1206,5.1206,5.1206,5.1206,5.1206,5.1206,5.1206,5.1618,5.1798,5.1798,5.2187,5.2516,5.2779,5.2779,5.2959,5.3139,5.2576,5.2366,5.2366,5.2366,5.2606,5.3152,5.4675,5.5635,5.6512,5.8345,5.9629,6.0548,6.0961,6.0887,6.0655,6.0655,6.0423,6.0133,5.9924,5.9831,5.9831,5.9808,5.9535,5.9376,5.9584,5.9404,5.9167,5.9167,5.9167,5.9167,5.9167,5.8475,5.79,5.79,5.79,5.79,5.79,5.79,5.79,5.79,5.79,5.79,5.79,5.79,5.79,5.79,5.79,5.79,5.79,5.79,5.79,5.79,5.79,5.79,5.79,5.79,5.79,5.79,5.79,5.79,3.5965,0.0,0.0,0.0,0.0,0.0,0.0,0.0,0.0,0.0,0.0,0.0,0.0,0.0,0.0,0.0,0.0,0.0,0.0,0.0,0.0,0.0,0.0,0.0,0.0,0.0,0.0,0.0,0.0,4.8181,4.8854,4.9433,5.0107,5.0887,5.1082,5.1206,5.1206,5.1206,5.1206,5.1206,5.1206,5.1295,5.1475,5.1977,5.2306,5.2486,5.2989,5.3318,5.3473,5.3473,5.3588,5.3767,5.3767,5.3767,5.3707,5.3348,5.3503,5.4187,5.6129,5.7592,5.8846,6.0316,6.0953,6.1119,6.1119,6.1119,6.1119,6.1119,6.1119,6.1007,6.0641,6.0516,6.0464,6.0275,6.0125,6.0054,6.0285,6.0212,6.0114,6.0114,6.0114,6.0114,6.0114,5.9032,5.8186,5.8186,5.8035,5.79,5.79,5.79,5.79,5.79,5.79,5.79,5.79,5.79,5.79,5.79,5.79,5.79,5.79,5.79,5.79,5.79,5.79,5.79,5.79,5.79,5.79,5.79,5.79,5.79,0.0,0.0,0.0,3.6309,0.0,0.0,0.0,0.0,3.6301,0.0,0.0,0.0,0.0,0.0,0.0,0.0,0.0,0.0,0.0,0.0,0.0,0.0,0.0,0.0,0.0,0.0,0.0,0.0,0.0,0.0,4.9812,4.9507,4.9883,5.1146,5.1206,5.1206,5.1206,5.1206,5.1206,5.1206,5.1206,5.1558,5.2157,5.2187,5.2546,5.3169,5.3198,5.3563,5.4192,5.4192,5.4551,5.5119,5.5119,5.5119,5.497,5.3677,5.3228,5.3489,5.5388,5.7743,5.9944,6.0005,6.0523,6.1119,6.1119,6.1119,6.1119,6.1119,6.1119,6.1119,6.1086,6.1086,6.1115,6.1296,6.0932,6.065,6.0847,6.0468,6.0114,6.0114,6.0114,6.0114,6.0114,5.9471,5.8945,5.8945,5.8355,5.79,5.79,5.79,5.79,5.79,5.79,5.79,5.79,5.79,5.79,5.79,5.79,5.79,5.79,5.79,5.79,5.79,5.79,5.79,5.79,5.79,5.79,5.79,5.79,5.79,0.0,0.0,3.9268,3.8291,0.0,0.0,0.0,0.0,0.0,0.0,0.0,0.0,0.0,0.0,0.0,0.0,0.0,0.0,0.0,0.0,0.0,0.0,0.0,0.0,0.0,0.0,0.0,0.0,0.0,0.0,0.0,4.9142,4.9696,5.0518,5.0966,5.1206,5.1206,5.1206,5.1206,5.1206,5.1648,5.1977,5.2247,5.3114,5.3653,5.3892,5.4311,5.464,5.485,5.485,5.4999,5.5179,5.5179,5.5179,5.5174,5.467,5.4521,5.4814,5.67,5.8862,6.0721,6.0721,6.092,6.1119,6.1119,6.1119,6.1119,6.1119,6.1119,6.1119,6.1119,6.1119,6.1127,6.1342,6.1245,6.12,6.1401,6.1385,6.1374,6.1374,6.1505,6.1603,6.1603,6.1028,6.0351,5.981,5.9505,5.9167,5.8693,5.8626,5.8457,5.7967,5.79,5.79,5.79,5.79,5.79,5.79,5.79,5.79,5.79,5.79,5.79,5.79,5.79,5.79,5.79,5.79,5.79,5.79,5.79,5.8152,3.8985,3.9674,0.0,3.9421,3.9546,0.0,3.8991,0.0,0.0,0.0,0.0,0.0,0.0,0.0,0.0,0.0,0.0,0.0,0.0,0.0,0.0,0.0,0.0,0.0,0.0,0.0,0.0,0.0,0.0,0.0,0.0,0.0,4.9793,5.0196,5.0847,5.1206,5.1206,5.1206,5.1206,5.1206,5.1887,5.2306,5.2576,5.3713,5.4341,5.4581,5.4999,5.5179,5.5179,5.5179,5.5179,5.5179,5.5179,5.5179,5.5179,5.5179,5.5651,5.6427,5.7676,5.9411,6.1119,6.1119,6.1119,6.1119,6.1119,6.1119,6.1119,6.1119,6.1119,6.1119,6.1119,6.1119,6.1107,6.1272,6.1342,6.1424,6.1567,6.1797,6.1977,6.1897,6.215,6.2361,6.2249,6.1936,6.1434,6.0655,6.0283,5.9844,5.9081,5.9013,5.8727,5.8001,5.79,5.79,5.79,5.79,5.79,5.79,5.79,5.79,5.79,5.79,5.79,5.79,5.79,5.79,5.79,5.79,5.79,5.79,5.8152,5.8558]},{"header":{"parameterUnit":"m.s-1","parameterCategory":1,"la1":30.6,"la2":29.2853,"lo1":-89.7004,"lo2":-87.6739,"dx":0.0162,"dy":0.0183,"nx":112,"ny":82,"refTime":"2023-01-05T18:00:00:Z","depth":0,"parameterNumber":3,"parameterNumberName":"V-component_of_WINDS"},"data":[0.0,0.0,0.0,0.0,0.0,0.0,0.0,0.0,0.0,0.0,0.0,0.0,0.0,0.0,0.0,0.0,0.0,0.0,0.0,0.0,0.0,0.0,0.0,0.0,0.0,0.0,0.0,0.0,0.0,0.0,0.0,0.0,0.0,0.0,0.0,0.0,0.0,0.0,0.0,0.0,0.0,0.0,0.0,0.0,0.0,0.0,0.0,0.0,0.0,0.0,0.0,0.0,0.0,0.0,0.0,0.0,0.0,0.0,0.0,0.0,0.0,0.0,0.0,0.0,0.0,0.0,0.0,0.0,0.0,0.0,0.0,0.0,0.0,0.0,0.0,0.0,0.0,0.0,0.0,0.0,0.0,0.0,0.0,0.0,0.0,0.0,0.0,0.0,0.0,0.0,1.2784,1.1799,1.1039,1.0329,0.9697,0.8927,0.7927,0.6643,0.0,0.0,0.0,0.0,0.0,0.0,0.0,0.0,0.0,0.0,0.0,0.0,0.0,0.0,0.0,0.0,0.0,0.0,0.0,0.0,0.0,0.0,0.0,0.0,0.0,0.0,0.0,0.0,0.0,0.0,0.0,0.0,0.0,0.0,0.0,0.0,0.0,0.0,0.0,0.0,0.0,0.0,0.0,0.0,0.0,0.0,0.0,0.0,0.0,0.0,0.0,0.0,0.0,0.0,0.0,0.0,0.0,0.0,0.0,0.0,0.0,0.0,0.0,0.0,0.0,0.0,0.0,0.0,0.0,0.0,0.0,0.0,0.0,0.0,0.0,0.0,0.0,0.0,0.0,0.0,0.0,0.0,0.0,0.0,0.0,0.0,0.0,0.0,0.0,0.0,0.0,0.0,0.0,0.0,0.0,0.0,0.0,0.0,0.0,0.0,0.0,0.0,0.0,0.0,1.3204,1.2581,1.1378,1.0631,1.0744,1.0079,0.91,0.7811,0.0,0.0,0.0,0.0,0.0,0.0,0.0,0.0,0.0,0.0,0.0,0.0,0.0,0.0,0.0,0.0,0.0,0.0,0.0,0.0,0.0,0.0,0.0,0.0,0.0,0.0,0.0,0.0,0.0,0.0,0.0,0.0,0.0,0.0,0.0,0.0,0.0,0.0,0.0,0.0,0.0,0.0,0.0,0.0,0.0,0.0,0.0,0.0,0.0,0.0,0.0,0.0,0.0,0.0,0.0,0.0,0.0,0.0,0.0,0.0,0.0,0.0,0.0,0.0,0.0,0.0,0.0,0.0,0.0,0.0,0.0,0.0,0.0,0.0,0.0,0.0,0.0,0.0,0.0,0.0,0.0,0.0,0.0,0.0,0.0,0.0,0.0,0.0,0.0,0.0,0.0,0.0,0.0,0.0,0.0,0.0,0.0,0.0,0.0,0.0,0.0,0.0,0.0,1.2632,1.3041,1.3525,1.2213,1.138,1.1587,1.123,1.0067,0.7966,0.7397,0.0,0.0,0.0,0.0,0.0,0.0,0.0,0.0,0.0,0.0,0.0,0.0,0.0,0.0,0.0,0.0,0.0,0.0,0.0,0.0,0.0,0.0,0.0,0.0,0.0,0.0,0.0,0.0,0.0,0.0,0.0,0.0,0.0,0.0,0.0,0.0,0.0,0.0,0.0,0.0,0.0,0.0,0.0,0.0,0.0,0.0,0.0,0.0,0.0,0.0,0.0,0.0,0.0,0.0,0.0,0.0,0.0,0.0,0.0,0.0,0.0,0.0,0.0,0.0,0.0,0.0,0.0,0.0,0.0,0.0,0.0,0.0,0.0,0.0,0.0,0.0,0.0,0.0,0.0,0.0,0.0,0.0,0.0,0.0,0.0,0.0,0.0,0.0,0.0,0.0,0.0,0.0,0.0,0.0,0.0,0.0,0.0,0.0,0.0,0.0,0.0,0.0,1.3066,1.3056,1.3836,1.2949,1.2264,1.2247,1.2209,1.1065,0.8406,0.8473,0.0,0.0,0.0,0.0,0.0,0.0,0.0,0.0,0.0,0.0,0.0,0.0,0.0,0.0,0.0,0.0,0.0,0.0,0.0,0.0,0.0,0.0,0.0,0.0,0.0,0.0,0.0,0.0,0.0,0.0,0.0,0.0,0.0,0.0,0.0,0.0,0.0,0.0,0.0,0.0,0.0,0.0,0.0,0.0,0.0,0.0,0.0,0.0,0.0,0.0,0.0,0.0,0.0,0.0,0.0,0.0,0.0,0.0,0.0,0.0,0.0,0.0,0.0,0.0,0.0,0.0,0.0,0.0,0.0,0.0,0.0,0.0,0.0,0.0,0.0,0.0,0.0,0.0,0.0,0.0,0.0,0.0,0.0,0.0,0.0,0.0,0.0,0.0,0.0,0.0,0.0,0.0,0.0,0.0,0.0,0.0,0.0,0.0,0.0,0.0,0.0,0.0,1.3884,1.3812,1.2896,1.317,1.3194,1.2689,1.2871,1.2115,0.998,0.9618,0.0,0.0,0.0,0.0,0.0,0.0,0.0,0.0,0.0,0.0,0.0,0.0,0.0,0.0,0.0,0.0,0.0,0.0,0.0,0.0,0.0,0.0,0.0,0.0,0.0,0.0,0.0,0.0,0.0,0.0,0.0,0.0,0.0,0.0,0.0,0.0,0.0,0.0,0.0,0.0,0.0,0.0,0.0,0.0,0.0,0.0,0.0,0.0,0.0,0.0,0.0,0.0,0.0,0.0,0.0,0.0,0.0,0.0,0.0,0.0,0.0,0.0,0.0,0.0,0.0,0.0,0.0,0.0,0.0,0.0,0.0,0.0,0.0,0.0,0.0,0.0,0.0,0.0,0.0,0.0,0.0,0.0,0.0,0.0,0.0,0.0,0.0,0.0,0.0,0.0,0.0,0.0,0.0,0.0,0.0,0.0,0.0,0.0,0.0,0.0,0.0,0.0,1.3379,1.3334,0.0,1.2881,1.2688,1.3159,1.3281,1.2327,0.9894,0.0,0.0,0.0,0.0,0.0,0.0,0.0,0.0,0.0,0.0,0.0,0.0,0.0,0.0,0.0,0.0,0.0,0.0,0.0,0.0,0.0,0.0,0.0,0.0,0.0,0.0,0.0,0.0,0.0,0.0,0.0,0.0,0.0,0.0,0.0,0.0,0.0,0.0,0.0,0.0,0.0,0.0,0.0,0.0,0.0,0.0,0.0,0.0,0.0,0.0,0.0,0.0,0.0,0.0,0.0,0.0,0.0,0.0,0.0,0.0,0.0,0.0,0.0,0.0,0.0,0.0,0.0,0.0,0.0,0.0,0.0,0.0,0.0,0.0,0.0,0.0,0.0,0.0,0.0,0.0,0.0,0.0,0.0,0.0,0.0,0.0,0.0,0.0,0.0,0.0,0.0,0.0,0.0,0.0,0.0,0.0,0.0,0.0,0.0,0.0,0.0,0.0,1.3461,1.332,1.3274,0.0,1.2847,1.2597,1.3066,1.3351,1.2394,0.9817,0.0,0.0,0.0,0.0,0.0,0.0,0.0,0.0,0.0,0.0,0.0,0.0,0.0,0.0,0.0,0.0,0.0,0.0,0.0,0.0,0.0,0.0,0.0,0.0,0.0,0.0,0.0,0.0,0.0,0.0,0.0,0.0,0.0,0.0,0.0,0.0,0.0,0.0,0.0,0.0,0.0,0.0,0.0,0.0,0.0,0.0,0.0,0.0,0.0,0.0,0.0,0.0,0.0,0.0,0.0,0.0,0.0,0.0,0.0,0.0,0.0,0.0,0.0,0.0,0.0,0.0,0.0,0.0,0.0,0.0,0.0,0.0,0.0,0.0,0.0,0.0,0.0,0.0,0.0,0.0,0.0,0.0,0.0,0.0,0.0,0.0,0.0,0.0,0.0,0.0,0.0,0.0,0.0,0.0,0.0,0.0,0.0,0.0,0.0,0.0,0.0,0.0,1.3461,1.3966,1.3896,1.2823,1.3182,1.3181,1.2384,1.3055,1.2449,0.0,0.0,0.0,0.0,0.0,0.0,0.0,0.0,0.0,0.0,0.0,0.0,0.0,0.0,0.0,0.0,0.0,0.0,0.0,0.0,0.0,0.0,0.0,0.0,0.0,0.0,0.0,0.0,0.0,0.0,0.0,0.0,0.0,0.0,0.0,0.0,0.0,0.0,0.0,0.0,0.0,0.0,0.0,0.0,0.0,0.0,0.0,0.0,0.0,0.0,0.0,0.0,0.0,0.0,0.0,0.0,0.0,0.0,0.0,0.0,0.0,0.0,0.0,0.0,0.0,0.0,0.0,0.0,0.0,0.0,0.0,0.0,0.0,0.0,0.0,0.0,0.0,0.0,0.0,0.0,0.0,0.0,0.0,0.0,0.0,0.0,0.0,0.0,0.0,0.0,0.0,0.0,0.0,0.0,0.0,0.0,0.0,0.0,0.0,0.0,0.0,0.0,0.0,1.3461,1.3809,1.3897,1.359,1.3528,1.3407,1.3181,1.354,1.2974,1.1063,0.0,0.0,0.0,0.0,0.0,0.0,0.0,0.0,0.0,0.0,0.0,0.0,0.0,0.0,0.0,0.0,0.0,0.0,0.0,0.0,0.0,0.0,0.0,0.0,0.0,0.0,0.0,0.0,0.0,0.0,0.0,0.0,0.0,0.0,0.0,0.0,0.0,0.0,0.0,0.0,0.0,0.0,0.0,0.0,0.0,0.0,0.0,0.0,0.0,0.0,0.0,0.0,0.0,0.0,0.0,0.0,0.0,0.0,0.0,0.0,0.0,0.0,0.0,0.0,0.0,0.0,0.0,0.0,0.0,0.0,0.0,0.0,0.0,0.0,0.0,0.0,0.0,0.0,0.0,0.0,0.0,0.0,0.0,0.0,0.0,0.0,0.0,0.0,0.0,0.0,0.0,0.0,0.0,0.0,0.0,0.0,0.0,0.0,0.0,0.0,0.0,0.0,1.3483,1.3833,1.4026,1.3918,1.3761,1.3628,1.3497,1.3761,1.3194,1.1546,0.0,0.0,0.0,0.0,0.0,0.0,0.0,0.0,0.0,0.0,0.0,0.0,0.0,0.0,0.0,0.0,0.0,0.0,0.0,0.0,0.0,0.0,0.0,0.0,0.0,0.0,0.0,0.0,0.0,0.0,0.0,0.0,0.0,0.0,0.0,0.0,0.0,0.0,0.0,0.0,0.0,0.0,0.0,0.0,0.0,0.0,0.0,0.0,0.0,0.0,0.0,0.0,0.0,0.0,0.0,0.0,0.0,0.0,0.0,0.0,0.0,0.0,0.0,0.0,0.0,0.0,0.0,0.0,0.0,0.0,0.0,0.0,0.0,0.0,0.0,0.0,0.0,0.0,0.0,0.0,0.0,0.0,0.0,0.0,0.0,0.0,0.0,0.0,0.0,0.0,0.0,0.0,0.0,0.0,0.0,0.0,0.0,0.0,0.0,0.0,0.0,0.0,1.3506,1.3977,1.4195,1.393,1.3906,1.3809,1.3568,1.3773,1.3263,1.1752,0.0,0.0,0.0,0.0,0.0,0.0,0.0,0.0,0.0,0.0,0.0,0.0,0.0,0.0,0.0,0.0,0.0,0.0,0.0,0.0,0.0,0.0,0.0,0.0,0.0,0.0,0.0,0.0,0.0,0.0,0.0,0.0,0.0,0.0,0.0,0.0,0.0,0.0,0.0,0.0,0.0,0.0,0.0,0.0,0.0,0.0,0.0,0.0,0.0,0.0,0.0,0.0,0.0,0.0,0.0,0.0,0.0,0.0,0.0,0.0,2.2491,2.0934,0.0,0.0,0.0,0.0,0.0,0.0,0.0,0.0,0.0,0.0,0.0,0.0,0.0,0.0,0.0,0.0,0.0,0.0,0.0,0.0,0.0,0.0,0.0,0.0,0.0,0.0,0.0,0.0,0.0,0.0,0.0,0.0,0.0,0.0,0.0,0.0,0.0,0.0,0.0,0.0,1.3529,1.3959,1.4213,1.3929,1.3906,1.3882,1.3833,1.387,1.3577,1.2803,1.1965,0.0,0.0,0.0,0.0,0.0,0.0,0.0,0.0,0.0,0.0,0.0,0.0,0.0,0.0,0.0,0.0,0.0,0.0,0.0,0.0,0.0,0.0,0.0,0.0,0.0,0.0,0.0,0.0,0.0,0.0,0.0,0.0,0.0,0.0,0.0,0.0,0.0,0.0,0.0,0.0,0.0,0.0,0.0,0.0,0.0,0.0,0.0,0.0,0.0,0.0,0.0,0.0,0.0,0.0,0.0,0.0,0.0,0.0,0.0,2.4043,2.2354,0.0,0.0,0.0,0.0,0.0,0.0,0.0,0.0,0.0,0.0,0.0,0.0,0.0,0.0,0.0,0.0,0.0,0.0,0.0,0.0,0.0,0.0,0.0,0.0,0.0,0.0,0.0,0.0,0.0,0.0,0.0,0.0,0.0,0.0,0.0,0.0,0.0,0.0,0.0,0.0,1.3881,1.4099,1.4162,1.3929,1.4014,1.4039,1.3918,1.4014,1.386,1.3327,1.286,0.0,0.0,0.0,0.0,0.0,0.0,0.0,0.0,0.0,0.0,0.0,0.0,0.0,0.0,0.0,0.0,0.0,0.0,0.0,0.0,0.0,0.0,0.0,0.0,0.0,0.0,0.0,0.0,0.0,0.0,0.0,0.0,0.0,0.0,0.0,0.0,0.0,0.0,0.0,0.0,0.0,0.0,0.0,0.0,0.0,0.0,0.0,0.0,0.0,0.0,0.0,0.0,0.0,2.5829,2.6546,2.6572,2.7115,2.7376,2.7281,2.5591,2.4185,2.3055,2.2701,0.0,0.0,0.0,0.0,0.0,0.0,0.0,0.0,0.0,0.0,0.0,0.0,0.0,0.0,0.0,0.0,0.0,0.0,0.0,0.0,0.0,0.0,1.96,1.9048,1.9659,2.0101,1.922,0.0,0.0,0.0,0.0,0.0,0.0,0.0,0.0,0.0,0.0,0.0,1.4258,1.4277,1.421,1.406,1.4231,1.428,1.4063,1.4208,1.4087,1.3593,1.372,1.3216,0.0,0.0,0.0,0.0,0.0,0.0,0.0,0.0,0.0,0.0,0.0,0.0,0.0,0.0,0.0,0.0,0.0,0.0,0.0,0.0,0.0,0.0,0.0,0.0,0.0,0.0,0.0,0.0,0.0,0.0,0.0,0.0,2.738,2.7545,0.0,0.0,0.0,0.0,0.0,0.0,0.0,0.0,0.0,0.0,0.0,0.0,0.0,2.5325,2.6141,2.5962,2.564,2.5231,2.5697,2.5913,2.5939,2.653,2.6808,2.6808,2.7013,0.0,2.5784,2.4718,0.0,0.0,0.0,0.0,0.0,0.0,0.0,0.0,0.0,0.0,0.0,0.0,0.0,0.0,0.0,0.0,0.0,0.0,0.0,0.0,0.0,0.0,1.9846,1.9769,2.0157,2.0508,2.0372,1.9697,1.8751,1.746,1.7009,1.6412,0.0,0.0,0.0,0.0,0.0,0.0,1.4231,1.4406,1.4565,1.459,1.4619,1.463,1.4593,1.4413,1.4171,1.387,1.3667,1.3447,1.3229,1.3216,0.0,0.0,0.0,0.0,0.0,0.0,0.0,0.0,0.0,0.0,0.0,0.0,0.0,0.0,0.0,0.0,0.0,0.0,0.0,0.0,0.0,0.0,0.0,0.0,0.0,0.0,0.0,0.0,0.0,2.6846,2.7216,2.7785,2.7782,2.7711,0.0,0.0,0.0,0.0,0.0,0.0,0.0,0.0,0.0,2.7457,2.6521,2.6064,2.612,2.6463,2.6212,2.5412,2.586,2.5996,2.5835,2.6415,2.6693,2.6729,2.7271,2.7276,2.6867,2.6221,2.5353,2.4455,0.0,0.0,0.0,0.0,2.1533,2.1114,2.0109,1.9929,2.0091,1.9612,0.0,0.0,0.0,0.0,0.0,0.0,0.0,1.9577,1.9828,2.0255,2.0644,2.0644,2.0996,2.1329,2.1329,2.0818,2.0023,1.8826,1.823,1.7563,1.6408,1.5991,0.0,0.0,0.0,1.5086,1.4692,1.4924,1.5065,1.4935,1.506,1.5082,1.4932,1.469,1.4461,1.4364,1.4232,1.4028,1.3742,1.3779,1.3496,0.0,0.0,0.0,0.0,0.0,0.0,0.0,0.0,0.0,0.0,0.0,0.0,0.0,0.0,0.0,0.0,0.0,0.0,0.0,0.0,0.0,0.0,0.0,0.0,0.0,0.0,0.0,0.0,2.7431,2.7782,2.8643,2.848,2.8336,0.0,0.0,0.0,0.0,0.0,0.0,2.7634,2.732,2.7293,2.755,2.6919,2.6384,2.6033,2.6523,2.6236,2.5172,2.5613,2.5659,2.5391,2.6138,2.6468,2.652,2.7193,2.7356,2.7146,2.7045,2.6052,2.4647,2.4912,2.4738,2.4165,2.2758,2.2257,2.2134,2.1213,2.1139,2.1331,2.0704,2.0696,2.0788,2.0132,0.0,0.0,0.0,0.0,2.037,2.0917,2.1214,2.1386,2.1386,2.166,2.1876,2.1738,2.1542,2.1112,2.0256,1.9525,1.8798,1.8042,1.7478,0.0,0.0,0.0,1.5726,1.5503,1.5504,1.5486,1.5406,1.5519,1.5529,1.5311,1.5054,1.4896,1.4823,1.4798,1.4605,1.4232,1.4338,1.4027,1.3202,0.0,0.0,0.0,0.0,0.0,0.0,0.0,0.0,0.0,0.0,0.0,0.0,0.0,0.0,0.0,0.0,0.0,0.0,0.0,0.0,0.0,0.0,0.0,0.0,0.0,0.0,0.0,0.0,0.0,3.0665,3.0171,0.0,0.0,0.0,0.0,2.975,2.9783,2.9626,2.9293,2.8369,2.7995,2.8325,2.6776,2.6078,2.6379,2.5854,2.5241,2.4548,2.4575,2.4443,2.4215,2.5338,2.5861,2.5913,2.702,2.7205,2.6731,2.6926,2.6816,2.6569,2.6449,2.6372,2.6244,2.5403,2.5104,2.4939,2.3949,2.3604,2.3572,2.3165,2.2966,2.271,2.192,2.1675,0.0,0.0,2.1427,2.1332,2.2105,2.209,2.1855,2.1855,2.1896,2.1777,2.1347,2.1582,2.1719,2.121,2.0781,2.0288,1.9695,0.0,1.8418,1.8185,1.6798,1.6031,1.6718,1.6052,1.5684,1.6184,1.6023,1.5876,1.5851,1.5605,1.5354,1.5101,1.5089,1.5077,1.5052,1.481,1.4542,1.4237,1.3779,0.0,0.0,0.0,0.0,0.0,0.0,0.0,0.0,0.0,0.0,0.0,0.0,0.0,0.0,0.0,0.0,0.0,0.0,0.0,0.0,0.0,0.0,0.0,0.0,0.0,0.0,0.0,0.0,3.0292,3.0075,0.0,3.0226,3.0042,2.9759,2.9414,2.9312,2.9061,2.859,2.797,2.7701,2.7827,2.6835,2.633,2.6463,2.5978,2.5646,2.5402,2.5402,2.5338,2.5219,2.6367,2.6889,2.6958,2.8133,2.8473,2.8193,2.8123,2.7408,2.6354,2.6035,2.5826,2.5641,2.4814,2.4528,2.4456,2.3818,2.3617,2.3562,2.3195,2.305,2.2846,2.204,2.1794,2.1741,2.1488,2.1293,2.1349,2.1928,2.2181,2.2285,2.2285,2.2285,2.2246,2.2069,2.1973,2.1857,2.168,2.1289,2.0751,2.0018,2.0005,1.9652,1.8365,1.7986,1.7689,1.7236,1.6843,1.6578,1.6573,1.6665,1.6583,1.6187,1.607,1.5974,1.5888,1.5704,1.5608,1.5608,1.5354,1.493,1.4303,1.4316,1.3814,0.0,0.0,0.0,0.0,0.0,0.0,0.0,0.0,0.0,0.0,0.0,0.0,0.0,0.0,0.0,0.0,0.0,0.0,0.0,0.0,0.0,0.0,0.0,0.0,0.0,0.0,2.9999,3.0171,3.0031,2.9922,2.9981,2.9954,2.9726,2.9289,2.9243,2.8993,2.8456,2.8046,2.7871,2.7935,2.7398,2.7118,2.7172,2.6899,2.6595,2.62,2.62,2.618,2.6138,2.7089,2.7611,2.7846,2.8856,2.9221,2.9071,2.8882,2.8099,2.6992,2.6597,2.6349,2.617,2.5433,2.5182,2.5123,2.4665,2.4199,2.3781,2.3617,2.3493,2.3235,2.2435,2.2397,2.2537,2.2244,2.2243,2.2311,2.2433,2.2713,2.286,2.2564,2.2498,2.2498,2.2498,2.2305,2.209,2.209,2.1737,2.1296,2.0824,2.0895,2.0691,1.9804,1.9116,1.8563,1.8053,1.7432,1.6956,1.6727,1.699,1.6987,1.6483,1.6512,1.6498,1.6299,1.6284,1.6211,1.603,1.5946,1.5519,1.4698,1.4661,1.4217,1.331,0.0,0.0,0.0,0.0,0.0,0.0,0.0,0.0,0.0,0.0,0.0,0.0,0.0,0.0,0.0,0.0,0.0,0.0,0.0,0.0,0.0,0.0,0.0,3.0741,3.0378,3.0161,3.0497,3.0166,2.9939,3.0157,2.9998,2.977,2.9504,2.9737,2.968,2.9169,2.8763,2.8639,2.8837,2.8449,2.8316,2.8482,2.8497,2.7923,2.684,2.684,2.6811,2.6788,2.7314,2.7872,2.8481,2.9083,2.9344,2.9327,2.9139,2.8916,2.8718,2.8286,2.8122,2.8047,2.7512,2.7311,2.7236,2.6725,2.5648,2.4539,2.4718,2.4521,2.4045,2.3316,2.357,2.4131,2.41,2.4227,2.427,2.3776,2.3705,2.3596,2.2753,2.2519,2.2498,2.2498,2.2498,2.2498,2.2498,2.2187,2.1988,2.2184,2.1685,2.1544,2.2524,2.0166,0.0,1.9295,1.7852,1.6739,1.674,1.7002,1.708,1.6762,1.6982,1.6891,1.6347,1.6803,1.6879,1.6359,1.6537,1.6263,1.5405,1.4864,1.4499,1.4304,0.0,0.0,0.0,0.0,0.0,0.0,0.0,0.0,0.0,0.0,0.0,0.0,0.0,0.0,0.0,0.0,0.0,0.0,0.0,0.0,0.0,0.0,2.9579,2.9839,3.0215,3.022,2.9581,2.9414,2.9339,2.939,2.9347,2.9298,2.9229,2.9743,2.9974,2.9821,3.0047,3.0047,2.9755,2.9158,2.8714,2.8411,2.8139,2.7928,2.7815,2.7526,2.7695,2.8302,2.8637,2.9118,2.9675,3.0268,3.0547,3.0529,3.0325,3.012,2.983,2.8736,2.8231,2.8097,2.7921,2.778,2.7646,2.7497,2.7096,2.6633,2.6546,2.6454,2.6152,2.5233,2.4943,2.4825,2.4435,2.4191,2.412,2.4514,2.4173,2.3783,2.3921,2.3207,2.2498,2.2498,2.2498,2.2498,2.2498,2.2654,2.2691,2.2473,2.2146,2.195,2.2032,2.1037,0.0,1.967,1.8537,1.7764,1.7661,1.7528,1.7402,1.7361,1.7556,1.744,1.6916,1.7008,1.702,1.6904,1.638,1.5808,1.5188,1.4665,1.4441,0.0,0.0,0.0,0.0,0.0,0.0,0.0,0.0,0.0,0.0,0.0,0.0,0.0,0.0,0.0,0.0,0.0,0.0,0.0,0.0,0.0,0.0,2.9849,2.9493,2.9493,2.9877,2.987,2.9169,2.946,2.9595,2.9415,2.9738,2.9907,2.9811,3.0254,3.0486,3.0389,3.066,3.0737,3.0637,3.009,2.967,2.9479,2.9056,2.8763,2.8588,2.82,2.847,2.9287,2.9294,2.9737,3.0484,3.0843,3.0992,3.0999,3.0698,3.0501,3.0291,0.0,0.0,0.0,0.0,2.8169,2.7797,2.7895,2.7465,2.6882,2.6825,2.6718,2.6453,2.5881,2.5806,2.577,2.5095,2.4923,2.4826,2.4325,2.3969,2.3742,2.367,2.306,2.2559,2.2713,2.2615,2.2537,2.2713,2.281,0.0,2.3027,2.2715,2.2418,2.2309,2.15,2.0726,2.0267,1.9021,1.8185,1.8099,1.7742,1.7511,1.7398,1.7704,0.0,0.0,0.0,1.7448,1.7448,1.6534,0.0,0.0,0.0,1.4796,1.4883,1.4697,0.0,0.0,1.4328,1.4111,0.0,0.0,0.0,0.0,0.0,0.0,0.0,0.0,0.0,0.0,0.0,0.0,0.0,0.0,0.0,0.0,2.9799,2.9598,2.9542,2.9617,2.9569,2.9229,2.9938,3.0323,2.9893,3.0585,3.0936,3.0766,3.1005,3.1061,3.089,0.0,0.0,0.0,0.0,3.0798,3.0911,3.0477,2.9852,2.9113,2.8816,2.9107,2.9882,2.9609,3.0103,3.1201,3.1201,3.1201,3.1164,3.0822,3.0624,3.0567,3.0215,2.9953,2.9729,2.9208,2.8587,2.8051,2.8242,0.0,0.0,2.6576,2.637,2.6062,2.6024,2.6481,2.6856,2.6051,2.6135,2.6046,2.4116,2.3781,2.3763,2.3047,2.2727,2.2654,2.3023,2.2869,2.2752,2.3123,2.2927,2.2969,2.373,2.3296,2.2917,2.3047,2.1858,2.0926,2.1002,1.9605,1.8577,1.8446,1.8125,0.0,1.7296,1.7704,1.7765,1.717,1.7605,1.7835,1.7774,1.6834,1.6414,1.661,1.5841,1.5367,1.5149,1.5125,1.4992,1.4738,1.4678,1.4376,0.0,0.0,0.0,0.0,0.0,0.0,0.0,0.0,0.0,0.0,0.0,0.0,0.0,0.0,0.0,3.0571,3.0412,3.0238,2.9799,3.0392,3.0554,2.9753,3.0099,3.0394,3.0292,3.0454,3.0528,3.0477,3.0992,3.1327,3.1275,3.1799,3.1965,3.1641,3.1185,3.0778,3.0447,2.996,2.951,2.9113,0.0,0.0,3.0441,3.0616,3.1306,3.2378,3.2378,3.2378,3.2359,3.228,3.2044,3.163,3.0365,2.9818,2.9798,2.9654,2.9534,2.9414,2.9478,2.928,2.9005,2.8675,2.8519,2.8382,2.8048,2.7897,0.0,2.7387,2.7186,2.7014,2.6866,2.5799,2.4839,2.5101,2.4044,2.3003,2.3081,2.3337,2.3574,2.3652,2.3867,2.4102,2.4235,2.3741,2.3357,2.3548,2.3136,2.2509,2.18,2.1489,2.0911,1.9847,1.9888,1.951,1.826,1.8428,1.8284,1.746,1.7532,1.737,1.6948,1.6927,1.665,1.6054,1.5892,1.5688,1.5427,1.5209,1.5077,1.5003,1.4582,1.4208,0.0,0.0,0.0,0.0,0.0,0.0,0.0,0.0,0.0,0.0,0.0,3.1602,0.0,0.0,3.1086,3.079,3.064,3.0592,3.0698,3.1149,3.1212,3.0398,3.0776,3.1101,3.1101,3.1279,3.1384,3.1384,3.1705,3.1903,3.1903,3.2536,3.2793,3.2566,3.2465,3.2153,3.1651,3.0981,3.0435,2.9997,2.9733,2.9933,3.0609,3.0879,3.1444,3.2261,3.2568,3.2698,3.2679,3.248,3.214,3.1686,3.0909,3.0583,3.0577,3.0306,3.0206,3.0156,2.988,2.9643,2.941,2.917,2.8954,2.8756,2.8558,2.8389,2.8129,2.7597,2.7329,2.7125,2.6826,2.6084,2.537,2.5189,2.4467,2.3729,2.3506,2.3633,2.3848,2.4062,2.4254,2.4469,2.4707,2.4477,2.4114,2.3765,2.3481,2.3086,2.2481,2.1815,2.1144,2.0472,2.0028,1.9373,1.849,1.8486,1.8301,1.7738,1.7714,1.7532,1.7105,1.7092,1.6899,1.6501,1.6368,1.6163,1.5885,1.5765,1.5747,1.5846,1.5629,1.5474,0.0,0.0,0.0,0.0,0.0,0.0,0.0,0.0,3.2316,3.2615,3.242,3.202,3.1473,3.1194,3.105,3.105,3.0905,3.1015,3.1559,3.186,3.1794,3.1182,3.1573,3.1915,3.1915,3.2211,3.2444,3.2567,3.2598,3.2673,3.2796,3.3306,3.3614,3.3614,3.3726,3.3531,3.3006,3.2137,3.1398,3.0807,3.0213,3.0255,3.0844,3.1183,3.1705,3.2319,3.2829,3.2992,3.2958,3.2555,3.2169,3.1774,3.1754,3.1733,3.1658,3.0884,3.0588,3.0512,2.998,2.9527,2.915,2.9111,2.8855,2.8538,2.8498,2.8551,2.8502,2.7676,2.7417,2.7156,2.63,2.5798,2.5358,2.4659,2.4442,2.426,2.389,2.3926,2.4163,2.4473,2.4586,2.4762,2.516,2.5124,2.4817,2.4046,2.3749,2.3507,2.318,2.2253,2.1419,2.0954,2.0272,1.9538,1.8732,1.8494,1.8283,1.8004,1.7931,1.781,1.7593,1.731,1.7141,1.7092,1.6887,1.6646,1.6384,1.6384,1.646,1.6625,1.6967,1.6997,3.2643,3.2806,3.2745,3.2892,3.322,3.3298,0.0,0.0,3.1495,3.1228,3.1092,3.107,3.0972,3.1259,3.153,3.153,3.1808,3.1968,3.18,3.2346,3.2631,3.228,3.2283,3.2345,3.2345,3.2379,3.2659,3.3244,3.3306,3.3552,3.4213,3.4351,3.4382,3.4382,3.4014,3.3531,3.3006,3.2137,3.1299,3.045,3.0503,3.0913,3.1672,3.2254,3.3091,3.411,3.4188,3.4111,3.3923,3.3651,3.3398,3.3166,3.2978,3.2914,3.2713,3.1185,3.0588,3.0512,2.998,2.9599,2.9341,2.917,2.8954,2.8736,2.8538,2.8835,2.9103,2.8522,2.8146,2.7801,2.7197,2.5862,2.4616,2.4509,2.4188,2.3865,2.3811,2.4418,2.4965,2.5004,2.5312,2.5581,2.562,2.5232,2.4895,2.4784,2.4741,2.4545,2.4122,2.4517,2.4053,2.1921,2.2626,2.226,1.9774,1.9062,1.8613,1.8282,1.804,1.7895,1.7859,1.7605,1.7334,1.7092,1.7068,1.6923,1.6658,1.6658,1.6665,1.6707,1.774,1.765,3.2988,3.3117,0.0,0.0,3.2378,3.2372,3.1265,3.1232,3.1353,3.0984,3.1228,3.1531,3.1531,3.1696,3.1931,0.0,3.2171,3.225,3.2409,3.2874,3.3138,3.3012,3.3351,3.3443,3.3029,3.3381,3.372,3.4028,3.4028,3.4182,3.4474,3.486,3.5075,3.5075,3.5171,3.4922,3.4417,3.3297,3.2414,3.173,3.1117,3.1183,3.1823,3.2437,3.3326,3.4397,3.4397,3.4209,3.3852,3.3747,3.3513,3.3219,3.3133,3.3291,3.3395,3.2039,3.1315,3.0984,3.0457,3.0118,2.9915,2.9816,2.9879,2.9963,2.9862,2.9885,2.9908,2.969,2.9412,2.903,2.823,2.7442,2.6628,2.5517,2.5106,2.4882,2.4611,2.4828,2.516,2.541,2.5581,2.5693,2.5693,2.5504,2.526,2.4966,2.4671,2.4424,2.4226,2.4286,2.3732,2.209,2.2229,2.1847,2.0349,1.9625,1.9143,1.884,1.8532,1.8234,1.7919,1.847,1.8311,1.7351,1.8035,1.824,1.7986,1.7986,1.8573,1.9725,2.0222,2.0225,3.3582,3.3366,0.0,3.1735,3.1491,3.1353,3.064,3.0882,3.1263,3.122,3.1731,3.2192,3.2308,3.2317,3.2449,3.2749,3.2715,3.2756,3.3018,3.3416,3.3706,3.3706,3.4336,3.4552,3.4014,3.4305,3.4597,3.4751,3.4782,3.486,3.5059,3.5506,3.5783,3.5783,3.5857,3.5641,3.5106,3.3837,3.3008,3.2609,3.1678,3.1601,3.2339,3.3064,3.3953,3.4868,3.4804,3.455,3.4165,3.4101,3.3868,3.352,3.352,3.3771,3.4022,3.3197,3.2566,3.2014,3.1486,3.1043,3.0731,3.0731,3.0782,3.0791,3.0708,3.066,3.0591,3.0382,2.9947,2.94,2.8786,2.8049,2.7172,2.6081,2.571,2.5525,2.5165,2.518,2.5352,2.5659,2.5815,2.5893,2.5893,2.5917,2.5778,2.5332,2.5001,2.47,2.4404,2.3791,2.3144,2.2556,2.1778,2.1087,2.0626,2.0157,1.9719,1.933,1.9462,1.9267,1.8713,1.9531,1.9585,1.8663,1.9147,1.9437,1.951,1.9595,2.0349,2.1671,2.2041,2.2256,3.4567,3.3587,3.2303,3.1667,3.0912,3.0422,3.0812,3.0883,3.111,3.1822,3.2285,3.2668,3.3028,3.3189,3.3259,3.329,3.3585,3.3748,3.3424,3.3997,3.4474,3.4474,3.5044,3.5445,0.0,3.486,3.4767,3.5414,3.5476,3.5753,3.6399,3.6445,3.6476,3.6476,3.5609,3.4879,3.4346,3.3073,3.2436,3.2395,3.1983,3.2391,3.3561,3.4711,3.5521,3.6022,3.5833,3.5591,3.5347,3.5124,3.49,3.4653,3.4653,3.4653,3.4678,3.4628,3.4276,3.3746,3.3215,3.2514,3.1854,3.1854,3.1356,3.0749,3.05,3.0782,3.1031,3.0314,2.9174,2.8232,2.8596,2.6619,2.4762,2.5675,2.5516,2.513,2.5106,2.541,2.5698,2.5693,2.6074,2.6367,2.6367,2.6497,2.6468,2.6211,2.6259,2.5979,2.4918,2.3621,2.3054,2.3693,2.1933,2.0695,2.0621,2.0583,2.0284,1.9623,2.0864,2.1307,2.0646,2.0716,2.1014,2.1555,2.0323,2.0143,2.103,2.1372,2.1335,2.1062,2.243,2.2857,3.3328,3.2269,3.1406,3.1746,3.1458,3.1243,3.1844,3.2335,3.2691,3.2736,3.3185,3.3719,3.4076,3.42,3.4221,3.4295,3.4441,3.4466,3.4164,3.4736,3.5168,3.5168,3.5753,0.0,0.0,0.0,0.0,3.6153,3.6153,3.6276,3.6492,3.6907,3.7106,3.6979,3.7001,3.6581,3.5683,3.4703,3.3881,3.3334,3.3469,3.3744,3.4162,3.5312,3.5852,3.5907,3.5845,3.5579,3.5197,3.5133,3.4928,3.4703,3.4703,3.4929,3.5232,3.5232,3.513,3.4778,3.352,3.2649,3.2089,3.2089,3.2193,3.2325,3.2219,3.2108,3.1926,3.169,3.1065,3.0364,2.9822,2.8473,2.7165,2.684,2.6355,2.5962,2.5962,2.6289,2.6557,2.6557,2.6674,2.6797,2.6797,2.6685,2.6544,2.6368,2.622,2.6101,2.6013,2.6068,2.599,2.5566,2.4529,2.3547,2.2748,2.155,2.0682,2.0297,2.0277,2.0623,2.132,2.1929,2.2317,2.2423,2.2505,2.2613,2.2678,2.2758,2.3231,2.4132,2.4511,2.4748,3.2636,3.21,3.1816,3.1959,3.1942,3.2034,3.2726,3.317,3.3431,3.3449,3.3859,3.4335,3.4775,3.482,3.4795,3.4966,3.5152,3.5167,3.4904,3.5445,3.5876,3.5876,3.6245,3.6599,0.0,0.0,0.0,3.6846,3.7061,3.7215,3.7215,3.7615,3.7781,3.7571,3.7584,3.725,3.6476,3.527,3.4363,3.3745,3.441,3.4816,3.5025,3.5992,3.6478,3.653,3.6351,3.6103,3.5808,3.5649,3.5441,3.5303,3.5303,3.5529,3.5807,3.5807,3.5707,3.5357,3.4324,3.347,3.2817,3.2817,3.2943,3.3068,3.2896,3.2636,3.2381,3.2423,3.1669,3.0811,3.0744,2.9393,2.8013,2.7745,2.7135,2.6602,2.6602,2.6836,2.6986,2.6986,2.7148,2.7305,2.7441,2.74,2.7374,2.7431,2.7104,2.6857,2.6839,2.7203,2.727,2.667,2.6115,2.5264,2.3942,2.3121,2.234,2.1511,2.1943,2.2525,2.3229,2.3886,2.4273,2.4242,2.4308,2.4294,2.4291,2.4323,2.4793,2.5647,2.5667,2.5735,3.252,3.2985,3.3321,3.2368,3.2374,3.277,3.3484,3.3398,3.336,3.3971,3.4258,3.4548,0.0,0.0,3.5059,3.5429,3.5722,3.5821,3.5582,3.6091,3.6507,0.0,0.0,0.0,0.0,0.0,0.0,3.7599,0.0,3.8491,3.8491,3.8522,3.844,3.8241,3.74,3.6857,3.6622,3.4836,3.3843,3.3639,3.4789,3.56,3.6123,3.675,3.7351,3.7854,3.7343,3.7085,3.7038,3.6593,3.643,3.6455,3.6455,3.6455,3.648,3.648,3.6107,3.5583,3.5583,3.4853,3.3947,3.3897,3.3571,3.3104,3.2649,3.2496,3.2531,3.2575,3.1113,2.984,3.1262,2.9409,2.7374,2.8287,2.7748,2.7051,2.7051,2.7064,2.7084,2.7084,2.7487,2.7917,2.8301,2.8575,2.8871,2.923,2.8814,2.816,2.7371,2.7182,2.7164,2.7146,2.6727,2.588,2.4461,2.5216,2.5014,2.3287,2.5509,2.6658,2.6078,2.6305,2.6615,2.6913,2.5642,2.524,2.5742,2.5953,2.5874,2.5514,2.5816,2.5756,3.2808,3.2725,3.291,3.3734,3.3837,3.3884,3.4301,3.4355,3.4276,3.4131,3.4811,3.5461,0.0,0.0,0.0,3.651,3.6412,0.0,3.6245,3.6399,0.0,3.7184,0.0,3.7523,3.82,3.8707,0.0,0.0,3.861,3.8442,3.8279,3.8769,3.8893,3.8585,3.8216,3.7622,3.6817,3.5134,3.4258,3.4214,3.5338,3.5966,3.6149,3.7194,3.7652,3.7575,3.7248,3.6992,3.6779,3.6499,3.6656,3.7009,3.7009,3.7261,3.7588,3.7588,3.7236,3.6759,3.6759,3.578,3.4427,3.4022,3.4073,3.4254,3.4142,3.401,3.3878,3.3913,3.3228,3.2417,3.1994,3.063,2.9162,2.8636,2.8015,2.7526,2.7526,2.7988,2.8411,2.8411,2.8789,2.9066,2.8915,2.9257,2.9384,2.8989,2.9095,2.8938,2.8179,2.8871,2.9256,2.898,2.8705,2.8271,2.7633,2.6874,2.6167,2.5483,2.5533,2.5928,2.6719,2.6294,2.643,2.7183,2.6576,2.6215,2.614,2.5828,2.5595,2.5514,2.5524,2.5499,3.3317,3.3401,3.3556,3.4396,3.451,3.4604,3.5276,3.5054,3.479,3.505,3.5729,3.6252,3.6191,3.6757,3.721,0.0,0.0,0.0,3.6523,3.6753,3.7061,0.0,3.7769,0.0,3.8861,3.9291,3.9562,0.0,3.9447,3.9198,3.9011,3.9346,3.9421,3.9141,3.9044,3.8283,3.6914,3.5615,3.4897,3.4816,3.594,3.6645,3.6933,3.8109,3.8491,3.8232,3.797,3.7709,3.7446,3.7206,3.7286,3.7538,3.7538,3.7739,3.8015,3.8015,3.7814,3.7513,3.7286,3.6734,3.5983,3.4929,3.4653,3.468,3.459,3.4409,3.4255,3.4362,3.3761,3.2912,3.2264,3.1209,3.0087,2.9199,2.8754,2.8523,2.8523,2.8894,2.9199,2.9199,2.9551,2.9787,2.9618,2.9728,2.9726,2.9329,2.9271,2.9194,2.895,2.9672,3.0112,2.9904,3.0089,2.9912,2.9103,2.8689,2.818,2.7403,2.7323,2.7508,2.787,2.7474,2.7252,2.7244,2.7036,2.6752,2.6423,2.6136,2.5882,2.5728,2.5676,2.5572,3.3958,3.4387,3.4612,3.4617,3.4664,3.4973,3.6004,3.54,3.497,3.6209,0.0,3.689,3.6896,3.7255,3.7547,3.7364,0.0,3.6523,3.663,3.7123,3.7554,3.7738,3.8292,3.8891,3.9534,3.9596,3.9774,4.0196,4.0209,4.0139,3.9975,3.9975,3.9881,3.9637,3.9637,3.8767,3.6982,3.6276,3.574,3.5417,3.6488,3.7325,3.7952,3.8998,3.9401,3.9236,3.8946,3.8678,3.8433,3.8138,3.804,3.8115,3.8115,3.8165,3.8241,3.8241,3.8241,3.8165,3.7688,3.7789,3.7864,3.6259,3.5456,3.5107,3.4925,3.4695,3.4539,3.477,3.3934,3.2923,3.2672,3.1873,3.0936,3.0055,2.9849,2.9793,2.9626,2.9637,2.9696,2.9755,3.0039,3.0293,3.0293,3.0142,2.9981,2.9922,2.945,2.9223,2.9482,2.991,3.0222,3.0277,3.0937,3.0926,2.9674,3.0377,3.0338,2.9156,2.9784,2.9855,2.9115,2.8986,2.8417,2.7298,2.7224,2.7041,2.6664,2.6554,2.6343,2.6021,2.5966,2.5719,3.4394,3.454,3.4595,3.467,3.4688,3.4828,3.5301,3.4783,0.0,0.0,3.687,3.6993,3.7313,3.7732,3.7798,3.718,3.677,3.6692,3.7246,3.743,3.7923,0.0,3.9261,3.9548,4.0104,4.0178,0.0,0.0,3.9803,3.9803,3.975,3.975,3.9582,3.9213,3.9194,3.8617,3.7413,3.7267,3.678,3.5966,3.6671,3.7325,3.7926,3.8556,3.9105,3.9503,3.9018,0.0,3.8677,3.8212,3.8291,3.8743,3.8743,3.8994,3.9396,3.9396,3.9396,3.9396,3.9295,3.9044,3.8542,3.7287,3.7136,3.7413,3.7389,3.7194,3.6998,3.7048,3.6552,3.5824,3.492,3.4373,3.3558,3.1556,3.1107,3.0805,2.9821,2.9872,3.0195,3.0586,3.0723,3.0762,3.0762,3.0752,3.0528,2.9981,2.9804,2.9605,2.9175,2.9745,3.0332,3.0644,3.1134,3.1313,3.1055,3.1176,3.1171,3.0946,3.0463,2.9984,2.9519,2.8876,2.8271,2.7701,2.7371,2.7169,2.7096,2.6416,2.6068,2.5976,2.5645,2.5462,3.4822,3.479,3.464,3.452,3.4337,3.4543,3.5885,0.0,0.0,0.0,3.7777,3.7621,3.7245,3.7544,3.7667,3.709,3.7002,3.7123,3.7461,3.8108,3.8768,3.9414,3.9814,4.0119,4.0387,4.0331,4.0309,4.0359,4.0281,4.0173,4.0064,4.0394,4.0285,3.9596,3.9165,3.8468,3.7446,3.7,3.6686,3.6593,3.7456,3.8214,3.8815,3.9507,3.9933,4.0044,3.9646,3.9396,3.9246,3.8995,3.9044,3.9321,3.9321,3.9471,3.9697,3.9697,3.9697,3.9697,3.9697,3.9521,3.9245,3.8693,3.8266,3.8015,3.8015,3.7717,3.7393,3.7393,3.6797,3.5974,3.509,3.4175,3.3139,3.1965,3.1391,3.0974,3.0397,3.0439,3.0625,3.0859,3.0898,3.0898,3.0898,3.0762,3.045,2.9981,2.9774,2.9658,2.9623,2.9965,3.0277,3.0461,3.1061,3.141,3.141,3.141,3.141,3.141,3.0827,3.0222,2.9629,2.9042,2.8344,2.75,2.7298,2.7206,2.7206,2.682,2.6618,2.6618,2.6416,2.6233,3.4683,3.4586,3.4448,3.4163,3.3976,3.4329,3.6306,3.6135,0.0,3.8092,3.8292,3.7906,3.7186,3.734,3.74,3.6984,3.7234,3.7554,3.7707,3.8738,3.9537,0.0,4.0149,0.0,4.0401,4.0384,0.0,4.0843,4.0999,4.0942,4.0625,4.1104,4.1128,4.0539,3.9725,3.8886,3.8109,3.7229,3.6897,3.722,3.8214,3.9024,3.9627,4.0422,4.0716,4.0567,4.0313,4.0032,3.98,3.9723,3.9697,3.9697,3.9697,3.9697,3.9697,3.9697,3.9697,3.9697,3.9697,3.9697,3.9672,3.9572,3.8994,3.8341,3.8241,3.7842,3.7416,3.7318,3.6599,3.5682,3.4938,3.3813,3.2756,3.2197,3.1469,3.0898,3.0898,3.0898,3.0898,3.0898,3.0898,3.0898,3.0898,3.0674,3.0362,2.9951,2.9715,2.9692,2.9917,3.0094,3.0204,3.0204,3.0901,3.141,3.141,3.1336,3.1281,3.1281,3.0791,3.0235,2.9501,2.9097,2.837,2.7353,2.7243,2.7206,2.7206,2.7114,2.7132,2.7206,2.7206,2.7077,3.3348,3.3451,3.3783,3.3461,3.3836,3.4487,3.5358,0.0,3.5872,3.7754,3.75,3.7074,3.7454,3.7487,3.7223,3.6631,3.7077,3.7707,3.8307,3.9045,3.9722,4.0337,0.0,0.0,4.0081,4.0419,4.0631,4.0471,4.1561,4.198,4.1343,4.1373,4.1634,4.2175,4.128,4.0621,4.0328,3.9399,3.8546,3.7821,3.8423,3.9024,3.9625,4.0177,4.0602,4.0846,4.0567,4.0313,0.0,3.98,3.9697,3.9697,3.9697,3.9697,3.9697,3.9697,3.9697,3.9697,3.9697,3.9697,3.9622,3.9145,3.9245,3.9446,3.8969,3.8566,3.8189,3.7692,3.7144,3.644,3.5418,3.5123,3.4679,3.3015,3.1738,3.0898,3.0898,3.0898,3.0898,3.0898,3.0898,3.0898,3.0898,3.085,3.0645,2.9981,2.9863,2.9694,2.9175,2.9745,3.0204,3.0204,3.0901,3.141,3.141,3.1079,3.0877,3.0877,3.0143,2.9519,2.9078,2.8663,2.8223,2.7757,2.7389,2.7206,2.7206,2.6811,2.683,2.7206,2.7206,2.7371,3.3285,3.3303,3.353,3.3639,3.3872,3.4411,3.5823,0.0,3.6319,3.7561,3.7456,3.7113,3.6965,3.6876,3.6785,3.6523,3.74,3.82,3.8461,3.9414,4.0214,4.0491,4.0703,0.0,0.0,0.0,4.14,4.1602,4.2432,4.2821,4.2581,4.2532,4.2436,4.2175,4.125,4.0435,3.9754,3.8886,3.8421,3.8397,3.8972,3.9547,4.0097,4.0498,4.0688,4.0643,4.0389,4.0109,0.0,3.9749,3.9697,3.9697,3.9697,3.9697,3.9697,3.9697,3.9697,3.9647,3.9346,3.922,3.912,3.8542,3.8492,3.8642,3.8417,3.8041,3.7615,3.7418,3.6747,3.5829,3.4744,3.3686,3.2584,3.1471,3.104,3.0898,3.0898,3.0898,3.0898,3.0898,3.0898,3.0898,3.0898,3.0898,3.0733,3.0274,3.0216,3.0076,2.9714,3.0143,3.042,3.0235,3.0901,3.1318,3.1047,3.0882,3.0681,3.0442,2.9672,2.917,2.9023,2.8399,2.7848,2.7444,2.7279,2.7206,2.7206,2.7279,2.7536,2.7911,2.8179,2.8381,3.3131,3.3025,3.311,3.3374,3.3768,3.4413,0.0,0.0,3.6582,3.7172,3.7283,3.7134,3.6585,3.66,3.6693,3.6769,3.7738,3.8553,3.8768,3.9784,4.0566,4.0799,0.0,4.1283,4.1425,4.1726,4.2125,4.265,4.304,4.329,4.329,4.307,4.2739,4.2395,4.1218,4.0281,3.9629,3.8462,3.8083,3.8475,3.9233,3.9808,4.0176,4.0658,4.0744,4.0491,4.0211,3.9955,0.0,3.9697,3.9697,3.9697,3.9697,3.9697,3.9697,3.9697,3.9597,3.9421,3.9019,3.8793,3.8542,3.7939,3.7764,3.7714,3.7465,3.7295,3.7147,3.6924,3.574,3.4303,3.3405,3.1971,3.0671,3.0454,3.0644,3.0898,3.0898,3.0898,3.0898,3.0898,3.0898,3.0898,3.0898,3.0898,3.0791,3.045,3.0333,3.0183,2.995,3.019,3.0279,3.0051,3.0626,3.0974,3.0809,3.0681,3.0442,3.0039,2.936,2.8858,2.8491,2.7922,2.7426,2.7041,2.7022,2.7022,2.7041,2.7426,2.7775,2.804,2.8572,2.8895,3.2509,3.2396,3.2396,3.2427,3.3443,3.4505,0.0,3.5552,3.6492,3.6492,3.677,3.6892,3.6538,3.677,3.7095,3.7447,3.8077,3.8738,3.9414,4.0074,4.0768,0.0,4.1413,4.1491,4.196,4.222,4.2631,4.325,4.329,4.329,4.329,4.2476,4.2415,4.327,4.1532,4.0603,4.0603,3.8823,3.79,3.7926,3.9076,3.9599,3.9627,4.0503,4.0744,4.0491,4.0211,3.9955,0.0,3.9697,3.9697,3.9697,3.9697,3.9697,3.9697,3.9697,3.9371,3.8894,3.8894,3.8492,3.7914,3.7362,3.721,3.7038,3.6249,3.6569,3.7038,3.6249,3.4067,3.1911,3.138,3.0419,2.9813,3.0713,3.0879,3.0898,3.0898,3.0898,3.0898,3.0898,3.0898,3.0898,3.0898,3.0898,3.0791,3.045,3.0128,2.9804,2.9538,2.9564,2.9611,2.9611,2.9965,3.0369,3.0754,3.0424,3.002,2.9629,2.9225,2.8472,2.7279,2.7224,2.7022,2.6609,2.6618,2.6618,2.6618,2.7022,2.7224,2.7243,2.8022,2.8608,3.252,3.2382,3.2505,3.2967,3.3429,3.3983,3.4952,3.5506,3.5937,3.6399,3.66,3.6631,3.6538,3.66,3.6847,3.7416,3.843,3.9261,3.9476,4.0387,4.1115,4.1298,4.1845,4.2364,0.0,4.2969,4.31,4.329,4.329,4.329,4.329,4.305,4.2906,4.2948,4.1206,4.0452,4.0863,3.9681,3.9259,3.9601,3.9967,4.0359,4.075,4.1041,4.0921,4.0517,4.0389,4.0134,3.9697,3.9697,3.9697,3.9647,3.9296,3.9145,3.9095,3.8693,3.8442,3.8216,3.7864,3.7612,3.7362,3.6833,3.6658,3.6607,3.6362,3.6198,3.5986,3.5332,3.3706,3.2171,3.2325,3.1195,3.0156,3.0742,3.0898,3.0898,3.0898,3.0898,3.0898,3.0898,3.0898,3.0898,3.0898,3.0898,3.085,3.0762,3.0645,3.047,3.0157,3.0162,3.0043,2.9584,2.9677,2.9849,2.9978,2.9868,2.9519,2.881,2.8399,2.7885,2.7224,2.6949,2.6719,2.6591,2.6591,2.6747,2.7022,2.7408,2.7885,2.8454,2.8711,2.8865,3.2857,3.2598,3.2505,3.2906,3.3213,3.3614,3.4521,3.5106,3.5629,3.603,3.6122,3.6215,3.6461,3.6307,3.6507,3.7677,3.8584,3.9275,3.9729,4.0637,4.1436,4.1833,4.255,4.3115,4.3418,4.3349,4.329,4.329,4.329,4.3409,4.3668,4.3367,4.3301,4.3566,4.2025,4.1307,4.1553,4.0636,4.0139,4.0122,4.028,4.0594,4.0959,4.0994,4.0821,4.0491,4.0287,4.0006,0.0,3.9697,3.9572,3.9371,3.9019,3.8768,3.8492,3.814,3.7864,3.7638,3.7336,3.706,3.6833,3.6507,3.6263,3.6097,3.6097,3.586,3.5453,3.4843,3.3644,3.2561,3.2566,3.1554,3.0636,3.0858,3.0898,3.0898,3.0898,3.0898,3.0898,3.0898,3.0898,3.0898,3.0898,3.0898,3.0898,3.0898,3.0791,3.0645,3.0421,3.0327,3.0117,2.9705,2.9614,2.9552,2.9552,2.9432,2.9097,2.8443,2.8032,2.7555,2.7004,2.6719,2.6591,2.6591,2.6591,2.6802,2.7206,2.7591,2.8215,2.9005,2.8828,2.8847,0.0,3.2875,3.2382,3.2382,3.2906,3.3398,3.3398,3.4459,0.0,3.5537,3.5568,3.5783,3.6461,3.6091,3.6338,3.8245,3.8614,3.9057,4.0283,4.0947,4.1724,4.2876,4.3411,4.3686,4.3746,4.3458,4.329,4.329,4.329,4.3609,4.4267,4.3457,4.3536,4.477,4.3646,4.2855,4.2508,4.1576,4.0653,3.973,4.0228,4.0438,4.0438,4.0487,4.0491,0.0,3.9955,3.9698,3.9647,3.9647,3.9321,3.8818,3.8793,3.8441,3.7939,3.7914,3.7563,3.716,3.716,3.6808,3.6405,3.6405,3.6049,3.562,3.5596,3.5572,3.5405,3.4678,3.3914,3.3133,3.2432,3.1781,3.1277,3.1088,3.0957,3.0898,3.0898,3.0898,3.0898,3.0898,3.0898,3.0898,3.0898,3.0898,3.0898,3.0898,3.0645,3.045,3.045,3.0128,2.9922,2.9922,2.9686,2.9538,2.9538,2.9183,2.884,2.837,2.8014,2.7444,2.6628,2.6591,2.6591,2.6591,2.6673,2.6875,2.7243,2.7683,2.8271,2.9005,2.8608,2.8627,3.2639,0.0,3.2382,3.2382,3.2906,3.3398,0.0,3.409,3.5028,3.6061,3.6276,3.6476,3.7123,3.7554,3.8138,3.9107,3.9691,4.0453,4.1661,4.2094,4.2508,4.3138,4.3319,4.3598,4.4108,4.3629,4.329,4.329,4.329,4.3609,4.4267,4.3395,4.3443,4.477,4.3779,4.3062,4.2715,4.1736,4.1127,4.0881,4.0837,4.0789,4.0789,4.0592,4.0389,4.0185,4.0057,3.9676,3.9095,3.9095,3.8743,3.8165,3.7763,3.7512,3.7361,3.6934,3.6683,3.6582,3.6582,3.6505,3.6405,3.6405,3.6193,3.586,3.5668,3.5307,3.5041,3.525,3.4805,3.4328,3.4553,3.3461,3.2331,3.2301,3.1556,3.0898,3.0898,3.0898,3.0898,3.0898,3.0898,3.0898,3.0898,3.0898,3.0898,3.0898,3.082,3.0762,3.0762,3.048,3.0274,3.0274,3.001,2.9804,2.9804,2.9302,2.8711,2.7995,2.7848,2.7444,2.6628,2.6591,2.6591,2.6591,2.7206,2.7555,2.7646,2.8381,2.8821,2.9005,2.8883,2.8931,3.2382,3.2382,3.2382,3.2382,3.2906,3.3398,3.3398,3.4459,3.5629,3.6369,3.6523,3.6784,3.7769,3.7934,3.827,3.9336,4.0182,4.1107,4.2264,4.299,4.3368,4.3309,4.3579,4.3908,4.4267,4.3698,4.3579,4.4177,4.3938,4.4177,4.5164,4.4684,4.4873,4.5925,4.4966,4.3901,4.2816,4.2259,4.1744,4.1299,4.1147,4.1022,4.0896,4.0618,4.0338,4.0083,3.9702,3.9322,3.8869,3.8617,3.814,3.7588,3.7287,3.706,3.6808,3.6505,3.6405,3.6405,3.6405,3.6405,3.6405,3.6405,3.6217,3.5955,3.5812,3.5575,3.5452,3.5858,3.5524,3.5044,3.498,3.4021,3.2903,3.2072,3.1373,3.0898,3.0898,3.0898,3.0898,3.0898,3.0898,3.0898,3.0898,3.0898,3.0898,3.0898,3.0898,3.0898,3.0898,3.0733,3.0645,3.0645,3.0333,3.0128,3.0128,2.9686,2.9101,2.8307,2.7805,2.7334,2.6885,2.671,2.671,2.6875,2.7665,2.8087,2.8087,2.8711,2.9005,2.9005,2.9005,2.9005,3.2382,3.2475,3.255,3.2427,3.3012,3.3552,3.3429,3.4999,3.6523,3.6523,3.6661,3.7184,3.843,3.8145,3.8171,3.9596,4.0619,4.1539,4.245,4.3488,4.3967,4.3499,4.3938,4.4326,4.4436,4.3938,4.4087,4.5214,4.4766,4.4984,4.6241,4.6083,4.6142,4.6688,4.5701,4.4306,4.2439,4.2665,4.2308,4.1299,4.1224,4.1021,4.0716,4.0388,4.0084,3.9753,3.907,0.0,3.8592,3.809,3.7563,3.7085,3.7085,3.6808,3.6405,3.6405,3.6405,3.6405,3.6405,3.6405,3.6405,3.6405,3.6217,3.5979,3.5979,3.594,3.5939,3.6369,3.6171,3.5663,3.4888,3.4202,3.3289,3.1572,3.1025,3.0898,3.0898,3.0898,3.0898,3.0898,3.0898,3.0898,3.0898,3.0898,3.0898,3.0898,3.0898,3.0918,3.0976,3.0996,3.1016,3.1074,3.0839,3.0653,3.0576,3.0252,2.9787,2.9092,2.8049,2.7362,2.7206,2.6875,2.6857,2.7206,2.7985,2.8388,2.8388,2.8792,2.9005,2.9005,2.9005,2.9005,3.2382,3.2813,3.3121,3.2536,3.3381,3.4182,3.3552,3.4999,3.6523,3.6523,3.74,3.8446,3.9199,3.9688,4.0272,4.1155,4.209,4.2667,4.262,4.3098,4.3638,4.4087,4.4237,4.4506,4.5095,4.5035,4.5065,4.5274,4.5185,4.5484,4.6271,4.494,4.4124,4.3993,4.2967,4.1866,4.0785,4.2113,4.2308,4.1299,4.082,4.0361,3.9874,3.9373,3.8844,3.834,0.0,3.7864,3.7462,3.7337,3.7009,3.6531,3.6531,3.648,3.6405,3.6405,3.6405,3.6405,3.6405,3.6405,3.6405,3.6405,3.6217,3.5979,3.5979,3.567,3.5527,3.6473,3.6854,3.6796,3.6102,3.5096,3.397,3.2721,3.1643,3.0898,3.0898,3.0898,3.0898,3.0898,3.0898,3.0898,3.0898,3.0898,3.0898,3.0898,3.0898,3.1016,3.1367,3.1426,3.1562,3.1964,3.1942,3.1756,3.1356,3.1,3.0649,3.0169,2.9141,2.816,2.7243,2.7151,2.7151,2.7206,2.7985,2.8388,2.8388,2.8792,2.9005,2.9005,2.9005,2.9005,3.2382,3.2875,3.3429,3.3505,3.4552,3.5599,3.5614,3.6907,3.8122,3.8122,3.8614,3.9227,3.9818,4.0082,4.0566,4.1814,4.2751,4.3251,4.3017,4.3788,4.4237,0.0,4.4087,4.4556,4.5214,4.4975,4.5214,4.6292,4.6052,4.5971,4.63,4.5569,4.4689,4.37,4.3506,4.2689,4.1232,4.1929,4.189,4.1072,4.0535,4.0002,3.9471,3.8892,3.839,3.799,0.0,3.7436,3.7185,3.6884,3.6607,3.6405,3.6405,3.6405,3.6405,3.6405,3.6405,3.6405,3.6405,3.6405,3.6405,3.6405,3.6217,3.5979,3.5979,3.5817,3.5671,3.5792,3.6273,3.6681,3.6318,3.5306,3.4112,3.297,3.1787,3.0898,3.0898,3.0898,3.0898,3.0898,3.0898,3.0898,3.0898,3.1074,3.123,3.123,3.1426,3.169,3.1836,3.1875,3.1983,3.2179,3.2198,3.212,3.1894,3.1735,3.1137,2.9881,2.9334,2.867,2.778,2.7965,2.7991,2.7867,2.861,2.8924,2.8748,2.9091,2.9183,2.9005,2.9005,2.9005,3.2598,3.3121,3.3891,3.4952,3.5876,3.6677,3.7338,3.8645,3.9691,3.9537,3.9719,4.0098,4.0734,4.0754,4.111,4.2333,4.2995,4.3366,4.3299,4.4177,4.4506,4.3638,4.4117,4.4796,4.5484,4.5214,4.5642,4.7189,4.6659,4.63,4.63,4.6001,4.5069,4.3416,4.3798,4.3093,4.116,4.1251,4.1095,4.0763,4.0119,3.9513,3.899,3.8385,3.7934,3.7588,3.721,3.7009,3.6984,3.6581,3.6405,3.6405,3.6405,3.648,3.6582,3.6733,3.6758,3.6758,3.6758,3.6758,3.6758,3.6758,3.664,3.6473,3.64,3.6333,3.6131,3.5413,3.5725,3.6187,3.5536,3.467,3.3691,3.2542,3.1556,3.0898,3.0898,3.0898,3.0898,3.0898,3.0976,3.1035,3.1035,3.1387,3.168,3.168,3.1953,3.2237,3.2335,3.2355,3.2374,3.2492,3.2492,3.2452,3.2355,3.2257,3.1558,3.0082,2.9698,2.924,2.8501,2.8696,2.869,2.8505,2.9068,2.9302,2.9124,2.9302,2.9302,2.9124,2.9035,2.9005,3.3152,3.3874,3.486,3.6784,3.6876,3.6677,3.7338,3.9014,4.0228,3.963,4.0401,4.1421,4.2271,4.2757,4.303,4.2955,4.2806,4.2805,4.324,0.0,4.3638,4.4177,4.4825,4.5484,4.6151,4.6749,4.716,4.7309,4.6659,4.63,4.63,4.5104,4.3616,4.1827,4.1731,4.0828,3.8932,3.9244,3.9743,4.0412,3.9376,3.8619,3.806,3.7527,3.7008,3.6507,3.648,3.6455,3.6431,3.643,3.6405,3.6405,3.6405,3.6708,3.721,3.7688,3.7889,3.7889,3.7889,3.7889,3.7889,3.7889,3.7865,3.7815,3.7568,3.7319,3.6915,3.6007,3.5937,3.5622,3.3494,3.2885,3.2514,3.1315,3.0957,3.0898,3.0898,3.0898,3.0898,3.0898,3.1211,3.1465,3.1465,3.1836,3.2159,3.2159,3.2179,3.2335,3.2695,3.2754,3.2891,3.325,3.3289,3.3164,3.2793,3.2413,3.2129,3.2001,3.0925,2.9996,2.9259,2.8942,2.8806,2.8777,2.895,2.9183,2.9479,2.9183,2.9183,2.945,2.9124,2.9005,3.3905,3.489,3.6122,3.7738,3.8245,3.8662,3.9801,4.0276,4.0553,4.0768,4.1027,4.14,4.1948,4.2417,4.2719,4.2642,4.2857,4.3089,4.328,4.3668,4.4027,4.4267,4.4885,4.5394,4.5663,4.5903,4.6052,4.6052,4.5813,4.5514,4.5074,4.4566,4.3281,4.1027,4.1655,4.1132,3.9283,3.9737,4.0005,4.014,3.9056,3.8558,3.8538,3.7962,3.7588,3.7387,3.7387,3.7387,3.7387,3.7387,3.7387,3.7387,3.7387,3.7513,3.7713,3.7939,3.8015,3.8015,3.8015,3.8015,3.8015,3.8015,3.7891,3.7717,3.7643,3.7293,3.6859,3.6426,3.5641,3.4869,3.4331,3.3807,3.3337,3.2867,3.2227,3.171,3.171,3.171,3.171,3.171,3.1846,3.1944,3.1944,3.2285,3.2559,3.2559,3.2773,3.3008,3.3164,3.3184,3.3242,3.3367,3.3386,3.3328,3.3203,3.3047,3.2832,3.2609,3.1618,3.0867,3.0379,2.9984,2.9705,2.9471,2.9522,2.9538,2.9509,2.9538,2.9538,2.9509,2.9361,2.939,3.4552,3.5629,3.6907,3.8676,3.9289,3.99,4.1801,4.1625,4.1203,4.1712,4.1949,4.2077,4.2014,4.2464,4.2807,0.0,4.3099,4.3349,4.3609,4.3997,4.4356,4.4586,4.5035,4.5304,4.5304,4.5304,4.5304,4.5304,4.5095,4.4796,4.4326,4.3981,4.2919,4.0955,4.1541,4.114,3.9599,3.9868,3.9983,3.9843,3.9064,3.8715,3.8718,3.824,3.8015,3.8015,3.8015,3.8015,3.8015,3.8015,3.8015,3.8015,3.8216,3.8291,3.8291,3.8467,3.8542,3.8542,3.8542,3.8542,3.8542,3.8542,3.8417,3.8266,3.8238,3.798,3.7507,3.6629,3.5697,3.4898,3.4469,3.3856,3.3345,3.3345,3.2784,3.2198,3.2198,3.2198,3.2198,3.2198,3.2316,3.2394,3.2394,3.2715,3.2988,3.2988,3.3211,3.3386,3.3386,3.3386,3.3386,3.3386,3.3386,3.3386,3.3386,3.3386,3.3269,3.3008,3.2324,3.1677,3.1176,3.0797,3.0438,3.0069,2.9951,2.9804,2.9627,2.9804,2.9804,2.9627,2.9627,2.9715,3.5137,3.603,3.7184,3.9845,3.9862,4.0008,4.2922,4.2904,4.2297,4.2297,4.3198,4.3717,4.287,4.3223,4.3695,4.3695,4.3478,4.3529,4.4207,4.4296,4.4556,4.5214,4.5304,4.5304,4.5274,4.5274,4.5274,4.5274,4.4676,4.4296,4.4296,4.3362,4.2403,4.1537,4.116,4.0566,3.9649,3.9334,3.9352,3.9595,3.9396,3.8992,3.8409,3.8139,3.8015,3.8015,3.8015,3.8015,3.8015,3.8015,3.8015,3.809,3.8668,3.8894,3.8969,3.9496,3.9697,3.9697,3.9697,3.9697,3.9697,3.9697,3.9722,3.9694,3.9637,3.9599,3.908,3.6649,3.6209,3.5934,3.3452,3.2531,3.2218,3.2218,3.2218,3.2218,3.2218,3.2218,3.2218,3.2218,3.2519,3.2793,3.2793,3.3144,3.3386,3.3386,3.3386,3.3386,3.3386,3.3386,3.3386,3.3386,3.3386,3.3386,3.3386,3.3386,3.3386,3.3386,3.3027,3.2422,3.1562,3.1206,3.0815,3.0421,3.0069,2.9892,2.9892,2.9892,2.9892,2.9892,2.9892,2.9892,3.6553,3.8061,3.963,4.097,4.1797,4.2394,4.2799,4.2102,4.1492,4.18,4.2149,4.2417,4.2466,4.3008,0.0,4.3438,4.3349,4.3349,4.3579,4.3997,4.4356,4.4566,4.5005,4.5095,4.4646,4.4616,4.4386,4.3938,4.4147,4.3981,4.3282,4.3404,4.3106,4.2227,4.1791,4.1464,4.123,4.0664,4.0357,4.021,3.9956,3.9652,3.9297,3.922,3.9195,3.9195,3.9195,3.9195,3.9195,3.9195,3.9195,3.922,3.9396,3.9472,3.9471,3.9647,3.9697,3.9747,4.0149,4.0275,4.0299,4.07,4.0826,4.0824,4.0787,4.0539,3.9959,3.8661,3.7424,3.6207,3.4933,3.3842,3.3047,3.3047,3.3047,3.3047,3.3047,3.3047,3.3047,3.3047,3.3144,3.3242,3.3242,3.3308,3.3386,3.3386,3.3386,3.3386,3.3386,3.3386,3.3386,3.3386,3.3386,3.3386,3.3386,3.3386,3.3386,3.3386,3.3301,3.2988,3.2441,3.1746,3.1297,3.118,3.0575,3.0245,3.0245,3.0245,3.0245,3.0245,3.0245,3.0362,3.7461,3.9168,4.0737,4.1771,4.2516,4.3045,4.2812,4.2102,4.1663,4.2126,4.2115,4.2231,4.2816,4.3359,0.0,4.3319,4.3499,4.3698,4.3698,4.4057,4.4296,4.4296,4.4676,4.4646,4.3967,4.3908,4.3848,4.3728,4.4057,4.4162,4.381,4.3654,4.3361,4.2851,4.2022,4.1554,4.1506,4.1089,4.0719,4.0338,4.0185,3.9955,3.9697,3.9697,3.9697,3.9697,3.9697,3.9697,3.9697,3.9697,3.9823,4.0023,4.0023,4.0149,4.035,4.035,4.035,4.0374,4.07,4.0826,4.0876,4.1175,4.1302,4.1245,4.0846,4.0483,3.9886,3.8387,3.714,3.6027,3.4912,3.3996,3.3386,3.3386,3.3386,3.3386,3.3386,3.3386,3.3386,3.3386,3.3386,3.3386,3.3386,3.3386,3.3386,3.3386,3.3386,3.3386,3.3386,3.3386,3.3386,3.3386,3.3386,3.3386,3.3386,3.3386,3.3386,3.3386,3.3386,3.3269,3.3066,3.2383,3.1855,3.1523,3.1073,3.0683,3.0392,3.0538,3.0538,3.0392,3.0538,3.0704,3.803,3.963,4.1045,4.243,4.2751,4.2768,4.3069,4.2858,4.2658,4.2933,4.2765,4.2793,4.3445,4.3928,4.3997,4.3379,4.3818,4.4207,4.4207,4.4207,4.4207,4.4207,4.4207,4.3997,4.3439,4.3379,4.3668,4.4326,4.4446,4.4725,4.5209,4.4075,4.3378,4.3378,4.2016,4.1223,4.1021,4.0946,4.0643,4.0109,4.0109,3.9955,3.9697,3.9697,3.9697,3.9697,3.9747,3.9772,3.9772,3.9823,4.0149,4.0575,4.0575,4.0876,4.1302,4.1302,4.1302,4.1327,4.1378,4.1378,4.1403,4.1453,4.1453,4.1282,4.0371,3.9983,3.9364,3.6868,3.6053,3.5561,3.389,3.3449,3.3449,3.3418,3.3386,3.3386,3.3386,3.3386,3.3386,3.3386,3.3386,3.3386,3.3386,3.3386,3.3386,3.3386,3.3386,3.3386,3.3386,3.3386,3.3386,3.3386,3.3386,3.3386,3.3386,3.3386,3.3386,3.3386,3.3386,3.3386,3.3386,3.3008,3.2422,3.1611,3.1601,3.1219,3.0566,3.0879,3.0849,3.0566,3.0879,3.1016,3.8738,4.0676,4.2461,4.3852,4.4922,4.5437,4.4477,4.4588,4.4504,4.3053,4.27,4.2702,4.2668,4.314,4.3489,4.3319,4.3409,4.3519,4.3519,4.3519,4.3519,4.3519,4.3519,4.3668,4.4057,4.4087,4.4356,4.5035,4.5553,4.5595,4.4923,4.4396,4.4092,4.4092,4.2279,4.1547,4.2088,4.1297,4.0643,4.0109,4.0109,3.9955,3.9697,3.9697,3.9697,3.9722,4.0149,4.035,4.0349,4.0775,4.1026,4.1127,4.1127,4.1202,4.1302,4.1302,4.1302,4.1378,4.1831,4.2009,4.2085,4.2512,4.2635,4.2579,4.2373,4.144,4.0122,3.855,3.7218,3.5921,3.4235,3.3796,3.3733,3.3449,3.3386,3.3386,3.3386,3.3386,3.3386,3.3386,3.3386,3.3386,3.3386,3.3386,3.3386,3.3386,3.3386,3.3386,3.3386,3.3386,3.3386,3.3386,3.3386,3.3386,3.3386,3.3386,3.3386,3.3386,3.3386,3.3386,3.3386,3.3008,3.2715,3.2519,3.2207,3.1973,3.1834,3.1894,3.1894,3.1834,3.1894,3.1925,3.8553,4.0539,4.2509,4.419,4.5361,4.5946,4.5237,4.5361,4.5398,4.4602,4.417,4.3869,4.3674,4.4078,4.4198,4.3449,4.3579,4.3668,4.3349,4.329,4.3409,4.3758,4.3788,4.4027,4.4706,4.4796,4.5065,4.5753,4.6091,4.5984,4.533,4.4675,4.4078,4.3606,4.2115,4.1423,4.1668,4.1021,4.0619,4.0464,4.036,4.0355,4.0449,4.0199,4.0224,4.0474,4.075,4.0876,4.0901,4.1175,4.1478,4.1731,4.1731,4.1882,4.2133,4.2133,4.2133,4.2158,4.2487,4.2587,4.2637,4.2914,4.3014,4.2765,4.1529,4.0611,3.951,3.7459,3.6298,3.5428,3.4423,3.4016,3.3859,3.367,3.3513,3.3386,3.3386,3.3386,3.3386,3.3386,3.3386,3.3386,3.3386,3.3386,3.3386,3.3386,3.3386,3.3386,3.3386,3.3386,3.3386,3.3386,3.3386,3.3386,3.3386,3.3386,3.3386,3.3386,3.3386,3.3386,3.3386,3.3203,3.3008,3.2793,3.2578,3.2394,3.2198,3.2198,3.2198,3.2198,3.2198,3.2198,3.7968,4.0108,4.2355,4.416,4.5268,4.5865,4.5669,4.5884,4.6175,4.6436,4.5805,4.5177,4.4989,4.5132,4.484,4.3509,4.3758,4.3938,4.3399,4.3379,4.3698,4.4237,4.4386,4.4736,4.5394,4.5484,4.5753,4.642,4.6301,4.6099,4.5817,4.4684,4.3677,4.284,4.1819,4.1147,4.0846,4.0746,4.0747,4.0842,4.0706,4.0926,4.1428,4.1003,4.0976,4.1327,4.1403,4.1453,4.1453,4.1553,4.1882,4.2363,4.2363,4.2612,4.3014,4.3014,4.3014,4.3014,4.3014,4.3014,4.3014,4.3014,4.3014,4.2597,4.0495,3.9539,3.8684,3.6328,3.5335,3.4891,3.4517,3.4204,3.3953,3.3827,3.3607,3.3386,3.3386,3.3386,3.3386,3.3386,3.3386,3.3386,3.3386,3.3386,3.3386,3.3386,3.3386,3.3386,3.3386,3.3386,3.3386,3.3386,3.3386,3.3386,3.3386,3.3386,3.3386,3.3386,3.3386,3.3386,3.3386,3.3386,3.323,3.291,3.291,3.2734,3.2413,3.2413,3.2413,3.2413,3.2413,3.2413,3.743,4.0433,4.3544,4.4375,4.5976,4.7034,4.5865,4.6942,4.8019,4.7324,4.6041,4.4989,4.477,4.4128,4.3539,4.3319,4.3399,4.3379,4.329,4.3818,4.4207,4.4296,4.4825,4.5424,4.6091,4.6181,4.645,4.713,4.6359,4.5848,4.5801,4.4027,4.2937,4.2792,4.1819,4.1073,4.0542,4.1209,4.1208,4.0578,4.1003,4.1478,4.2085,4.2009,4.1731,4.1327,4.1831,4.2085,4.211,4.2587,4.2838,4.2889,4.2889,4.2939,4.3014,4.3014,4.3014,4.3014,4.3014,4.3014,4.3014,4.3014,4.3014,4.2958,4.2597,4.0957,3.9128,3.8714,3.7058,3.5201,3.4548,3.436,3.4204,3.3607,3.3418,3.3386,3.3386,3.3386,3.3386,3.3386,3.3386,3.3386,3.3386,3.3386,3.3386,3.3386,3.3386,3.3386,3.3386,3.3386,3.3386,3.3386,3.3386,3.3386,3.3386,3.3386,3.3386,3.3386,3.3386,3.3386,3.3386,3.3386,3.3367,3.3308,3.3308,3.3269,3.323,3.323,3.323,3.323,3.323,3.323,3.8122,4.0786,4.339,4.4806,4.6111,4.6973,4.6757,4.7302,4.7875,4.7864,4.6812,4.5757,4.5343,4.4609,4.3918,4.3389,4.329,4.3429,4.3818,4.4117,4.4566,4.5343,4.5672,4.6121,4.68,4.6839,4.6764,4.6477,4.6054,4.5326,4.4191,4.3269,4.2525,4.1991,4.1863,4.1617,4.1183,4.1698,4.1794,4.1456,4.1982,4.2384,4.2637,4.2637,4.2512,4.2283,4.2537,4.2637,4.2663,4.2914,4.3014,4.3014,4.3014,4.3014,4.3014,4.3014,4.3014,4.3014,4.3014,4.3014,4.3014,4.3014,4.3014,4.2849,4.215,4.0668,3.9039,3.8358,3.6816,3.5294,3.4797,3.4548,3.4267,3.3796,3.3544,3.3386,3.3386,3.3386,3.3386,3.3386,3.3386,3.3386,3.3386,3.3386,3.3386,3.3386,3.3386,3.3386,3.3386,3.3386,3.3386,3.3386,3.3386,3.3386,3.3386,3.3386,3.3386,3.3386,3.3386,3.3386,3.3386,3.3386,3.3386,3.3386,3.3386,3.3386,3.3386,3.3386,3.3386,3.3386,3.3386,3.3386,3.8354,4.0368,4.2294,4.4326,4.5549,4.6401,4.6893,4.7252,4.7546,0.0,4.7183,4.6448,4.5934,4.5181,4.4309,4.3449,4.3459,4.3728,4.4237,4.4596,4.5164,4.6181,4.645,4.6749,4.7249,4.7062,4.6704,4.6211,4.5485,4.4494,4.3249,4.2695,4.2143,4.1558,4.19,4.1982,4.1828,4.2079,4.2266,4.2386,4.2813,4.3014,4.3014,4.3014,4.3014,4.3014,4.3014,4.3014,4.3014,4.3014,4.3014,4.3014,4.3014,4.3014,4.3014,4.3014,4.3014,4.3014,4.3014,4.3014,4.3014,4.3014,4.3014,4.2821,4.1866,4.0495,3.901,3.8059,3.6633,3.5294,3.4891,3.4579,3.4298,3.3859,3.3576,3.3386,3.3386,3.3386,3.3386,3.3386,3.3386,3.3386,3.3386,3.3386,3.3386,3.3386,3.3386,3.3386,3.3386,3.3386,3.3386,3.3386,3.3386,3.3386,3.3386,3.3386,3.3386,3.3386,3.3386,3.3386,3.3386,3.3386,3.3386,3.3386,3.3386,3.3386,3.3386,3.3386,3.3386,3.3386,3.3386,3.3386,3.7215,3.8614,4.0153,4.2263,4.4051,4.5375,4.5406,0.0,4.77,4.6864,4.665,4.6536,4.6304,4.5214,4.4107,4.3429,4.3848,4.4267,4.4296,4.5403,4.6211,4.63,4.6839,4.7279,4.7309,4.6432,4.6255,4.7127,4.4563,4.3344,4.4195,4.2406,4.161,4.2134,4.1878,4.1879,4.2184,4.2184,4.2466,4.2964,4.2989,4.3014,4.3014,4.3014,4.3014,4.3014,4.3014,4.3014,4.3014,4.3014,4.3014,4.3014,4.3014,4.3014,4.3014,4.3014,4.3014,4.3014,4.3014,4.3014,4.3014,4.3014,4.3014,4.2986,4.293,4.1157,3.9187,3.9128,3.733,3.5263,3.461,3.4423,3.4235,3.3576,3.3418,3.3386,3.3386,3.3386,3.3386,3.3386,3.3386,3.3386,3.3386,3.3386,3.3386,3.3386,3.3386,3.3386,3.3386,3.3386,3.3386,3.3386,3.3386,3.3386,3.3386,3.3386,3.3386,3.3386,3.3386,3.3386,3.3386,3.3386,3.3386,3.3386,3.3386,3.3386,3.3386,3.3386,3.3386,3.3386,3.3386,3.3386,3.703,3.7861,3.9031,4.2404,4.3603,4.4289,4.5642,4.6548,4.7135,4.7232,4.7134,4.6886,4.6411,4.5194,4.4207,4.3967,4.4147,4.4446,4.4885,4.5732,4.645,4.6869,4.716,4.704,4.6388,4.6594,4.6395,4.5417,4.4382,4.3654,4.3368,4.2412,4.1977,4.2186,4.2788,4.3175,4.3312,4.2916,4.2813,4.3014,4.3014,4.3014,4.3014,4.3014,4.3014,4.3014,4.3014,4.3014,4.3014,4.3014,4.3014,4.3014,4.3014,4.3014,4.3014,4.3014,4.3014,4.3014,4.3014,4.3014,4.3014,4.3014,4.3014,4.3014,4.3014,4.181,4.0239,3.9422,3.794,3.6328,3.5056,3.4735,3.4548,3.389,3.3544,3.3386,3.3386,3.3386,3.3386,3.3386,3.3386,3.3386,3.3386,3.3386,3.3386,3.3386,3.3386,3.3386,3.3386,3.3386,3.3386,3.3386,3.3386,3.3386,3.3386,3.3386,3.3386,3.3386,3.3386,3.3386,3.3386,3.3386,3.3386,3.3386,3.3386,3.3386,3.3386,3.3386,3.3386,3.3386,3.3386,3.3386,3.6122,3.6815,3.7984,4.1388,4.2505,4.3259,4.5065,4.603,4.6632,4.7053,4.7246,4.716,4.6719,4.5702,4.4895,4.4676,4.4646,4.4885,4.5544,4.6211,4.6779,4.7249,4.7309,4.6909,4.5891,4.6388,0.0,0.0,4.4008,0.0,4.3115,4.2531,4.2292,4.2476,4.3411,4.3789,4.3598,4.3209,4.3014,4.3014,4.3014,4.3014,4.3014,4.3014,4.3014,4.3014,4.3014,4.3014,4.3014,4.3014,4.3014,4.3014,4.3014,4.3014,4.3014,4.3014,4.3014,4.3014,4.3014,4.3014,4.3014,4.3014,4.3014,4.3014,4.3014,4.181,4.0268,3.9451,3.797,3.6389,3.5232,3.4735,3.4454,3.4016,3.3639,3.3386,3.3386,3.3386,3.3386,3.3386,3.3386,3.3386,3.3386,3.3386,3.3386,3.3386,3.3386,3.3386,3.3386,3.3386,3.3386,3.3386,3.3386,3.3386,3.3386,3.3386,3.3386,3.3386,3.3386,3.3386,3.3386,3.3386,3.3386,3.3386,3.3386,3.3386,3.3386,3.3386,3.3386,3.3386,3.3386,3.3386,0.0,0.0,0.0,3.8953,4.068,0.0,4.3554,0.0,4.63,4.6271,4.6809,4.7309,4.7309,4.6749,4.6091,4.5454,4.5334,4.5574,4.6211,4.6869,4.7309,4.7309,0.0,0.0,0.0,0.0,0.0,0.0,4.3368,4.309,4.3663,4.2796,4.2502,4.3029,4.3592,4.3598,4.3042,4.3014,4.3014,4.3014,4.3014,4.3014,4.3014,4.3014,4.3014,4.3014,4.3014,4.3014,4.3014,4.3014,4.3014,4.3014,4.3014,4.3014,4.3014,4.3014,4.3014,4.3039,4.3014,4.3014,4.3039,4.3014,4.2986,4.2933,4.2933,4.1186,3.9187,3.9157,3.7339,3.5356,3.5015,3.4423,3.3922,3.3922,3.3639,3.3386,3.3386,3.3386,3.3386,3.3386,3.3386,3.3386,3.3386,3.3386,3.3386,3.3386,3.3386,3.3386,3.3386,3.3386,3.3386,3.3386,3.3386,3.3386,3.3386,3.3386,3.3386,3.3386,3.3386,3.3386,3.3386,3.3386,3.3386,3.3386,3.3386,3.3386,3.3386,3.3386,3.3386,3.3386,3.3386,3.3386,3.4351,0.0,0.0,0.0,0.0,0.0,0.0,0.0,4.6151,4.5693,4.6501,4.7309,4.7309,4.6749,4.639,4.6711,4.6352,4.6091,4.6271,4.6869,0.0,0.0,0.0,0.0,0.0,0.0,0.0,0.0,4.3757,4.35,4.369,4.3513,4.3596,4.3945,4.3907,4.3708,4.3295,4.3101,4.3014,4.3014,4.3014,4.3014,4.3014,4.3014,4.3014,4.3014,4.3014,4.3014,4.3014,4.3014,4.3014,4.3014,4.3014,4.3014,4.3014,4.3014,4.3266,4.3514,4.314,4.3237,4.3514,4.314,4.24,4.1615,4.1615,4.0471,3.901,3.8067,3.7309,3.6542,3.552,3.4766,3.4267,3.4267,3.3827,3.3386,3.3386,3.3386,3.3386,3.3386,3.3386,3.3386,3.3386,3.3386,3.3386,3.3386,3.3386,3.3386,3.3386,3.3386,3.3386,3.3386,3.3386,3.3386,3.3386,3.3386,3.3386,3.3386,3.3386,3.3386,3.3386,3.3386,3.3386,3.3386,3.3386,3.3386,3.3386,3.3386,3.3386,3.3386,3.3386,3.3386,3.432,3.4923,3.5815,3.774,0.0,0.0,0.0,0.0,0.0,0.0,4.698,4.7638,4.7369,4.7219,4.7189,4.7279,4.6958,4.6719,4.6719,0.0,0.0,0.0,0.0,0.0,0.0,4.5167,4.4591,4.3153,4.3435,4.3708,4.3765,4.3966,4.4084,4.4121,4.3846,4.3543,4.324,4.3073,4.3014,4.3014,4.3014,4.3014,4.3014,4.3014,4.3014,4.3014,4.3014,4.3014,4.3014,4.3014,4.3014,4.3014,4.3014,4.3014,4.3014,4.3014,4.3215,4.3438,4.3363,4.3539,4.379,4.3689,4.2639,4.1437,4.1437,4.0024,3.8268,3.7519,3.6915,3.6298,3.5418,3.4797,3.436,3.4235,3.3796,3.3386,3.3386,3.3386,3.3386,3.3386,3.3386,3.3386,3.3386,3.3386,3.3386,3.3386,3.3386,3.3386,3.3386,3.3386,3.3386,3.3386,3.3386,3.3386,3.3386,3.3386,3.3386,3.3386,3.3386,3.3386,3.3386,3.3386,3.3386,3.3386,3.3386,3.3386,3.3386,3.3386,3.3386,3.3386,3.3386,3.3386,3.4537,3.5002,3.5782,3.7659,0.0,0.0,0.0,0.0,0.0,0.0,4.7399,4.7766,4.7149,4.7515,4.7702,4.7086,4.7062,0.0,0.0,0.0,0.0,0.0,0.0,0.0,4.4406,4.4195,4.3392,4.1597,4.2828,4.3708,4.3991,4.4191,4.4176,4.3899,4.3572,4.3268,4.3014,4.3014,4.3014,4.3014,4.3014,4.3014,4.3014,4.3014,4.3014,4.3014,4.3014,4.3014,4.3014,4.3014,4.3014,4.3014,4.3014,4.3014,4.3014,4.3014,4.3039,4.3165,4.3564,4.379,4.3966,4.4364,4.3266,4.1761,4.1761,3.9662,3.7249,3.7184,3.631,3.5325,3.4984,3.4641,3.4329,3.3985,3.3639,3.3386,3.3386,3.3386,3.3386,3.3386,3.3386,3.3386,3.3386,3.3386,3.3386,3.3386,3.3386,3.3386,3.3386,3.3386,3.3386,3.3386,3.3386,3.3386,3.3386,3.3386,3.3386,3.3386,3.3386,3.3386,3.3386,3.3386,3.3386,3.3386,3.3386,3.3386,3.3386,3.3386,3.3386,3.3386,3.3386,3.3386,3.5891,3.5951,3.63,0.0,0.0,0.0,0.0,4.1542,0.0,0.0,4.4696,4.576,4.5361,4.5405,4.5366,4.4949,0.0,0.0,0.0,0.0,0.0,0.0,0.0,0.0,4.4406,4.3583,4.2937,4.2525,4.29,4.3546,4.4487,4.4371,4.4176,4.3899,4.3572,4.3268,4.3014,4.3014,4.3014,4.3014,4.3014,4.3014,4.3014,4.3014,4.3014,4.3014,4.3014,4.3014,4.3014,4.3014,4.3014,4.3014,4.3014,4.3014,4.3014,4.3014,4.3263,4.3589,4.3263,4.3714,4.4389,4.4066,4.2578,4.0943,4.0943,3.9029,3.6813,3.6436,3.5894,3.5325,3.4984,3.4641,3.4329,3.3985,3.3639,3.3386,3.3386,3.3386,3.3386,3.3386,3.3386,3.3386,3.3386,3.3386,3.3386,3.3386,3.3386,3.3386,3.3386,3.3386,3.3386,3.3386,3.3386,3.3386,3.3386,3.3386,3.3386,3.3386,3.3386,3.3386,3.3386,3.3386,3.3386,3.3386,3.3386,3.3386,3.3386,3.3386,3.3386,3.3386,3.3386,3.3386,0.0,0.0,0.0,3.7982,0.0,0.0,0.0,0.0,0.0,0.0,4.402,4.4557,4.4378,0.0,4.4042,0.0,0.0,0.0,0.0,0.0,0.0,0.0,0.0,0.0,4.3606,4.2649,4.2172,4.249,4.2809,4.3363,4.4251,4.4157,4.4037,4.3899,4.3459,4.3129,4.3014,4.3014,4.3014,4.3014,4.3014,4.3014,4.3014,4.3014,4.3014,4.3014,4.3014,4.3014,4.3014,4.3014,4.3014,4.3014,4.3014,4.3014,4.3014,4.3014,4.3341,4.3704,4.3021,4.3306,4.3904,4.3222,4.169,4.0083,4.0083,3.8536,3.6763,3.6515,3.6287,3.5933,3.5204,3.4891,3.4579,3.3824,3.3513,3.3386,3.3386,3.3386,3.3386,3.3386,3.3386,3.3386,3.3386,3.3386,3.3386,3.3386,3.3386,3.3386,3.3386,3.3386,3.3386,3.3386,3.3386,3.3386,3.3386,3.3386,3.3386,3.3386,3.3386,3.3386,3.3386,3.3386,3.3386,3.3386,3.3386,3.3386,3.3386,3.3386,3.3386,3.3386,3.3386,3.3386,0.0,0.0,0.0,0.0,0.0,3.9361,0.0,0.0,0.0,0.0,0.0,0.0,0.0,0.0,0.0,0.0,0.0,0.0,0.0,0.0,0.0,0.0,0.0,0.0,0.0,4.1875,4.1664,4.216,4.2631,4.3179,4.378,4.3709,4.3689,4.3791,4.3293,4.3014,4.3014,4.3014,4.3014,4.3014,4.3014,4.3014,4.3014,4.3014,4.3014,4.3014,4.3014,4.3065,4.3165,4.3165,4.3187,4.3291,4.309,4.3014,4.3014,4.3014,4.3263,4.3519,4.2613,4.2652,4.2968,4.2171,4.0873,3.9592,3.9335,3.8166,3.6929,3.6929,3.6867,3.6561,3.5596,3.5324,3.5063,3.4005,3.3708,3.3598,3.3555,3.3445,3.3386,3.3386,3.3386,3.3386,3.3386,3.3386,3.3386,3.3386,3.3386,3.3386,3.3386,3.3386,3.3386,3.3386,3.3386,3.3386,3.3386,3.3386,3.3386,3.3386,3.3386,3.3386,3.3386,3.3386,3.3386,3.3386,3.3386,3.3386,3.3386,3.3386,3.3386,3.3386,3.3386,3.3386,0.0,0.0,0.0,0.0,3.8918,0.0,0.0,0.0,0.0,0.0,0.0,0.0,0.0,0.0,0.0,0.0,0.0,0.0,0.0,0.0,0.0,0.0,0.0,0.0,0.0,4.1844,4.2134,4.2186,4.2476,4.289,4.3433,4.2998,4.2979,4.3436,4.3156,4.3014,4.3014,4.3014,4.3014,4.3014,4.3014,4.3014,4.3014,4.3014,4.3014,4.3014,4.3014,4.3263,4.3714,4.3714,4.3991,4.4313,4.3363,4.3014,4.3014,4.3014,4.3039,4.2922,4.1699,4.1629,4.1928,4.1135,4.0536,3.9899,3.8696,3.7909,3.7425,3.7425,3.7115,3.6687,3.6292,3.6175,3.5961,3.5274,3.4762,3.4389,3.41,3.3691,3.3386,3.3386,3.3386,3.3386,3.3386,3.3386,3.3386,3.3386,3.3386,3.3386,3.3386,3.3386,3.3386,3.3386,3.3386,3.3386,3.3386,3.3386,3.3386,3.3386,3.3386,3.3386,3.3386,3.3386,3.3386,3.3386,3.3386,3.3386,3.3386,3.3386,3.3386,3.3386,3.3386,3.3386,0.0,0.0,0.0,0.0,0.0,0.0,4.0038,0.0,3.9939,0.0,0.0,0.0,0.0,0.0,0.0,0.0,0.0,0.0,0.0,0.0,0.0,0.0,0.0,0.0,0.0,0.0,0.0,0.0,4.1724,4.2136,4.2676,4.2633,4.2848,4.3381,4.3129,4.3014,4.3014,4.3014,4.3014,4.3014,4.3014,4.3014,4.3014,4.3313,4.3463,4.3463,4.379,4.4066,4.4238,4.4238,4.4389,4.4539,4.4116,4.394,4.394,4.394,4.4141,4.4157,4.2001,4.164,4.1769,3.9866,3.9141,3.8946,3.837,3.8046,3.7902,3.7902,3.7757,3.7484,3.6857,3.671,3.6485,3.5538,3.5156,3.4888,3.4531,3.4297,3.416,3.416,3.416,3.416,3.416,3.3718,3.3386,3.3386,3.3386,3.3386,3.3386,3.3386,3.3386,3.3386,3.3386,3.3386,3.3386,3.3386,3.3386,3.3386,3.3386,3.3386,3.3386,3.3386,3.3386,3.3386,3.3386,3.3386,3.3386,3.3386,3.3386,3.3386,3.3386,3.3386,4.4513,0.0,0.0,0.0,0.0,0.0,0.0,0.0,0.0,0.0,0.0,0.0,0.0,0.0,0.0,0.0,0.0,0.0,0.0,0.0,0.0,0.0,0.0,0.0,0.0,0.0,0.0,0.0,0.0,4.1745,4.2281,4.2266,4.256,4.327,4.3101,4.3014,4.3014,4.3014,4.3014,4.3014,4.3014,4.309,4.324,4.3614,4.389,4.4041,4.4414,4.469,4.4869,4.4869,4.4916,4.5066,4.5066,4.5066,4.5016,4.4715,4.4895,4.4867,4.2153,4.108,4.0585,3.8657,3.8088,3.8191,3.8191,3.8191,3.8191,3.8191,3.8191,3.8075,3.748,3.7311,3.7098,3.6128,3.577,3.5507,3.5113,3.4851,3.4707,3.4707,3.4707,3.4707,3.4707,3.4082,3.3594,3.3594,3.3464,3.3386,3.3386,3.3386,3.3386,3.3386,3.3386,3.3386,3.3386,3.3386,3.3386,3.3386,3.3386,3.3386,3.3386,3.3386,3.3386,3.3386,3.3386,3.3386,3.3386,3.3386,3.3386,3.3386,3.3386,3.3386,0.0,0.0,0.0,4.3319,0.0,0.0,0.0,0.0,3.9746,0.0,0.0,0.0,0.0,0.0,0.0,0.0,0.0,0.0,0.0,0.0,0.0,0.0,0.0,0.0,0.0,0.0,0.0,0.0,0.0,0.0,4.2544,4.1818,4.1856,4.2964,4.3014,4.3014,4.3014,4.3014,4.3014,4.3014,4.3014,4.3263,4.3765,4.379,4.4091,4.4564,4.4589,4.4945,4.5472,4.5472,4.5773,4.625,4.625,4.625,4.6125,4.4991,4.4614,4.424,4.1643,3.9362,3.7639,3.7541,3.7819,3.8191,3.8191,3.8191,3.8191,3.8191,3.8191,3.8191,3.8171,3.8171,3.805,3.7608,3.6929,3.6262,3.5931,3.5264,3.4707,3.4707,3.4707,3.4707,3.4707,3.4336,3.4075,3.4075,3.3691,3.3386,3.3386,3.3386,3.3386,3.3386,3.3386,3.3386,3.3386,3.3386,3.3386,3.3386,3.3386,3.3386,3.3386,3.3386,3.3386,3.3386,3.3386,3.3386,3.3386,3.3386,3.3386,3.3386,3.3386,3.3386,0.0,0.0,4.7057,4.5633,0.0,0.0,0.0,0.0,0.0,0.0,0.0,0.0,0.0,0.0,0.0,0.0,0.0,0.0,0.0,0.0,0.0,0.0,0.0,0.0,0.0,0.0,0.0,0.0,0.0,0.0,0.0,4.1281,4.1654,4.2436,4.2813,4.3014,4.3014,4.3014,4.3014,4.3014,4.3338,4.3614,4.384,4.4568,4.502,4.5221,4.5573,4.5849,4.6024,4.6024,4.615,4.6301,4.6301,4.6301,4.6245,4.5874,4.5748,4.5336,4.2629,4.0078,3.7943,3.7943,3.8067,3.8191,3.8191,3.8191,3.8191,3.8191,3.8191,3.8191,3.8191,3.8191,3.8104,3.7683,3.7393,3.7091,3.6757,3.6249,3.5882,3.5882,3.5734,3.5566,3.5566,3.5234,3.4844,3.4531,3.4355,3.416,3.3887,3.3848,3.375,3.3425,3.3386,3.3386,3.3386,3.3386,3.3386,3.3386,3.3386,3.3386,3.3386,3.3386,3.3386,3.3386,3.3386,3.3386,3.3386,3.3386,3.3386,3.3386,3.3386,3.3574,4.825,4.8343,0.0,4.698,4.713,0.0,4.5552,0.0,0.0,0.0,0.0,0.0,0.0,0.0,0.0,0.0,0.0,0.0,0.0,0.0,0.0,0.0,0.0,0.0,0.0,0.0,0.0,0.0,0.0,0.0,0.0,0.0,4.1781,4.2213,4.2713,4.3014,4.3014,4.3014,4.3014,4.3014,4.3539,4.389,4.4116,4.507,4.5598,4.5799,4.615,4.6301,4.6301,4.6301,4.6301,4.6301,4.6301,4.6301,4.6301,4.6301,4.5671,4.4583,4.2824,4.0452,3.8191,3.8191,3.8191,3.8191,3.8191,3.8191,3.8191,3.8191,3.8191,3.8191,3.8191,3.8191,3.8137,3.787,3.7683,3.7549,3.7314,3.6856,3.6553,3.6688,3.6336,3.605,3.6166,3.5849,3.5469,3.5019,3.4805,3.4551,3.4153,3.4114,3.3906,3.3445,3.3386,3.3386,3.3386,3.3386,3.3386,3.3386,3.3386,3.3386,3.3386,3.3386,3.3386,3.3386,3.3386,3.3386,3.3386,3.3386,3.3386,3.3386,3.3574,3.3809]}]]